Wetterdaten: Freitag, 09.09.2016
Datum Zeit Temp. A. Feuchte A. Luftdruck Regen Wind Richtung Richtung Sonnenschein ET UV Solar Taupunkt Windchill Windben Empfang
09.09.2016 00:00 16,6 C 92 % 1013,4 hPa 0,0 l/m 1,2 km/h (1 Bft) S-SW 194 0 min 0,000 mm 0,0 UV-I 0 W/m 15,3 C 16,6 C 3,2 km/h (1 Bft) 100,00 %
09.09.2016 00:02 16,7 C 92 % 1013,4 hPa 0,0 l/m 3,4 km/h (1 Bft) S-SW 194 0 min 0,000 mm 0,0 UV-I 0 W/m 15,4 C 16,7 C 4,8 km/h (1 Bft) 100,00 %
09.09.2016 00:04 16,7 C 92 % 1013,4 hPa 0,0 l/m 3,6 km/h (1 Bft) S-SW 194 0 min 0,000 mm 0,0 UV-I 0 W/m 15,4 C 16,7 C 4,8 km/h (1 Bft) 97,87 %
09.09.2016 00:06 16,8 C 92 % 1013,4 hPa 0,0 l/m 2,6 km/h (1 Bft) S-SW 194 0 min 0,000 mm 0,0 UV-I 0 W/m 15,5 C 16,8 C 4,8 km/h (1 Bft) 100,00 %
09.09.2016 00:08 16,8 C 92 % 1013,4 hPa 0,0 l/m 2,6 km/h (1 Bft) S-SW 194 0 min 0,000 mm 0,0 UV-I 0 W/m 15,5 C 16,8 C 4,8 km/h (1 Bft) 100,00 %
09.09.2016 00:10 16,8 C 91 % 1013,4 hPa 0,0 l/m 1,7 km/h (1 Bft) S-SW 194 0 min 0,000 mm 0,0 UV-I 0 W/m 15,3 C 16,8 C 4,8 km/h (1 Bft) 97,87 %
09.09.2016 00:12 16,8 C 91 % 1013,4 hPa 0,0 l/m 3,7 km/h (1 Bft) S-SW 194 0 min 0,000 mm 0,0 UV-I 0 W/m 15,3 C 16,8 C 4,8 km/h (1 Bft) 100,00 %
09.09.2016 00:14 16,8 C 92 % 1013,5 hPa 0,0 l/m 2,5 km/h (1 Bft) S-SW 194 0 min 0,000 mm 0,0 UV-I 0 W/m 15,5 C 16,8 C 4,8 km/h (1 Bft) 100,00 %
09.09.2016 00:16 16,8 C 91 % 1013,4 hPa 0,0 l/m 1,0 km/h (0 Bft) S-SW 194 0 min 0,000 mm 0,0 UV-I 0 W/m 15,3 C 16,8 C 1,6 km/h (1 Bft) 98,11 %
09.09.2016 00:18 16,7 C 91 % 1013,5 hPa 0,0 l/m 1,5 km/h (1 Bft) S-SW 194 0 min 0,000 mm 0,0 UV-I 0 W/m 15,2 C 16,7 C 1,6 km/h (1 Bft) 100,00 %
09.09.2016 00:20 16,7 C 91 % 1013,4 hPa 0,0 l/m 2,4 km/h (1 Bft) S-SW 194 0 min 0,000 mm 0,0 UV-I 0 W/m 15,2 C 16,7 C 3,2 km/h (1 Bft) 100,00 %
09.09.2016 00:22 16,6 C 91 % 1013,4 hPa 0,0 l/m 3,1 km/h (1 Bft) S-SW 194 0 min 0,000 mm 0,0 UV-I 0 W/m 15,1 C 16,6 C 4,8 km/h (1 Bft) 100,00 %
09.09.2016 00:24 16,4 C 92 % 1013,4 hPa 0,0 l/m 1,7 km/h (1 Bft) S-SW 194 0 min 0,000 mm 0,0 UV-I 0 W/m 15,1 C 16,4 C 3,2 km/h (1 Bft) 100,00 %
09.09.2016 00:26 16,4 C 92 % 1013,4 hPa 0,0 l/m 1,9 km/h (1 Bft) S-SW 194 0 min 0,000 mm 0,0 UV-I 0 W/m 15,1 C 16,4 C 3,2 km/h (1 Bft) 100,00 %
09.09.2016 00:28 16,3 C 92 % 1013,5 hPa 0,0 l/m 1,9 km/h (1 Bft) S-SW 194 0 min 0,000 mm 0,0 UV-I 0 W/m 15,0 C 16,3 C 3,2 km/h (1 Bft) 100,00 %
09.09.2016 00:30 16,3 C 92 % 1013,5 hPa 0,0 l/m 1,9 km/h (1 Bft) S-SW 194 0 min 0,000 mm 0,0 UV-I 0 W/m 15,0 C 16,3 C 3,2 km/h (1 Bft) 98,00 %
09.09.2016 00:32 16,2 C 92 % 1013,6 hPa 0,0 l/m 1,9 km/h (1 Bft) S-SW 194 0 min 0,000 mm 0,0 UV-I 0 W/m 14,9 C 16,2 C 3,2 km/h (1 Bft) 100,00 %
09.09.2016 00:34 16,2 C 92 % 1013,6 hPa 0,0 l/m 3,0 km/h (1 Bft) S-SW 194 0 min 0,000 mm 0,0 UV-I 0 W/m 14,9 C 16,2 C 4,8 km/h (1 Bft) 100,00 %
09.09.2016 00:36 16,1 C 93 % 1013,6 hPa 0,0 l/m 2,1 km/h (1 Bft) S-SW 194 0 min 0,000 mm 0,0 UV-I 0 W/m 15,0 C 16,1 C 3,2 km/h (1 Bft) 100,00 %
09.09.2016 00:38 16,2 C 93 % 1013,6 hPa 0,0 l/m 1,9 km/h (1 Bft) S-SW 194 0 min 0,000 mm 0,0 UV-I 0 W/m 15,1 C 16,2 C 3,2 km/h (1 Bft) 100,00 %
09.09.2016 00:40 16,1 C 92 % 1013,6 hPa 0,0 l/m 0,9 km/h (0 Bft) S-SW 194 0 min 0,000 mm 0,0 UV-I 0 W/m 14,8 C 16,1 C 1,6 km/h (1 Bft) 100,00 %
09.09.2016 00:42 16,0 C 92 % 1013,6 hPa 0,0 l/m 1,1 km/h (1 Bft) S-SW 194 0 min 0,000 mm 0,0 UV-I 0 W/m 14,7 C 16,0 C 1,6 km/h (1 Bft) 100,00 %
09.09.2016 00:44 16,1 C 93 % 1013,6 hPa 0,0 l/m 2,2 km/h (1 Bft) S-SW 194 0 min 0,000 mm 0,0 UV-I 0 W/m 15,0 C 16,1 C 3,2 km/h (1 Bft) 100,00 %
09.09.2016 00:46 16,1 C 93 % 1013,6 hPa 0,0 l/m 2,5 km/h (1 Bft) S-SW 194 0 min 0,000 mm 0,0 UV-I 0 W/m 15,0 C 16,1 C 4,8 km/h (1 Bft) 100,00 %
09.09.2016 00:48 16,2 C 93 % 1013,6 hPa 0,0 l/m 2,2 km/h (1 Bft) S-SW 194 0 min 0,000 mm 0,0 UV-I 0 W/m 15,1 C 16,2 C 4,8 km/h (1 Bft) 97,14 %
09.09.2016 00:50 16,3 C 93 % 1013,6 hPa 0,0 l/m 1,1 km/h (1 Bft) S-SW 194 0 min 0,000 mm 0,0 UV-I 0 W/m 15,2 C 16,3 C 1,6 km/h (1 Bft) 97,87 %
09.09.2016 00:52 16,3 C 92 % 1013,7 hPa 0,0 l/m 1,7 km/h (1 Bft) S-SW 194 0 min 0,000 mm 0,0 UV-I 0 W/m 15,0 C 16,3 C 3,2 km/h (1 Bft) 97,87 %
09.09.2016 00:54 16,3 C 92 % 1013,7 hPa 0,0 l/m 2,2 km/h (1 Bft) S-SW 194 0 min 0,000 mm 0,0 UV-I 0 W/m 15,0 C 16,3 C 3,2 km/h (1 Bft) 100,00 %
09.09.2016 00:56 16,2 C 92 % 1013,7 hPa 0,0 l/m 2,1 km/h (1 Bft) S-SW 194 0 min 0,000 mm 0,0 UV-I 0 W/m 14,9 C 16,2 C 3,2 km/h (1 Bft) 100,00 %
09.09.2016 00:58 16,1 C 92 % 1013,7 hPa 0,0 l/m 1,0 km/h (0 Bft) S-SW 194 0 min 0,000 mm 0,0 UV-I 0 W/m 14,8 C 16,1 C 1,6 km/h (1 Bft) 97,87 %
09.09.2016 01:00 16,1 C 92 % 1013,7 hPa 0,0 l/m 0,7 km/h (0 Bft) S-SW 194 0 min 0,000 mm 0,0 UV-I 0 W/m 14,8 C 16,1 C 3,2 km/h (1 Bft) 97,87 %
09.09.2016 01:02 16,0 C 92 % 1013,7 hPa 0,0 l/m 0,4 km/h (0 Bft) S-SW 194 0 min 0,000 mm 0,0 UV-I 0 W/m 14,7 C 16,0 C 1,6 km/h (1 Bft) 97,87 %
09.09.2016 01:04 15,9 C 92 % 1013,7 hPa 0,0 l/m 0,0 km/h (0 Bft) S-SW 194 0 min 0,000 mm 0,0 UV-I 0 W/m 14,6 C 15,9 C 0,0 km/h (0 Bft) 100,00 %
09.09.2016 01:06 15,9 C 92 % 1013,7 hPa 0,0 l/m 0,0 km/h (0 Bft) S-SW 194 0 min 0,000 mm 0,0 UV-I 0 W/m 14,6 C 15,9 C 0,0 km/h (0 Bft) 97,87 %
09.09.2016 01:08 15,9 C 92 % 1013,7 hPa 0,0 l/m 0,0 km/h (0 Bft) S-SW 194 0 min 0,000 mm 0,0 UV-I 0 W/m 14,6 C 15,9 C 0,0 km/h (0 Bft) 97,87 %
09.09.2016 01:10 15,9 C 92 % 1013,7 hPa 0,0 l/m 0,0 km/h (0 Bft) S-SW 194 0 min 0,000 mm 0,0 UV-I 0 W/m 14,6 C 15,9 C 0,0 km/h (0 Bft) 100,00 %
09.09.2016 01:12 15,8 C 93 % 1013,7 hPa 0,0 l/m 0,0 km/h (0 Bft) S-SW 194 0 min 0,000 mm 0,0 UV-I 0 W/m 14,7 C 15,8 C 0,0 km/h (0 Bft) 100,00 %
09.09.2016 01:14 15,8 C 93 % 1013,7 hPa 0,0 l/m 0,3 km/h (0 Bft) S-SW 194 0 min 0,000 mm 0,0 UV-I 0 W/m 14,7 C 15,8 C 1,6 km/h (1 Bft) 100,00 %
09.09.2016 01:16 15,9 C 93 % 1013,7 hPa 0,0 l/m 0,9 km/h (0 Bft) S-SW 194 0 min 0,000 mm 0,0 UV-I 0 W/m 14,8 C 15,9 C 1,6 km/h (1 Bft) 97,87 %
09.09.2016 01:18 15,9 C 93 % 1013,7 hPa 0,0 l/m 1,7 km/h (1 Bft) S-SW 194 0 min 0,000 mm 0,0 UV-I 0 W/m 14,8 C 15,9 C 3,2 km/h (1 Bft) 97,87 %
09.09.2016 01:20 15,9 C 92 % 1013,6 hPa 0,0 l/m 2,4 km/h (1 Bft) S-SW 194 0 min 0,000 mm 0,0 UV-I 0 W/m 14,6 C 15,9 C 3,2 km/h (1 Bft) 94,00 %
09.09.2016 01:22 15,9 C 92 % 1013,6 hPa 0,0 l/m 2,6 km/h (1 Bft) S-SW 194 0 min 0,000 mm 0,0 UV-I 0 W/m 14,6 C 15,9 C 4,8 km/h (1 Bft) 93,62 %
09.09.2016 01:24 15,9 C 92 % 1013,6 hPa 0,0 l/m 1,9 km/h (1 Bft) S-SW 194 0 min 0,000 mm 0,0 UV-I 0 W/m 14,6 C 15,9 C 3,2 km/h (1 Bft) 97,87 %
09.09.2016 01:26 15,8 C 92 % 1013,6 hPa 0,0 l/m 2,0 km/h (1 Bft) S-SW 194 0 min 0,000 mm 0,0 UV-I 0 W/m 14,5 C 15,8 C 3,2 km/h (1 Bft) 97,87 %
09.09.2016 01:28 15,9 C 93 % 1013,6 hPa 0,0 l/m 1,7 km/h (1 Bft) S-SW 194 0 min 0,000 mm 0,0 UV-I 0 W/m 14,8 C 15,9 C 3,2 km/h (1 Bft) 97,87 %
09.09.2016 01:30 15,9 C 93 % 1013,6 hPa 0,0 l/m 1,3 km/h (1 Bft) S-SW 194 0 min 0,000 mm 0,0 UV-I 0 W/m 14,8 C 15,9 C 3,2 km/h (1 Bft) 97,87 %
09.09.2016 01:32 16,1 C 93 % 1013,6 hPa 0,0 l/m 0,5 km/h (0 Bft) S-SW 194 0 min 0,000 mm 0,0 UV-I 0 W/m 15,0 C 16,1 C 1,6 km/h (1 Bft) 97,92 %
09.09.2016 01:34 16,1 C 92 % 1013,6 hPa 0,0 l/m 0,2 km/h (0 Bft) S-SW 194 0 min 0,000 mm 0,0 UV-I 0 W/m 14,8 C 16,1 C 1,6 km/h (1 Bft) 97,87 %
09.09.2016 01:36 16,1 C 92 % 1013,6 hPa 0,0 l/m 0,5 km/h (0 Bft) S-SW 194 0 min 0,000 mm 0,0 UV-I 0 W/m 14,8 C 16,1 C 1,6 km/h (1 Bft) 95,74 %
09.09.2016 01:38 16,0 C 92 % 1013,6 hPa 0,0 l/m 0,9 km/h (0 Bft) S-SW 194 0 min 0,000 mm 0,0 UV-I 0 W/m 14,7 C 16,0 C 1,6 km/h (1 Bft) 97,87 %
09.09.2016 01:40 16,0 C 92 % 1013,6 hPa 0,0 l/m 2,1 km/h (1 Bft) S-SW 192 0 min 0,000 mm 0,0 UV-I 0 W/m 14,7 C 16,0 C 4,8 km/h (1 Bft) 97,92 %
09.09.2016 01:42 15,9 C 92 % 1013,6 hPa 0,0 l/m 2,0 km/h (1 Bft) S 188 0 min 0,000 mm 0,0 UV-I 0 W/m 14,6 C 15,9 C 3,2 km/h (1 Bft) 97,92 %
09.09.2016 01:44 16,0 C 92 % 1013,6 hPa 0,0 l/m 0,5 km/h (0 Bft) S 188 0 min 0,000 mm 0,0 UV-I 0 W/m 14,7 C 16,0 C 1,6 km/h (1 Bft) 97,87 %
09.09.2016 01:46 16,1 C 93 % 1013,7 hPa 0,0 l/m 1,8 km/h (1 Bft) S 190 0 min 0,000 mm 0,0 UV-I 0 W/m 15,0 C 16,1 C 4,8 km/h (1 Bft) 97,87 %
09.09.2016 01:48 16,0 C 91 % 1013,7 hPa 0,0 l/m 3,4 km/h (1 Bft) S-SW 208 0 min 0,000 mm 0,0 UV-I 0 W/m 14,5 C 16,0 C 4,8 km/h (1 Bft) 94,29 %
09.09.2016 01:50 15,8 C 91 % 1013,7 hPa 0,0 l/m 0,9 km/h (0 Bft) S-SW 208 0 min 0,000 mm 0,0 UV-I 0 W/m 14,3 C 15,8 C 3,2 km/h (1 Bft) 95,74 %
09.09.2016 01:52 15,7 C 92 % 1013,7 hPa 0,0 l/m 1,3 km/h (1 Bft) S-SW 208 0 min 0,000 mm 0,0 UV-I 0 W/m 14,4 C 15,7 C 3,2 km/h (1 Bft) 98,31 %
09.09.2016 01:54 15,5 C 92 % 1013,7 hPa 0,0 l/m 2,1 km/h (1 Bft) S-SW 208 0 min 0,000 mm 0,0 UV-I 0 W/m 14,2 C 15,5 C 3,2 km/h (1 Bft) 100,00 %
09.09.2016 01:56 15,4 C 93 % 1013,7 hPa 0,0 l/m 1,0 km/h (0 Bft) S-SW 208 0 min 0,000 mm 0,0 UV-I 0 W/m 14,3 C 15,4 C 3,2 km/h (1 Bft) 100,00 %
09.09.2016 01:58 15,3 C 93 % 1013,7 hPa 0,0 l/m 1,7 km/h (1 Bft) S-SW 208 0 min 0,000 mm 0,0 UV-I 0 W/m 14,2 C 15,3 C 3,2 km/h (1 Bft) 97,87 %
09.09.2016 02:00 15,3 C 93 % 1013,7 hPa 0,0 l/m 1,6 km/h (1 Bft) S-SW 208 0 min 0,000 mm 0,0 UV-I 0 W/m 14,2 C 15,3 C 3,2 km/h (1 Bft) 97,87 %
09.09.2016 02:02 15,2 C 93 % 1013,7 hPa 0,0 l/m 1,3 km/h (1 Bft) S-SW 208 0 min 0,000 mm 0,0 UV-I 0 W/m 14,1 C 15,2 C 3,2 km/h (1 Bft) 95,74 %
09.09.2016 02:04 15,1 C 93 % 1013,7 hPa 0,0 l/m 1,6 km/h (1 Bft) S-SW 208 0 min 0,000 mm 0,0 UV-I 0 W/m 14,0 C 15,1 C 3,2 km/h (1 Bft) 97,87 %
09.09.2016 02:06 15,1 C 93 % 1013,6 hPa 0,0 l/m 2,1 km/h (1 Bft) S-SW 208 0 min 0,000 mm 0,0 UV-I 0 W/m 14,0 C 15,1 C 4,8 km/h (1 Bft) 100,00 %
09.09.2016 02:08 15,0 C 93 % 1013,6 hPa 0,0 l/m 1,1 km/h (1 Bft) S-SW 208 0 min 0,000 mm 0,0 UV-I 0 W/m 13,9 C 15,0 C 3,2 km/h (1 Bft) 100,00 %
09.09.2016 02:10 15,0 C 94 % 1013,7 hPa 0,0 l/m 1,8 km/h (1 Bft) S-SW 208 0 min 0,000 mm 0,0 UV-I 0 W/m 14,0 C 15,0 C 4,8 km/h (1 Bft) 100,00 %
09.09.2016 02:12 15,1 C 94 % 1013,7 hPa 0,0 l/m 2,9 km/h (1 Bft) S-SW 208 0 min 0,000 mm 0,0 UV-I 0 W/m 14,1 C 15,1 C 4,8 km/h (1 Bft) 100,00 %
09.09.2016 02:14 15,1 C 94 % 1013,7 hPa 0,0 l/m 1,8 km/h (1 Bft) S-SW 208 0 min 0,000 mm 0,0 UV-I 0 W/m 14,1 C 15,1 C 3,2 km/h (1 Bft) 100,00 %
09.09.2016 02:16 15,2 C 94 % 1013,7 hPa 0,0 l/m 0,9 km/h (0 Bft) S-SW 208 0 min 0,000 mm 0,0 UV-I 0 W/m 14,2 C 15,2 C 1,6 km/h (1 Bft) 97,87 %
09.09.2016 02:18 15,3 C 94 % 1013,7 hPa 0,0 l/m 0,3 km/h (0 Bft) S-SW 208 0 min 0,000 mm 0,0 UV-I 0 W/m 14,3 C 15,3 C 1,6 km/h (1 Bft) 100,00 %
09.09.2016 02:20 15,3 C 94 % 1013,7 hPa 0,0 l/m 0,0 km/h (0 Bft) S-SW 208 0 min 0,000 mm 0,0 UV-I 0 W/m 14,3 C 15,3 C 0,0 km/h (0 Bft) 100,00 %
09.09.2016 02:22 15,3 C 94 % 1013,7 hPa 0,0 l/m 0,0 km/h (0 Bft) S-SW 208 0 min 0,000 mm 0,0 UV-I 0 W/m 14,3 C 15,3 C 0,0 km/h (0 Bft) 97,87 %
09.09.2016 02:24 15,3 C 94 % 1013,8 hPa 0,0 l/m 0,0 km/h (0 Bft) S-SW 208 0 min 0,000 mm 0,0 UV-I 0 W/m 14,3 C 15,3 C 1,6 km/h (1 Bft) 97,87 %
09.09.2016 02:26 15,4 C 94 % 1013,8 hPa 0,0 l/m 0,8 km/h (0 Bft) S-SW 208 0 min 0,000 mm 0,0 UV-I 0 W/m 14,4 C 15,4 C 1,6 km/h (1 Bft) 100,00 %
09.09.2016 02:28 15,4 C 94 % 1013,7 hPa 0,0 l/m 1,2 km/h (1 Bft) S-SW 208 0 min 0,000 mm 0,0 UV-I 0 W/m 14,4 C 15,4 C 3,2 km/h (1 Bft) 97,87 %
09.09.2016 02:30 15,5 C 94 % 1013,7 hPa 0,0 l/m 0,9 km/h (0 Bft) S-SW 208 0 min 0,000 mm 0,0 UV-I 0 W/m 14,5 C 15,5 C 1,6 km/h (1 Bft) 95,74 %
09.09.2016 02:32 15,4 C 93 % 1013,7 hPa 0,0 l/m 0,6 km/h (0 Bft) S-SW 208 0 min 0,000 mm 0,0 UV-I 0 W/m 14,3 C 15,4 C 1,6 km/h (1 Bft) 100,00 %
09.09.2016 02:34 15,3 C 93 % 1013,7 hPa 0,0 l/m 0,3 km/h (0 Bft) S-SW 208 0 min 0,000 mm 0,0 UV-I 0 W/m 14,2 C 15,3 C 1,6 km/h (1 Bft) 97,87 %
09.09.2016 02:36 15,3 C 93 % 1013,7 hPa 0,0 l/m 0,1 km/h (0 Bft) S-SW 208 0 min 0,000 mm 0,0 UV-I 0 W/m 14,2 C 15,3 C 1,6 km/h (1 Bft) 100,00 %
09.09.2016 02:38 15,3 C 93 % 1013,7 hPa 0,0 l/m 0,3 km/h (0 Bft) S-SW 208 0 min 0,000 mm 0,0 UV-I 0 W/m 14,2 C 15,3 C 1,6 km/h (1 Bft) 100,00 %
09.09.2016 02:40 15,3 C 93 % 1013,7 hPa 0,0 l/m 1,2 km/h (1 Bft) S-SW 208 0 min 0,000 mm 0,0 UV-I 0 W/m 14,2 C 15,3 C 3,2 km/h (1 Bft) 98,04 %
09.09.2016 02:42 15,3 C 94 % 1013,7 hPa 0,0 l/m 1,6 km/h (1 Bft) S-SW 208 0 min 0,000 mm 0,0 UV-I 0 W/m 14,3 C 15,3 C 3,2 km/h (1 Bft) 97,87 %
09.09.2016 02:44 15,3 C 93 % 1013,7 hPa 0,0 l/m 0,7 km/h (0 Bft) S-SW 208 0 min 0,000 mm 0,0 UV-I 0 W/m 14,2 C 15,3 C 3,2 km/h (1 Bft) 100,00 %
09.09.2016 02:46 15,3 C 93 % 1013,7 hPa 0,0 l/m 0,2 km/h (0 Bft) S-SW 208 0 min 0,000 mm 0,0 UV-I 0 W/m 14,2 C 15,3 C 1,6 km/h (1 Bft) 100,00 %
09.09.2016 02:48 15,3 C 93 % 1013,7 hPa 0,0 l/m 0,1 km/h (0 Bft) S-SW 208 0 min 0,000 mm 0,0 UV-I 0 W/m 14,2 C 15,3 C 1,6 km/h (1 Bft) 97,87 %
09.09.2016 02:50 15,4 C 93 % 1013,7 hPa 0,0 l/m 0,3 km/h (0 Bft) S-SW 208 0 min 0,000 mm 0,0 UV-I 0 W/m 14,3 C 15,4 C 1,6 km/h (1 Bft) 100,00 %
09.09.2016 02:52 15,4 C 93 % 1013,7 hPa 0,0 l/m 0,4 km/h (0 Bft) S-SW 208 0 min 0,000 mm 0,0 UV-I 0 W/m 14,3 C 15,4 C 1,6 km/h (1 Bft) 100,00 %
09.09.2016 02:54 15,4 C 93 % 1013,7 hPa 0,0 l/m 0,8 km/h (0 Bft) S-SW 208 0 min 0,000 mm 0,0 UV-I 0 W/m 14,3 C 15,4 C 1,6 km/h (1 Bft) 100,00 %
09.09.2016 02:56 15,4 C 93 % 1013,7 hPa 0,0 l/m 0,3 km/h (0 Bft) S-SW 208 0 min 0,000 mm 0,0 UV-I 0 W/m 14,3 C 15,4 C 1,6 km/h (1 Bft) 100,00 %
09.09.2016 02:58 15,3 C 93 % 1013,7 hPa 0,0 l/m 1,2 km/h (1 Bft) S-SW 208 0 min 0,000 mm 0,0 UV-I 0 W/m 14,2 C 15,3 C 3,2 km/h (1 Bft) 97,87 %
09.09.2016 03:00 15,3 C 93 % 1013,7 hPa 0,0 l/m 2,3 km/h (1 Bft) S-SW 208 0 min 0,000 mm 0,0 UV-I 0 W/m 14,2 C 15,3 C 3,2 km/h (1 Bft) 100,00 %
09.09.2016 03:02 15,3 C 93 % 1013,7 hPa 0,0 l/m 2,0 km/h (1 Bft) S-SW 208 0 min 0,000 mm 0,0 UV-I 0 W/m 14,2 C 15,3 C 4,8 km/h (1 Bft) 100,00 %
09.09.2016 03:04 15,2 C 93 % 1013,7 hPa 0,0 l/m 1,6 km/h (1 Bft) S-SW 208 0 min 0,000 mm 0,0 UV-I 0 W/m 14,1 C 15,2 C 3,2 km/h (1 Bft) 100,00 %
09.09.2016 03:06 15,2 C 93 % 1013,8 hPa 0,0 l/m 1,6 km/h (1 Bft) S-SW 208 0 min 0,000 mm 0,0 UV-I 0 W/m 14,1 C 15,2 C 3,2 km/h (1 Bft) 95,74 %
09.09.2016 03:08 15,2 C 93 % 1013,9 hPa 0,0 l/m 1,4 km/h (1 Bft) S-SW 208 0 min 0,000 mm 0,0 UV-I 0 W/m 14,1 C 15,2 C 3,2 km/h (1 Bft) 100,00 %
09.09.2016 03:10 15,2 C 93 % 1013,9 hPa 0,0 l/m 0,0 km/h (0 Bft) S-SW 208 0 min 0,000 mm 0,0 UV-I 0 W/m 14,1 C 15,2 C 0,0 km/h (0 Bft) 98,00 %
09.09.2016 03:12 15,1 C 93 % 1013,9 hPa 0,0 l/m 0,0 km/h (0 Bft) S-SW 208 0 min 0,000 mm 0,0 UV-I 0 W/m 14,0 C 15,1 C 1,6 km/h (1 Bft) 97,37 %
09.09.2016 03:14 15,0 C 93 % 1013,9 hPa 0,0 l/m 2,2 km/h (1 Bft) S-SW 208 0 min 0,000 mm 0,0 UV-I 0 W/m 13,9 C 15,0 C 3,2 km/h (1 Bft) 97,87 %
09.09.2016 03:16 14,9 C 93 % 1013,9 hPa 0,0 l/m 1,7 km/h (1 Bft) S-SW 208 0 min 0,000 mm 0,0 UV-I 0 W/m 13,8 C 14,9 C 3,2 km/h (1 Bft) 100,00 %
09.09.2016 03:18 14,8 C 93 % 1014,0 hPa 0,0 l/m 2,6 km/h (1 Bft) S-SW 208 0 min 0,000 mm 0,0 UV-I 0 W/m 13,7 C 14,8 C 3,2 km/h (1 Bft) 100,00 %
09.09.2016 03:20 14,7 C 94 % 1014,0 hPa 0,0 l/m 2,8 km/h (1 Bft) S-SW 208 0 min 0,000 mm 0,0 UV-I 0 W/m 13,7 C 14,7 C 3,2 km/h (1 Bft) 97,87 %
09.09.2016 03:22 14,7 C 94 % 1014,0 hPa 0,0 l/m 2,6 km/h (1 Bft) S-SW 208 0 min 0,000 mm 0,0 UV-I 0 W/m 13,7 C 14,7 C 3,2 km/h (1 Bft) 97,87 %
09.09.2016 03:24 14,6 C 94 % 1014,0 hPa 0,0 l/m 2,0 km/h (1 Bft) S-SW 208 0 min 0,000 mm 0,0 UV-I 0 W/m 13,6 C 14,6 C 3,2 km/h (1 Bft) 95,74 %
09.09.2016 03:26 14,6 C 94 % 1014,0 hPa 0,0 l/m 1,9 km/h (1 Bft) S-SW 208 0 min 0,000 mm 0,0 UV-I 0 W/m 13,6 C 14,6 C 3,2 km/h (1 Bft) 97,87 %
09.09.2016 03:28 14,7 C 95 % 1013,9 hPa 0,0 l/m 2,4 km/h (1 Bft) S-SW 208 0 min 0,000 mm 0,0 UV-I 0 W/m 13,9 C 14,7 C 4,8 km/h (1 Bft) 97,87 %
09.09.2016 03:30 14,7 C 95 % 1014,0 hPa 0,0 l/m 2,8 km/h (1 Bft) S-SW 208 0 min 0,000 mm 0,0 UV-I 0 W/m 13,9 C 14,7 C 4,8 km/h (1 Bft) 97,92 %
09.09.2016 03:32 14,7 C 94 % 1014,0 hPa 0,0 l/m 2,4 km/h (1 Bft) S-SW 207 0 min 0,000 mm 0,0 UV-I 0 W/m 13,7 C 14,7 C 4,8 km/h (1 Bft) 97,87 %
09.09.2016 03:34 14,7 C 94 % 1014,0 hPa 0,0 l/m 3,1 km/h (1 Bft) S-SW 206 0 min 0,000 mm 0,0 UV-I 0 W/m 13,7 C 14,7 C 4,8 km/h (1 Bft) 95,74 %
09.09.2016 03:36 14,8 C 94 % 1013,9 hPa 0,0 l/m 3,9 km/h (1 Bft) S-SW 202 0 min 0,000 mm 0,0 UV-I 0 W/m 13,8 C 14,8 C 4,8 km/h (1 Bft) 97,87 %
09.09.2016 03:38 14,9 C 94 % 1014,0 hPa 0,0 l/m 3,8 km/h (1 Bft) S-SW 202 0 min 0,000 mm 0,0 UV-I 0 W/m 13,9 C 14,9 C 4,8 km/h (1 Bft) 97,87 %
09.09.2016 03:40 15,1 C 94 % 1013,9 hPa 0,0 l/m 3,9 km/h (1 Bft) S-SW 202 0 min 0,000 mm 0,0 UV-I 0 W/m 14,1 C 15,1 C 4,8 km/h (1 Bft) 96,00 %
09.09.2016 03:42 15,1 C 93 % 1013,9 hPa 0,0 l/m 2,9 km/h (1 Bft) S-SW 202 0 min 0,000 mm 0,0 UV-I 0 W/m 14,0 C 15,1 C 4,8 km/h (1 Bft) 95,74 %
09.09.2016 03:44 15,1 C 93 % 1014,0 hPa 0,0 l/m 2,9 km/h (1 Bft) S-SW 202 0 min 0,000 mm 0,0 UV-I 0 W/m 14,0 C 15,1 C 3,2 km/h (1 Bft) 97,87 %
09.09.2016 03:46 14,9 C 93 % 1014,0 hPa 0,0 l/m 3,4 km/h (1 Bft) S-SW 202 0 min 0,000 mm 0,0 UV-I 0 W/m 13,8 C 14,9 C 4,8 km/h (1 Bft) 97,87 %
09.09.2016 03:48 14,8 C 93 % 1014,0 hPa 0,0 l/m 3,8 km/h (1 Bft) S-SW 202 0 min 0,000 mm 0,0 UV-I 0 W/m 13,7 C 14,8 C 4,8 km/h (1 Bft) 93,62 %
09.09.2016 03:50 14,7 C 93 % 1014,0 hPa 0,0 l/m 3,1 km/h (1 Bft) S-SW 202 0 min 0,000 mm 0,0 UV-I 0 W/m 13,6 C 14,7 C 4,8 km/h (1 Bft) 97,87 %
09.09.2016 03:52 14,7 C 94 % 1014,0 hPa 0,0 l/m 3,1 km/h (1 Bft) S-SW 202 0 min 0,000 mm 0,0 UV-I 0 W/m 13,7 C 14,7 C 4,8 km/h (1 Bft) 97,87 %
09.09.2016 03:54 14,7 C 94 % 1014,0 hPa 0,0 l/m 3,3 km/h (1 Bft) S-SW 202 0 min 0,000 mm 0,0 UV-I 0 W/m 13,7 C 14,7 C 4,8 km/h (1 Bft) 100,00 %
09.09.2016 03:56 14,7 C 94 % 1014,0 hPa 0,0 l/m 3,5 km/h (1 Bft) S-SW 202 0 min 0,000 mm 0,0 UV-I 0 W/m 13,7 C 14,7 C 4,8 km/h (1 Bft) 100,00 %
09.09.2016 03:58 14,7 C 94 % 1014,0 hPa 0,0 l/m 3,3 km/h (1 Bft) S-SW 202 0 min 0,000 mm 0,0 UV-I 0 W/m 13,7 C 14,7 C 4,8 km/h (1 Bft) 97,37 %
09.09.2016 04:00 14,7 C 94 % 1014,0 hPa 0,0 l/m 3,0 km/h (1 Bft) S-SW 202 0 min 0,000 mm 0,0 UV-I 0 W/m 13,7 C 14,7 C 4,8 km/h (1 Bft) 97,87 %
09.09.2016 04:02 14,7 C 94 % 1014,0 hPa 0,0 l/m 2,4 km/h (1 Bft) S-SW 202 0 min 0,000 mm 0,0 UV-I 0 W/m 13,7 C 14,7 C 3,2 km/h (1 Bft) 96,67 %
09.09.2016 04:04 14,7 C 94 % 1014,0 hPa 0,0 l/m 2,6 km/h (1 Bft) S-SW 202 0 min 0,000 mm 0,0 UV-I 0 W/m 13,7 C 14,7 C 3,2 km/h (1 Bft) 97,87 %
09.09.2016 04:06 14,8 C 94 % 1014,0 hPa 0,0 l/m 2,3 km/h (1 Bft) S-SW 202 0 min 0,000 mm 0,0 UV-I 0 W/m 13,8 C 14,8 C 4,8 km/h (1 Bft) 100,00 %
09.09.2016 04:08 14,8 C 94 % 1014,0 hPa 0,0 l/m 2,9 km/h (1 Bft) S-SW 202 0 min 0,000 mm 0,0 UV-I 0 W/m 13,8 C 14,8 C 4,8 km/h (1 Bft) 100,00 %
09.09.2016 04:10 14,8 C 94 % 1014,0 hPa 0,0 l/m 3,3 km/h (1 Bft) S-SW 202 0 min 0,000 mm 0,0 UV-I 0 W/m 13,8 C 14,8 C 4,8 km/h (1 Bft) 100,00 %
09.09.2016 04:12 14,9 C 93 % 1014,0 hPa 0,0 l/m 2,7 km/h (1 Bft) S-SW 202 0 min 0,000 mm 0,0 UV-I 0 W/m 13,8 C 14,9 C 4,8 km/h (1 Bft) 100,00 %
09.09.2016 04:14 14,9 C 93 % 1014,0 hPa 0,0 l/m 2,9 km/h (1 Bft) S-SW 202 0 min 0,000 mm 0,0 UV-I 0 W/m 13,8 C 14,9 C 4,8 km/h (1 Bft) 97,44 %
09.09.2016 04:16 14,9 C 92 % 1014,0 hPa 0,0 l/m 2,7 km/h (1 Bft) S-SW 202 0 min 0,000 mm 0,0 UV-I 0 W/m 13,6 C 14,9 C 4,8 km/h (1 Bft) 100,00 %
09.09.2016 04:18 15,0 C 93 % 1014,0 hPa 0,0 l/m 1,9 km/h (1 Bft) S-SW 202 0 min 0,000 mm 0,0 UV-I 0 W/m 13,9 C 15,0 C 3,2 km/h (1 Bft) 100,00 %
09.09.2016 04:20 15,1 C 93 % 1014,0 hPa 0,0 l/m 3,0 km/h (1 Bft) S-SW 202 0 min 0,000 mm 0,0 UV-I 0 W/m 14,0 C 15,1 C 6,4 km/h (2 Bft) 100,00 %
09.09.2016 04:22 15,2 C 92 % 1014,0 hPa 0,0 l/m 4,1 km/h (1 Bft) S-SW 201 0 min 0,000 mm 0,0 UV-I 0 W/m 13,9 C 15,2 C 6,4 km/h (2 Bft) 100,00 %
09.09.2016 04:24 15,3 C 92 % 1014,1 hPa 0,0 l/m 3,5 km/h (1 Bft) S-SW 201 0 min 0,000 mm 0,0 UV-I 0 W/m 14,0 C 15,3 C 4,8 km/h (1 Bft) 100,00 %
09.09.2016 04:26 15,4 C 92 % 1014,1 hPa 0,0 l/m 2,3 km/h (1 Bft) S-SW 201 0 min 0,000 mm 0,0 UV-I 0 W/m 14,1 C 15,4 C 3,2 km/h (1 Bft) 100,00 %
09.09.2016 04:28 15,4 C 91 % 1014,1 hPa 0,0 l/m 2,6 km/h (1 Bft) S-SW 201 0 min 0,000 mm 0,0 UV-I 0 W/m 13,9 C 15,4 C 3,2 km/h (1 Bft) 95,74 %
09.09.2016 04:30 15,3 C 91 % 1014,1 hPa 0,0 l/m 2,4 km/h (1 Bft) S-SW 201 0 min 0,000 mm 0,0 UV-I 0 W/m 13,8 C 15,3 C 4,8 km/h (1 Bft) 100,00 %
09.09.2016 04:32 15,1 C 91 % 1014,1 hPa 0,0 l/m 1,9 km/h (1 Bft) S-SW 201 0 min 0,000 mm 0,0 UV-I 0 W/m 13,6 C 15,1 C 3,2 km/h (1 Bft) 97,87 %
09.09.2016 04:34 15,0 C 91 % 1014,1 hPa 0,0 l/m 1,6 km/h (1 Bft) S-SW 201 0 min 0,000 mm 0,0 UV-I 0 W/m 13,5 C 15,0 C 3,2 km/h (1 Bft) 100,00 %
09.09.2016 04:36 14,8 C 92 % 1014,2 hPa 0,0 l/m 1,5 km/h (1 Bft) S-SW 201 0 min 0,000 mm 0,0 UV-I 0 W/m 13,5 C 14,8 C 3,2 km/h (1 Bft) 100,00 %
09.09.2016 04:38 14,7 C 92 % 1014,1 hPa 0,0 l/m 2,6 km/h (1 Bft) S-SW 201 0 min 0,000 mm 0,0 UV-I 0 W/m 13,4 C 14,7 C 3,2 km/h (1 Bft) 97,87 %
09.09.2016 04:40 14,6 C 92 % 1014,2 hPa 0,0 l/m 2,5 km/h (1 Bft) S-SW 201 0 min 0,000 mm 0,0 UV-I 0 W/m 13,3 C 14,6 C 3,2 km/h (1 Bft) 100,00 %
09.09.2016 04:42 14,6 C 93 % 1014,2 hPa 0,0 l/m 2,0 km/h (1 Bft) S-SW 201 0 min 0,000 mm 0,0 UV-I 0 W/m 13,5 C 14,6 C 3,2 km/h (1 Bft) 97,87 %
09.09.2016 04:44 14,5 C 93 % 1014,2 hPa 0,0 l/m 2,4 km/h (1 Bft) S-SW 201 0 min 0,000 mm 0,0 UV-I 0 W/m 13,4 C 14,5 C 3,2 km/h (1 Bft) 100,00 %
09.09.2016 04:46 14,4 C 93 % 1014,2 hPa 0,0 l/m 2,8 km/h (1 Bft) S-SW 201 0 min 0,000 mm 0,0 UV-I 0 W/m 13,3 C 14,4 C 4,8 km/h (1 Bft) 95,74 %
09.09.2016 04:48 14,4 C 94 % 1014,2 hPa 0,0 l/m 2,6 km/h (1 Bft) S-SW 201 0 min 0,000 mm 0,0 UV-I 0 W/m 13,4 C 14,4 C 4,8 km/h (1 Bft) 100,00 %
09.09.2016 04:50 14,4 C 94 % 1014,2 hPa 0,0 l/m 2,4 km/h (1 Bft) S-SW 201 0 min 0,000 mm 0,0 UV-I 0 W/m 13,4 C 14,4 C 4,8 km/h (1 Bft) 98,00 %
09.09.2016 04:52 14,4 C 94 % 1014,2 hPa 0,0 l/m 2,1 km/h (1 Bft) S-SW 201 0 min 0,000 mm 0,0 UV-I 0 W/m 13,4 C 14,4 C 3,2 km/h (1 Bft) 97,92 %
09.09.2016 04:54 14,4 C 94 % 1014,2 hPa 0,0 l/m 2,5 km/h (1 Bft) S-SW 201 0 min 0,000 mm 0,0 UV-I 0 W/m 13,4 C 14,4 C 3,2 km/h (1 Bft) 98,00 %
09.09.2016 04:56 14,5 C 94 % 1014,2 hPa 0,0 l/m 3,4 km/h (1 Bft) S-SW 201 0 min 0,000 mm 0,0 UV-I 0 W/m 13,5 C 14,5 C 4,8 km/h (1 Bft) 100,00 %
09.09.2016 04:58 14,6 C 94 % 1014,2 hPa 0,0 l/m 3,2 km/h (1 Bft) S-SW 201 0 min 0,000 mm 0,0 UV-I 0 W/m 13,6 C 14,6 C 4,8 km/h (1 Bft) 97,87 %
09.09.2016 05:00 14,5 C 94 % 1014,2 hPa 0,0 l/m 3,3 km/h (1 Bft) S-SW 201 0 min 0,000 mm 0,0 UV-I 0 W/m 13,5 C 14,5 C 4,8 km/h (1 Bft) 95,74 %
09.09.2016 05:02 14,6 C 94 % 1014,2 hPa 0,0 l/m 2,7 km/h (1 Bft) S-SW 201 0 min 0,000 mm 0,0 UV-I 0 W/m 13,6 C 14,6 C 3,2 km/h (1 Bft) 100,00 %
09.09.2016 05:04 14,6 C 94 % 1014,2 hPa 0,0 l/m 2,9 km/h (1 Bft) S-SW 201 0 min 0,000 mm 0,0 UV-I 0 W/m 13,6 C 14,6 C 4,8 km/h (1 Bft) 97,87 %
09.09.2016 05:06 14,6 C 94 % 1014,2 hPa 0,0 l/m 3,2 km/h (1 Bft) S-SW 201 0 min 0,000 mm 0,0 UV-I 0 W/m 13,6 C 14,6 C 4,8 km/h (1 Bft) 97,87 %
09.09.2016 05:08 14,6 C 94 % 1014,2 hPa 0,0 l/m 3,1 km/h (1 Bft) S-SW 201 0 min 0,000 mm 0,0 UV-I 0 W/m 13,6 C 14,6 C 4,8 km/h (1 Bft) 97,87 %
09.09.2016 05:10 14,5 C 94 % 1014,2 hPa 0,0 l/m 2,9 km/h (1 Bft) S-SW 201 0 min 0,000 mm 0,0 UV-I 0 W/m 13,5 C 14,5 C 3,2 km/h (1 Bft) 97,87 %
09.09.2016 05:12 14,4 C 94 % 1014,3 hPa 0,0 l/m 3,2 km/h (1 Bft) S-SW 201 0 min 0,000 mm 0,0 UV-I 0 W/m 13,4 C 14,4 C 4,8 km/h (1 Bft) 100,00 %
09.09.2016 05:14 14,5 C 94 % 1014,3 hPa 0,0 l/m 2,4 km/h (1 Bft) S-SW 201 0 min 0,000 mm 0,0 UV-I 0 W/m 13,5 C 14,5 C 3,2 km/h (1 Bft) 100,00 %
09.09.2016 05:16 14,5 C 94 % 1014,3 hPa 0,0 l/m 2,4 km/h (1 Bft) S-SW 201 0 min 0,000 mm 0,0 UV-I 0 W/m 13,5 C 14,5 C 3,2 km/h (1 Bft) 100,00 %
09.09.2016 05:18 14,6 C 94 % 1014,3 hPa 0,0 l/m 1,5 km/h (1 Bft) S-SW 201 0 min 0,000 mm 0,0 UV-I 0 W/m 13,6 C 14,6 C 3,2 km/h (1 Bft) 100,00 %
09.09.2016 05:20 14,6 C 94 % 1014,3 hPa 0,0 l/m 1,4 km/h (1 Bft) S-SW 201 0 min 0,000 mm 0,0 UV-I 0 W/m 13,6 C 14,6 C 1,6 km/h (1 Bft) 95,74 %
09.09.2016 05:22 14,4 C 93 % 1014,4 hPa 0,0 l/m 1,6 km/h (1 Bft) S-SW 201 0 min 0,000 mm 0,0 UV-I 0 W/m 13,3 C 14,4 C 3,2 km/h (1 Bft) 100,00 %
09.09.2016 05:24 14,3 C 93 % 1014,3 hPa 0,0 l/m 2,7 km/h (1 Bft) S-SW 201 0 min 0,000 mm 0,0 UV-I 0 W/m 13,2 C 14,3 C 4,8 km/h (1 Bft) 97,37 %
09.09.2016 05:26 14,3 C 94 % 1014,3 hPa 0,0 l/m 2,7 km/h (1 Bft) S-SW 201 0 min 0,000 mm 0,0 UV-I 0 W/m 13,3 C 14,3 C 4,8 km/h (1 Bft) 97,92 %
09.09.2016 05:28 14,3 C 94 % 1014,3 hPa 0,0 l/m 1,8 km/h (1 Bft) S-SW 201 0 min 0,000 mm 0,0 UV-I 0 W/m 13,3 C 14,3 C 4,8 km/h (1 Bft) 95,74 %
09.09.2016 05:30 14,3 C 94 % 1014,4 hPa 0,0 l/m 0,3 km/h (0 Bft) S-SW 201 0 min 0,000 mm 0,0 UV-I 0 W/m 13,3 C 14,3 C 1,6 km/h (1 Bft) 94,44 %
09.09.2016 05:32 14,3 C 94 % 1014,4 hPa 0,0 l/m 0,7 km/h (0 Bft) S-SW 201 0 min 0,000 mm 0,0 UV-I 0 W/m 13,3 C 14,3 C 1,6 km/h (1 Bft) 98,44 %
09.09.2016 05:34 14,2 C 94 % 1014,4 hPa 0,0 l/m 1,7 km/h (1 Bft) S-SW 201 0 min 0,000 mm 0,0 UV-I 0 W/m 13,2 C 14,2 C 3,2 km/h (1 Bft) 97,92 %
09.09.2016 05:36 14,2 C 93 % 1014,4 hPa 0,0 l/m 1,5 km/h (1 Bft) S-SW 201 0 min 0,000 mm 0,0 UV-I 0 W/m 13,1 C 14,2 C 4,8 km/h (1 Bft) 97,22 %
09.09.2016 05:38 14,2 C 93 % 1014,4 hPa 0,0 l/m 1,2 km/h (1 Bft) S-SW 201 0 min 0,000 mm 0,0 UV-I 0 W/m 13,1 C 14,2 C 3,2 km/h (1 Bft) 95,92 %
09.09.2016 05:40 14,2 C 94 % 1014,4 hPa 0,0 l/m 0,5 km/h (0 Bft) S-SW 201 0 min 0,000 mm 0,0 UV-I 0 W/m 13,2 C 14,2 C 1,6 km/h (1 Bft) 95,74 %
09.09.2016 05:42 14,3 C 93 % 1014,4 hPa 0,0 l/m 0,4 km/h (0 Bft) S-SW 201 0 min 0,000 mm 0,0 UV-I 0 W/m 13,2 C 14,3 C 1,6 km/h (1 Bft) 95,74 %
09.09.2016 05:44 14,3 C 93 % 1014,4 hPa 0,0 l/m 0,6 km/h (0 Bft) S-SW 201 0 min 0,000 mm 0,0 UV-I 0 W/m 13,2 C 14,3 C 1,6 km/h (1 Bft) 98,00 %
09.09.2016 05:46 14,3 C 93 % 1014,5 hPa 0,0 l/m 0,2 km/h (0 Bft) S-SW 201 0 min 0,000 mm 0,0 UV-I 0 W/m 13,2 C 14,3 C 1,6 km/h (1 Bft) 96,00 %
09.09.2016 05:48 14,3 C 93 % 1014,4 hPa 0,0 l/m 0,0 km/h (0 Bft) S-SW 201 0 min 0,000 mm 0,0 UV-I 0 W/m 13,2 C 14,3 C 0,0 km/h (0 Bft) 97,37 %
09.09.2016 05:50 14,3 C 93 % 1014,5 hPa 0,0 l/m 0,1 km/h (0 Bft) S-SW 201 0 min 0,000 mm 0,0 UV-I 0 W/m 13,2 C 14,3 C 1,6 km/h (1 Bft) 97,87 %
09.09.2016 05:52 14,3 C 93 % 1014,5 hPa 0,0 l/m 0,0 km/h (0 Bft) S-SW 201 0 min 0,000 mm 0,0 UV-I 0 W/m 13,2 C 14,3 C 1,6 km/h (1 Bft) 97,87 %
09.09.2016 05:54 14,3 C 93 % 1014,4 hPa 0,0 l/m 0,2 km/h (0 Bft) S-SW 201 0 min 0,000 mm 0,0 UV-I 0 W/m 13,2 C 14,3 C 1,6 km/h (1 Bft) 97,87 %
09.09.2016 05:56 14,2 C 93 % 1014,5 hPa 0,0 l/m 0,3 km/h (0 Bft) S-SW 201 0 min 0,000 mm 0,0 UV-I 0 W/m 13,1 C 14,2 C 1,6 km/h (1 Bft) 97,92 %
09.09.2016 05:58 14,1 C 93 % 1014,5 hPa 0,0 l/m 0,1 km/h (0 Bft) S-SW 201 0 min 0,000 mm 0,0 UV-I 0 W/m 13,0 C 14,1 C 1,6 km/h (1 Bft) 97,87 %
09.09.2016 06:00 14,1 C 93 % 1014,5 hPa 0,0 l/m 0,2 km/h (0 Bft) S-SW 201 0 min 0,000 mm 0,0 UV-I 0 W/m 13,0 C 14,1 C 1,6 km/h (1 Bft) 100,00 %
09.09.2016 06:02 14,1 C 93 % 1014,6 hPa 0,0 l/m 1,4 km/h (1 Bft) S-SW 201 0 min 0,000 mm 0,0 UV-I 0 W/m 13,0 C 14,1 C 1,6 km/h (1 Bft) 100,00 %
09.09.2016 06:04 14,0 C 94 % 1014,6 hPa 0,0 l/m 1,4 km/h (1 Bft) S-SW 201 0 min 0,000 mm 0,0 UV-I 0 W/m 13,0 C 14,0 C 1,6 km/h (1 Bft) 97,87 %
09.09.2016 06:06 14,1 C 94 % 1014,6 hPa 0,0 l/m 2,0 km/h (1 Bft) S-SW 201 0 min 0,000 mm 0,0 UV-I 0 W/m 13,1 C 14,1 C 3,2 km/h (1 Bft) 100,00 %
09.09.2016 06:08 14,0 C 94 % 1014,6 hPa 0,0 l/m 1,5 km/h (1 Bft) S-SW 201 0 min 0,000 mm 0,0 UV-I 0 W/m 13,0 C 14,0 C 3,2 km/h (1 Bft) 100,00 %
09.09.2016 06:10 13,9 C 93 % 1014,6 hPa 0,0 l/m 1,1 km/h (1 Bft) S-SW 201 0 min 0,000 mm 0,0 UV-I 0 W/m 12,8 C 13,9 C 3,2 km/h (1 Bft) 97,87 %
09.09.2016 06:12 13,8 C 93 % 1014,7 hPa 0,0 l/m 1,2 km/h (1 Bft) S-SW 201 0 min 0,000 mm 0,0 UV-I 0 W/m 12,7 C 13,8 C 3,2 km/h (1 Bft) 100,00 %
09.09.2016 06:14 13,8 C 94 % 1014,7 hPa 0,0 l/m 0,4 km/h (0 Bft) S-SW 201 0 min 0,000 mm 0,0 UV-I 0 W/m 12,9 C 13,8 C 1,6 km/h (1 Bft) 97,87 %
09.09.2016 06:16 13,8 C 94 % 1014,7 hPa 0,0 l/m 0,8 km/h (0 Bft) S-SW 201 0 min 0,000 mm 0,0 UV-I 0 W/m 12,9 C 13,8 C 3,2 km/h (1 Bft) 96,00 %
09.09.2016 06:18 13,8 C 94 % 1014,8 hPa 0,0 l/m 0,9 km/h (0 Bft) S-SW 201 0 min 0,000 mm 0,0 UV-I 0 W/m 12,9 C 13,8 C 1,6 km/h (1 Bft) 100,00 %
09.09.2016 06:20 13,8 C 94 % 1014,7 hPa 0,0 l/m 0,1 km/h (0 Bft) S-SW 201 0 min 0,000 mm 0,0 UV-I 0 W/m 12,9 C 13,8 C 1,6 km/h (1 Bft) 100,00 %
09.09.2016 06:22 13,7 C 94 % 1014,8 hPa 0,0 l/m 0,9 km/h (0 Bft) S-SW 201 0 min 0,000 mm 0,0 UV-I 0 W/m 12,8 C 13,7 C 3,2 km/h (1 Bft) 100,00 %
09.09.2016 06:24 13,7 C 94 % 1014,9 hPa 0,0 l/m 1,8 km/h (1 Bft) S-SW 201 0 min 0,000 mm 0,0 UV-I 0 W/m 12,8 C 13,7 C 3,2 km/h (1 Bft) 97,87 %
09.09.2016 06:26 13,8 C 94 % 1014,9 hPa 0,0 l/m 0,5 km/h (0 Bft) S-SW 201 0 min 0,000 mm 0,0 UV-I 0 W/m 12,9 C 13,8 C 3,2 km/h (1 Bft) 95,74 %
09.09.2016 06:28 13,8 C 94 % 1014,9 hPa 0,0 l/m 0,2 km/h (0 Bft) S-SW 201 0 min 0,000 mm 0,0 UV-I 0 W/m 12,9 C 13,8 C 1,6 km/h (1 Bft) 100,00 %
09.09.2016 06:30 13,8 C 94 % 1014,9 hPa 0,0 l/m 0,3 km/h (0 Bft) S-SW 201 0 min 0,000 mm 0,0 UV-I 0 W/m 12,9 C 13,8 C 1,6 km/h (1 Bft) 100,00 %
09.09.2016 06:32 13,8 C 94 % 1014,9 hPa 0,0 l/m 0,5 km/h (0 Bft) S-SW 201 0 min 0,000 mm 0,0 UV-I 3 W/m 12,9 C 13,8 C 1,6 km/h (1 Bft) 97,87 %
09.09.2016 06:34 13,8 C 94 % 1014,9 hPa 0,0 l/m 0,1 km/h (0 Bft) S-SW 201 0 min 0,000 mm 0,0 UV-I 5 W/m 12,9 C 13,8 C 1,6 km/h (1 Bft) 97,87 %
09.09.2016 06:36 13,8 C 94 % 1014,9 hPa 0,0 l/m 0,0 km/h (0 Bft) S-SW 201 0 min 0,000 mm 0,0 UV-I 6 W/m 12,9 C 13,8 C 0,0 km/h (0 Bft) 100,00 %
09.09.2016 06:38 13,8 C 94 % 1014,9 hPa 0,0 l/m 0,2 km/h (0 Bft) S-SW 201 0 min 0,000 mm 0,0 UV-I 7 W/m 12,9 C 13,8 C 1,6 km/h (1 Bft) 97,87 %
09.09.2016 06:40 13,8 C 94 % 1014,9 hPa 0,0 l/m 2,7 km/h (1 Bft) S-SW 201 0 min 0,000 mm 0,0 UV-I 9 W/m 12,9 C 13,8 C 3,2 km/h (1 Bft) 95,74 %
09.09.2016 06:42 13,8 C 94 % 1014,9 hPa 0,0 l/m 2,2 km/h (1 Bft) S-SW 201 0 min 0,000 mm 0,0 UV-I 9 W/m 12,9 C 13,8 C 3,2 km/h (1 Bft) 100,00 %
09.09.2016 06:44 13,7 C 94 % 1014,9 hPa 0,0 l/m 0,5 km/h (0 Bft) S-SW 201 2 min 0,000 mm 0,0 UV-I 11 W/m 12,8 C 13,7 C 1,6 km/h (1 Bft) 97,87 %
09.09.2016 06:46 13,7 C 94 % 1014,9 hPa 0,0 l/m 0,0 km/h (0 Bft) S-SW 201 0 min 0,000 mm 0,0 UV-I 12 W/m 12,8 C 13,7 C 0,0 km/h (0 Bft) 97,87 %
09.09.2016 06:48 13,7 C 94 % 1014,9 hPa 0,0 l/m 0,0 km/h (0 Bft) S-SW 201 0 min 0,000 mm 0,0 UV-I 13 W/m 12,8 C 13,7 C 0,0 km/h (0 Bft) 100,00 %
09.09.2016 06:50 13,7 C 94 % 1015,0 hPa 0,0 l/m 0,0 km/h (0 Bft) S-SW 201 0 min 0,000 mm 0,0 UV-I 15 W/m 12,8 C 13,7 C 0,0 km/h (0 Bft) 100,00 %
09.09.2016 06:52 13,8 C 94 % 1015,0 hPa 0,0 l/m 0,0 km/h (0 Bft) S-SW 201 0 min 0,000 mm 0,0 UV-I 16 W/m 12,9 C 13,8 C 0,0 km/h (0 Bft) 97,87 %
09.09.2016 06:54 13,8 C 94 % 1015,0 hPa 0,0 l/m 0,0 km/h (0 Bft) S-SW 201 0 min 0,000 mm 0,0 UV-I 18 W/m 12,9 C 13,8 C 0,0 km/h (0 Bft) 97,87 %
09.09.2016 06:56 13,8 C 94 % 1015,0 hPa 0,0 l/m 0,0 km/h (0 Bft) S-SW 201 0 min 0,000 mm 0,0 UV-I 19 W/m 12,9 C 13,8 C 0,0 km/h (0 Bft) 97,87 %
09.09.2016 06:58 13,8 C 94 % 1015,1 hPa 0,0 l/m 0,0 km/h (0 Bft) S-SW 201 0 min 0,000 mm 0,0 UV-I 20 W/m 12,9 C 13,8 C 0,0 km/h (0 Bft) 100,00 %
09.09.2016 07:00 13,8 C 94 % 1015,1 hPa 0,0 l/m 1,2 km/h (1 Bft) S-SW 201 0 min 0,000 mm 0,0 UV-I 21 W/m 12,9 C 13,8 C 1,6 km/h (1 Bft) 95,74 %
09.09.2016 07:02 13,8 C 94 % 1015,1 hPa 0,0 l/m 0,6 km/h (0 Bft) S-SW 201 0 min 0,000 mm 0,0 UV-I 24 W/m 12,9 C 13,8 C 1,6 km/h (1 Bft) 95,74 %
09.09.2016 07:04 13,8 C 94 % 1015,1 hPa 0,0 l/m 0,9 km/h (0 Bft) S-SW 201 0 min 0,000 mm 0,0 UV-I 25 W/m 12,9 C 13,8 C 1,6 km/h (1 Bft) 98,00 %
09.09.2016 07:06 13,7 C 94 % 1015,1 hPa 0,0 l/m 1,0 km/h (0 Bft) S-SW 201 0 min 0,000 mm 0,0 UV-I 26 W/m 12,8 C 13,7 C 1,6 km/h (1 Bft) 97,87 %
09.09.2016 07:08 13,6 C 94 % 1015,2 hPa 0,0 l/m 0,4 km/h (0 Bft) S-SW 201 0 min 0,000 mm 0,0 UV-I 27 W/m 12,7 C 13,6 C 1,6 km/h (1 Bft) 100,00 %
09.09.2016 07:10 13,6 C 95 % 1015,2 hPa 0,0 l/m 0,0 km/h (0 Bft) S-SW 201 0 min 0,000 mm 0,0 UV-I 28 W/m 12,8 C 13,6 C 0,0 km/h (0 Bft) 97,87 %
09.09.2016 07:12 13,6 C 95 % 1015,1 hPa 0,0 l/m 0,0 km/h (0 Bft) S-SW 201 0 min 0,000 mm 0,0 UV-I 30 W/m 12,8 C 13,6 C 1,6 km/h (1 Bft) 97,87 %
09.09.2016 07:14 13,6 C 95 % 1015,2 hPa 0,0 l/m 0,0 km/h (0 Bft) S-SW 201 0 min 0,000 mm 0,0 UV-I 31 W/m 12,8 C 13,6 C 0,0 km/h (0 Bft) 100,00 %
09.09.2016 07:16 13,6 C 95 % 1015,2 hPa 0,0 l/m 0,0 km/h (0 Bft) S-SW 201 0 min 0,000 mm 0,0 UV-I 32 W/m 12,8 C 13,6 C 0,0 km/h (0 Bft) 97,87 %
09.09.2016 07:18 13,6 C 95 % 1015,2 hPa 0,0 l/m 0,0 km/h (0 Bft) S-SW 201 0 min 0,000 mm 0,0 UV-I 33 W/m 12,8 C 13,6 C 0,0 km/h (0 Bft) 97,87 %
09.09.2016 07:20 13,7 C 95 % 1015,2 hPa 0,0 l/m 0,0 km/h (0 Bft) S-SW 201 0 min 0,000 mm 0,0 UV-I 34 W/m 12,9 C 13,7 C 0,0 km/h (0 Bft) 100,00 %
09.09.2016 07:22 13,8 C 95 % 1015,2 hPa 0,0 l/m 1,1 km/h (1 Bft) S-SW 201 0 min 0,000 mm 0,0 UV-I 35 W/m 13,0 C 13,8 C 1,6 km/h (1 Bft) 97,87 %
09.09.2016 07:24 13,9 C 95 % 1015,2 hPa 0,0 l/m 0,4 km/h (0 Bft) S-SW 201 0 min 0,000 mm 0,0 UV-I 36 W/m 13,1 C 13,9 C 1,6 km/h (1 Bft) 100,00 %
09.09.2016 07:26 14,0 C 95 % 1015,2 hPa 0,0 l/m 0,0 km/h (0 Bft) S-SW 201 0 min 0,000 mm 0,0 UV-I 38 W/m 13,2 C 14,0 C 0,0 km/h (0 Bft) 97,87 %
09.09.2016 07:28 14,2 C 95 % 1015,2 hPa 0,0 l/m 0,0 km/h (0 Bft) S-SW 201 0 min 0,000 mm 0,0 UV-I 58 W/m 13,4 C 14,2 C 0,0 km/h (0 Bft) 95,74 %
09.09.2016 07:30 14,3 C 95 % 1015,2 hPa 0,0 l/m 0,0 km/h (0 Bft) S-SW 201 0 min 0,000 mm 0,0 UV-I 70 W/m 13,5 C 14,3 C 0,0 km/h (0 Bft) 95,74 %
09.09.2016 07:32 14,4 C 94 % 1015,2 hPa 0,0 l/m 0,0 km/h (0 Bft) S-SW 201 0 min 0,000 mm 0,0 UV-I 74 W/m 13,4 C 14,4 C 0,0 km/h (0 Bft) 95,74 %
09.09.2016 07:34 14,5 C 94 % 1015,2 hPa 0,0 l/m 0,9 km/h (0 Bft) S-SW 201 0 min 0,000 mm 0,0 UV-I 78 W/m 13,5 C 14,5 C 3,2 km/h (1 Bft) 98,00 %
09.09.2016 07:36 14,6 C 94 % 1015,2 hPa 0,0 l/m 0,6 km/h (0 Bft) S-SW 201 0 min 0,000 mm 0,0 UV-I 82 W/m 13,6 C 14,6 C 3,2 km/h (1 Bft) 97,87 %
09.09.2016 07:38 14,6 C 93 % 1015,2 hPa 0,0 l/m 0,8 km/h (0 Bft) S-SW 201 0 min 0,000 mm 0,0 UV-I 86 W/m 13,5 C 14,6 C 3,2 km/h (1 Bft) 97,87 %
09.09.2016 07:40 14,7 C 93 % 1015,3 hPa 0,0 l/m 0,0 km/h (0 Bft) S-SW 201 0 min 0,000 mm 0,0 UV-I 92 W/m 13,6 C 14,7 C 1,6 km/h (1 Bft) 96,00 %
09.09.2016 07:42 14,8 C 93 % 1015,2 hPa 0,0 l/m 0,2 km/h (0 Bft) S-SW 201 0 min 0,000 mm 0,0 UV-I 96 W/m 13,7 C 14,8 C 1,6 km/h (1 Bft) 97,87 %
09.09.2016 07:44 14,9 C 93 % 1015,3 hPa 0,0 l/m 0,8 km/h (0 Bft) S-SW 201 0 min 0,000 mm 0,0 UV-I 100 W/m 13,8 C 14,9 C 3,2 km/h (1 Bft) 97,87 %
09.09.2016 07:46 15,0 C 92 % 1015,3 hPa 0,0 l/m 1,4 km/h (1 Bft) S-SW 201 0 min 0,000 mm 0,0 UV-I 104 W/m 13,7 C 15,0 C 3,2 km/h (1 Bft) 93,62 %
09.09.2016 07:48 15,1 C 93 % 1015,3 hPa 0,0 l/m 0,1 km/h (0 Bft) S-SW 201 0 min 0,000 mm 0,0 UV-I 107 W/m 14,0 C 15,1 C 1,6 km/h (1 Bft) 97,87 %
09.09.2016 07:50 15,0 C 93 % 1015,3 hPa 0,0 l/m 0,0 km/h (0 Bft) S-SW 201 0 min 0,000 mm 0,0 UV-I 110 W/m 13,9 C 15,0 C 0,0 km/h (0 Bft) 97,87 %
09.09.2016 07:52 15,1 C 92 % 1015,3 hPa 0,0 l/m 0,0 km/h (0 Bft) S-SW 201 0 min 0,000 mm 0,0 UV-I 114 W/m 13,8 C 15,1 C 1,6 km/h (1 Bft) 97,87 %
09.09.2016 07:54 15,1 C 93 % 1015,4 hPa 0,0 l/m 0,0 km/h (0 Bft) S-SW 201 0 min 0,000 mm 0,0 UV-I 120 W/m 14,0 C 15,1 C 0,0 km/h (0 Bft) 95,74 %
09.09.2016 07:56 15,1 C 93 % 1015,4 hPa 0,0 l/m 0,1 km/h (0 Bft) S-SW 201 0 min 0,000 mm 0,0 UV-I 123 W/m 14,0 C 15,1 C 1,6 km/h (1 Bft) 97,87 %
09.09.2016 07:58 15,1 C 92 % 1015,4 hPa 0,0 l/m 0,0 km/h (0 Bft) S-SW 201 2 min 0,000 mm 0,0 UV-I 128 W/m 13,8 C 15,1 C 0,0 km/h (0 Bft) 95,74 %
09.09.2016 08:00 15,2 C 92 % 1015,3 hPa 0,0 l/m 0,1 km/h (0 Bft) S-SW 201 2 min 0,025 mm 0,0 UV-I 131 W/m 13,9 C 15,2 C 1,6 km/h (1 Bft) 97,87 %
09.09.2016 08:02 15,3 C 92 % 1015,3 hPa 0,0 l/m 0,3 km/h (0 Bft) S-SW 201 0 min 0,000 mm 0,0 UV-I 130 W/m 14,0 C 15,3 C 1,6 km/h (1 Bft) 95,74 %
09.09.2016 08:04 15,4 C 91 % 1015,4 hPa 0,0 l/m 0,0 km/h (0 Bft) S-SW 201 0 min 0,000 mm 0,0 UV-I 130 W/m 13,9 C 15,4 C 0,0 km/h (0 Bft) 100,00 %
09.09.2016 08:06 15,6 C 91 % 1015,4 hPa 0,0 l/m 0,0 km/h (0 Bft) S-SW 201 0 min 0,000 mm 0,0 UV-I 129 W/m 14,1 C 15,6 C 0,0 km/h (0 Bft) 100,00 %
09.09.2016 08:08 15,7 C 90 % 1015,4 hPa 0,0 l/m 0,0 km/h (0 Bft) S-SW 201 0 min 0,000 mm 0,0 UV-I 128 W/m 14,1 C 15,7 C 1,6 km/h (1 Bft) 100,00 %
09.09.2016 08:10 15,7 C 90 % 1015,4 hPa 0,0 l/m 0,6 km/h (0 Bft) S-SW 201 0 min 0,000 mm 0,0 UV-I 129 W/m 14,1 C 15,7 C 1,6 km/h (1 Bft) 100,00 %
09.09.2016 08:12 15,9 C 91 % 1015,4 hPa 0,0 l/m 1,1 km/h (1 Bft) S-SW 201 0 min 0,000 mm 0,0 UV-I 132 W/m 14,4 C 15,9 C 1,6 km/h (1 Bft) 97,92 %
09.09.2016 08:14 16,0 C 90 % 1015,4 hPa 0,0 l/m 0,7 km/h (0 Bft) S-SW 201 0 min 0,000 mm 0,0 UV-I 138 W/m 14,4 C 16,0 C 1,6 km/h (1 Bft) 100,00 %
09.09.2016 08:16 16,1 C 90 % 1015,4 hPa 0,0 l/m 0,7 km/h (0 Bft) S-SW 201 0 min 0,000 mm 0,0 UV-I 147 W/m 14,5 C 16,1 C 1,6 km/h (1 Bft) 97,92 %
09.09.2016 08:18 16,2 C 90 % 1015,4 hPa 0,0 l/m 0,7 km/h (0 Bft) S-SW 201 2 min 0,000 mm 0,3 UV-I 157 W/m 14,6 C 16,2 C 1,6 km/h (1 Bft) 97,87 %
09.09.2016 08:20 16,4 C 91 % 1015,4 hPa 0,0 l/m 1,4 km/h (1 Bft) S-SW 201 2 min 0,000 mm 0,5 UV-I 167 W/m 14,9 C 16,4 C 3,2 km/h (1 Bft) 97,87 %
09.09.2016 08:22 16,5 C 90 % 1015,3 hPa 0,0 l/m 1,4 km/h (1 Bft) S-SW 201 2 min 0,000 mm 0,5 UV-I 174 W/m 14,9 C 16,5 C 1,6 km/h (1 Bft) 97,87 %
09.09.2016 08:24 16,6 C 90 % 1015,4 hPa 0,0 l/m 1,7 km/h (1 Bft) S-SW 201 2 min 0,000 mm 0,5 UV-I 190 W/m 15,0 C 16,6 C 3,2 km/h (1 Bft) 100,00 %
09.09.2016 08:26 16,7 C 88 % 1015,4 hPa 0,0 l/m 0,9 km/h (0 Bft) S-SW 201 2 min 0,000 mm 0,5 UV-I 201 W/m 14,7 C 16,7 C 3,2 km/h (1 Bft) 100,00 %
09.09.2016 08:28 16,8 C 88 % 1015,4 hPa 0,0 l/m 0,3 km/h (0 Bft) S-SW 201 2 min 0,000 mm 0,6 UV-I 210 W/m 14,8 C 16,8 C 1,6 km/h (1 Bft) 97,87 %
09.09.2016 08:30 16,9 C 88 % 1015,4 hPa 0,0 l/m 1,2 km/h (1 Bft) S-SW 201 2 min 0,000 mm 0,6 UV-I 218 W/m 14,9 C 16,9 C 1,6 km/h (1 Bft) 100,00 %
09.09.2016 08:32 17,1 C 88 % 1015,4 hPa 0,0 l/m 0,8 km/h (0 Bft) S-SW 201 2 min 0,000 mm 0,6 UV-I 227 W/m 15,1 C 17,1 C 1,6 km/h (1 Bft) 100,00 %
09.09.2016 08:34 17,2 C 88 % 1015,4 hPa 0,0 l/m 1,0 km/h (0 Bft) S-SW 201 2 min 0,000 mm 0,6 UV-I 235 W/m 15,2 C 17,2 C 3,2 km/h (1 Bft) 100,00 %
09.09.2016 08:36 17,3 C 87 % 1015,5 hPa 0,0 l/m 0,2 km/h (0 Bft) S-SW 201 2 min 0,000 mm 0,7 UV-I 242 W/m 15,1 C 17,3 C 1,6 km/h (1 Bft) 100,00 %
09.09.2016 08:38 17,3 C 87 % 1015,5 hPa 0,0 l/m 0,6 km/h (0 Bft) S-SW 201 2 min 0,000 mm 0,7 UV-I 249 W/m 15,1 C 17,3 C 1,6 km/h (1 Bft) 97,87 %
09.09.2016 08:40 17,5 C 87 % 1015,5 hPa 0,0 l/m 1,8 km/h (1 Bft) S-SW 201 2 min 0,000 mm 0,7 UV-I 257 W/m 15,3 C 17,5 C 3,2 km/h (1 Bft) 100,00 %
09.09.2016 08:42 17,6 C 88 % 1015,5 hPa 0,0 l/m 1,0 km/h (0 Bft) S-SW 201 2 min 0,000 mm 0,7 UV-I 262 W/m 15,6 C 17,6 C 3,2 km/h (1 Bft) 100,00 %
09.09.2016 08:44 17,6 C 88 % 1015,6 hPa 0,0 l/m 1,6 km/h (1 Bft) S-SW 201 2 min 0,000 mm 0,8 UV-I 267 W/m 15,6 C 17,6 C 3,2 km/h (1 Bft) 100,00 %
09.09.2016 08:46 17,7 C 88 % 1015,6 hPa 0,0 l/m 1,0 km/h (0 Bft) S-SW 201 2 min 0,000 mm 0,8 UV-I 272 W/m 15,7 C 17,7 C 3,2 km/h (1 Bft) 100,00 %
09.09.2016 08:48 17,7 C 88 % 1015,6 hPa 0,0 l/m 0,6 km/h (0 Bft) S-SW 201 2 min 0,000 mm 0,8 UV-I 276 W/m 15,7 C 17,7 C 3,2 km/h (1 Bft) 100,00 %
09.09.2016 08:50 17,7 C 88 % 1015,6 hPa 0,0 l/m 1,1 km/h (1 Bft) S-SW 201 2 min 0,000 mm 0,8 UV-I 279 W/m 15,7 C 17,7 C 3,2 km/h (1 Bft) 97,87 %
09.09.2016 08:52 17,8 C 87 % 1015,7 hPa 0,0 l/m 2,1 km/h (1 Bft) S-SW 201 2 min 0,000 mm 0,9 UV-I 285 W/m 15,6 C 17,8 C 3,2 km/h (1 Bft) 97,92 %
09.09.2016 08:54 18,0 C 88 % 1015,7 hPa 0,0 l/m 1,9 km/h (1 Bft) S-SW 201 2 min 0,000 mm 0,9 UV-I 289 W/m 16,0 C 18,0 C 3,2 km/h (1 Bft) 100,00 %
09.09.2016 08:56 18,1 C 86 % 1015,7 hPa 0,0 l/m 1,2 km/h (1 Bft) S-SW 201 2 min 0,000 mm 0,9 UV-I 295 W/m 15,7 C 18,1 C 3,2 km/h (1 Bft) 100,00 %
09.09.2016 08:58 18,1 C 85 % 1015,7 hPa 0,0 l/m 0,9 km/h (0 Bft) S-SW 201 2 min 0,000 mm 1,0 UV-I 301 W/m 15,5 C 18,1 C 3,2 km/h (1 Bft) 95,74 %
09.09.2016 09:00 18,2 C 85 % 1015,7 hPa 0,0 l/m 1,1 km/h (1 Bft) S-SW 201 2 min 0,000 mm 1,0 UV-I 305 W/m 15,6 C 18,2 C 3,2 km/h (1 Bft) 100,00 %
09.09.2016 09:02 18,2 C 86 % 1015,8 hPa 0,0 l/m 2,3 km/h (1 Bft) S-SW 201 2 min 0,127 mm 1,0 UV-I 308 W/m 15,8 C 18,2 C 3,2 km/h (1 Bft) 100,00 %
09.09.2016 09:04 18,3 C 84 % 1015,7 hPa 0,0 l/m 1,1 km/h (1 Bft) S-SW 201 2 min 0,000 mm 1,1 UV-I 313 W/m 15,5 C 18,3 C 3,2 km/h (1 Bft) 97,87 %
09.09.2016 09:06 18,3 C 83 % 1015,7 hPa 0,0 l/m 0,1 km/h (0 Bft) S-SW 201 2 min 0,000 mm 1,1 UV-I 316 W/m 15,4 C 18,3 C 1,6 km/h (1 Bft) 100,00 %
09.09.2016 09:08 18,4 C 82 % 1015,7 hPa 0,0 l/m 0,3 km/h (0 Bft) S-SW 201 2 min 0,000 mm 1,1 UV-I 321 W/m 15,3 C 18,4 C 1,6 km/h (1 Bft) 94,29 %
09.09.2016 09:10 18,4 C 82 % 1015,7 hPa 0,0 l/m 0,1 km/h (0 Bft) S-SW 201 2 min 0,000 mm 1,1 UV-I 328 W/m 15,3 C 18,4 C 1,6 km/h (1 Bft) 97,87 %
09.09.2016 09:12 18,4 C 82 % 1015,8 hPa 0,0 l/m 0,7 km/h (0 Bft) S-SW 201 2 min 0,000 mm 1,2 UV-I 333 W/m 15,3 C 18,4 C 1,6 km/h (1 Bft) 100,00 %
09.09.2016 09:14 18,6 C 82 % 1015,8 hPa 0,0 l/m 0,8 km/h (0 Bft) S-SW 201 2 min 0,000 mm 1,2 UV-I 339 W/m 15,5 C 18,6 C 3,2 km/h (1 Bft) 97,87 %
09.09.2016 09:16 18,7 C 84 % 1015,7 hPa 0,0 l/m 0,0 km/h (0 Bft) S-SW 201 2 min 0,000 mm 1,2 UV-I 344 W/m 15,9 C 18,7 C 1,6 km/h (1 Bft) 100,00 %
09.09.2016 09:18 18,8 C 81 % 1015,8 hPa 0,0 l/m 0,4 km/h (0 Bft) S-SW 201 2 min 0,000 mm 1,3 UV-I 348 W/m 15,5 C 18,8 C 1,6 km/h (1 Bft) 100,00 %
09.09.2016 09:20 18,9 C 81 % 1015,8 hPa 0,0 l/m 0,2 km/h (0 Bft) S-SW 201 2 min 0,000 mm 1,3 UV-I 354 W/m 15,6 C 18,9 C 1,6 km/h (1 Bft) 95,74 %
09.09.2016 09:22 19,1 C 83 % 1015,8 hPa 0,0 l/m 0,3 km/h (0 Bft) S-SW 201 2 min 0,000 mm 1,3 UV-I 360 W/m 16,1 C 19,1 C 1,6 km/h (1 Bft) 100,00 %
09.09.2016 09:24 19,2 C 82 % 1015,9 hPa 0,0 l/m 0,6 km/h (0 Bft) S-SW 201 2 min 0,000 mm 1,4 UV-I 364 W/m 16,0 C 19,2 C 1,6 km/h (1 Bft) 97,87 %
09.09.2016 09:26 19,2 C 80 % 1015,9 hPa 0,0 l/m 0,8 km/h (0 Bft) S-SW 201 2 min 0,000 mm 1,4 UV-I 370 W/m 15,7 C 19,2 C 1,6 km/h (1 Bft) 100,00 %
09.09.2016 09:28 19,2 C 80 % 1015,9 hPa 0,0 l/m 0,0 km/h (0 Bft) S-SW 201 2 min 0,000 mm 1,4 UV-I 374 W/m 15,7 C 19,2 C 1,6 km/h (1 Bft) 100,00 %
09.09.2016 09:30 19,2 C 80 % 1015,9 hPa 0,0 l/m 0,1 km/h (0 Bft) S-SW 201 2 min 0,000 mm 1,5 UV-I 376 W/m 15,7 C 19,2 C 1,6 km/h (1 Bft) 97,87 %
09.09.2016 09:32 19,3 C 80 % 1015,9 hPa 0,0 l/m 0,3 km/h (0 Bft) S-SW 201 2 min 0,000 mm 1,5 UV-I 385 W/m 15,8 C 19,3 C 1,6 km/h (1 Bft) 97,87 %
09.09.2016 09:34 19,3 C 84 % 1016,0 hPa 0,0 l/m 2,0 km/h (1 Bft) S-SW 201 2 min 0,000 mm 1,5 UV-I 387 W/m 16,5 C 19,3 C 4,8 km/h (1 Bft) 97,87 %
09.09.2016 09:36 19,6 C 82 % 1015,9 hPa 0,0 l/m 2,6 km/h (1 Bft) S-SW 201 2 min 0,000 mm 1,6 UV-I 392 W/m 16,4 C 19,6 C 4,8 km/h (1 Bft) 97,87 %
09.09.2016 09:38 19,6 C 82 % 1015,9 hPa 0,0 l/m 1,7 km/h (1 Bft) S-SW 201 2 min 0,000 mm 1,6 UV-I 400 W/m 16,4 C 19,6 C 4,8 km/h (1 Bft) 95,74 %
09.09.2016 09:40 19,7 C 80 % 1015,9 hPa 0,0 l/m 2,0 km/h (1 Bft) S-SW 201 2 min 0,000 mm 1,6 UV-I 405 W/m 16,1 C 19,7 C 4,8 km/h (1 Bft) 97,92 %
09.09.2016 09:42 19,8 C 80 % 1015,9 hPa 0,0 l/m 1,8 km/h (1 Bft) S-SW 201 2 min 0,000 mm 1,7 UV-I 411 W/m 16,2 C 19,8 C 3,2 km/h (1 Bft) 97,87 %
09.09.2016 09:44 19,7 C 81 % 1015,9 hPa 0,0 l/m 2,7 km/h (1 Bft) S-SW 201 2 min 0,000 mm 1,7 UV-I 414 W/m 16,3 C 19,7 C 6,4 km/h (2 Bft) 95,74 %
09.09.2016 09:46 19,7 C 82 % 1015,9 hPa 0,0 l/m 2,7 km/h (1 Bft) S-SW 202 2 min 0,000 mm 1,8 UV-I 418 W/m 16,5 C 19,7 C 4,8 km/h (1 Bft) 97,87 %
09.09.2016 09:48 19,8 C 80 % 1015,9 hPa 0,0 l/m 1,0 km/h (0 Bft) S-SW 202 2 min 0,000 mm 1,8 UV-I 423 W/m 16,2 C 19,8 C 3,2 km/h (1 Bft) 97,87 %
09.09.2016 09:50 19,8 C 83 % 1015,9 hPa 0,0 l/m 2,2 km/h (1 Bft) S-SW 202 2 min 0,000 mm 1,8 UV-I 431 W/m 16,8 C 19,8 C 4,8 km/h (1 Bft) 98,04 %
09.09.2016 09:52 19,9 C 82 % 1016,0 hPa 0,0 l/m 2,8 km/h (1 Bft) S-SW 202 2 min 0,000 mm 1,9 UV-I 435 W/m 16,7 C 19,9 C 4,8 km/h (1 Bft) 97,87 %
09.09.2016 09:54 20,0 C 82 % 1016,0 hPa 0,0 l/m 1,0 km/h (0 Bft) S-SW 201 2 min 0,000 mm 1,9 UV-I 440 W/m 16,8 C 20,0 C 3,2 km/h (1 Bft) 97,87 %
09.09.2016 09:56 20,1 C 82 % 1015,9 hPa 0,0 l/m 3,5 km/h (1 Bft) NO 50 2 min 0,000 mm 2,0 UV-I 443 W/m 16,9 C 20,1 C 6,4 km/h (2 Bft) 97,87 %
09.09.2016 09:58 20,2 C 83 % 1016,0 hPa 0,0 l/m 3,1 km/h (1 Bft) NO 50 2 min 0,000 mm 2,0 UV-I 446 W/m 17,2 C 20,2 C 4,8 km/h (1 Bft) 95,74 %
09.09.2016 10:00 20,4 C 81 % 1016,0 hPa 0,0 l/m 2,7 km/h (1 Bft) NO 50 2 min 0,229 mm 2,0 UV-I 452 W/m 17,0 C 20,4 C 4,8 km/h (1 Bft) 97,87 %
09.09.2016 10:02 20,6 C 81 % 1016,0 hPa 0,0 l/m 2,5 km/h (1 Bft) NO 50 2 min 0,000 mm 2,1 UV-I 457 W/m 17,2 C 20,6 C 4,8 km/h (1 Bft) 97,87 %
09.09.2016 10:04 20,6 C 82 % 1015,9 hPa 0,0 l/m 1,9 km/h (1 Bft) NO 48 2 min 0,000 mm 2,1 UV-I 463 W/m 17,4 C 20,6 C 4,8 km/h (1 Bft) 100,00 %
09.09.2016 10:06 20,6 C 79 % 1016,0 hPa 0,0 l/m 1,7 km/h (1 Bft) NO 48 2 min 0,000 mm 2,1 UV-I 467 W/m 16,8 C 20,6 C 6,4 km/h (2 Bft) 100,00 %
09.09.2016 10:08 20,5 C 79 % 1015,9 hPa 0,0 l/m 2,2 km/h (1 Bft) NO 46 2 min 0,000 mm 2,2 UV-I 471 W/m 16,7 C 20,5 C 4,8 km/h (1 Bft) 100,00 %
09.09.2016 10:10 20,4 C 77 % 1016,0 hPa 0,0 l/m 1,4 km/h (1 Bft) NO 46 2 min 0,000 mm 2,2 UV-I 475 W/m 16,2 C 20,4 C 4,8 km/h (1 Bft) 97,87 %
09.09.2016 10:12 20,5 C 80 % 1016,0 hPa 0,0 l/m 1,1 km/h (1 Bft) NO 45 2 min 0,000 mm 2,2 UV-I 476 W/m 16,9 C 20,5 C 3,2 km/h (1 Bft) 97,87 %
09.09.2016 10:14 20,5 C 79 % 1015,9 hPa 0,0 l/m 1,4 km/h (1 Bft) NO 45 2 min 0,000 mm 2,3 UV-I 481 W/m 16,7 C 20,5 C 4,8 km/h (1 Bft) 97,87 %
09.09.2016 10:16 20,5 C 78 % 1016,0 hPa 0,0 l/m 1,2 km/h (1 Bft) NO 45 2 min 0,000 mm 2,3 UV-I 484 W/m 16,5 C 20,5 C 3,2 km/h (1 Bft) 97,87 %
09.09.2016 10:18 20,5 C 78 % 1016,0 hPa 0,0 l/m 0,9 km/h (0 Bft) NO 44 2 min 0,000 mm 2,3 UV-I 487 W/m 16,5 C 20,5 C 3,2 km/h (1 Bft) 97,87 %
09.09.2016 10:20 20,7 C 79 % 1016,0 hPa 0,0 l/m 0,5 km/h (0 Bft) NO 44 2 min 0,000 mm 2,4 UV-I 490 W/m 16,9 C 20,7 C 1,6 km/h (1 Bft) 95,74 %
09.09.2016 10:22 20,9 C 78 % 1016,0 hPa 0,0 l/m 3,7 km/h (1 Bft) O-NO 69 2 min 0,000 mm 2,4 UV-I 495 W/m 16,9 C 20,9 C 6,4 km/h (2 Bft) 100,00 %
09.09.2016 10:24 20,9 C 76 % 1016,0 hPa 0,0 l/m 3,7 km/h (1 Bft) O 92 2 min 0,000 mm 2,5 UV-I 498 W/m 16,5 C 20,9 C 6,4 km/h (2 Bft) 100,00 %
09.09.2016 10:26 20,8 C 76 % 1016,0 hPa 0,0 l/m 1,0 km/h (0 Bft) O 92 2 min 0,000 mm 2,5 UV-I 501 W/m 16,4 C 20,8 C 3,2 km/h (1 Bft) 100,00 %
09.09.2016 10:28 20,9 C 78 % 1016,0 hPa 0,0 l/m 1,9 km/h (1 Bft) O 80 2 min 0,000 mm 2,5 UV-I 505 W/m 16,9 C 20,9 C 4,8 km/h (1 Bft) 100,00 %
09.09.2016 10:30 21,0 C 77 % 1016,0 hPa 0,0 l/m 3,9 km/h (1 Bft) O-NO 72 2 min 0,000 mm 2,6 UV-I 511 W/m 16,8 C 21,0 C 4,8 km/h (1 Bft) 97,87 %
09.09.2016 10:32 21,1 C 75 % 1016,0 hPa 0,0 l/m 1,1 km/h (1 Bft) O-NO 72 2 min 0,000 mm 2,6 UV-I 515 W/m 16,5 C 21,1 C 3,2 km/h (1 Bft) 97,87 %
09.09.2016 10:34 21,1 C 77 % 1016,0 hPa 0,0 l/m 2,1 km/h (1 Bft) O-NO 72 2 min 0,000 mm 2,6 UV-I 516 W/m 16,9 C 21,1 C 4,8 km/h (1 Bft) 100,00 %
09.09.2016 10:36 21,2 C 78 % 1016,0 hPa 0,0 l/m 3,7 km/h (1 Bft) O-NO 59 2 min 0,000 mm 2,7 UV-I 519 W/m 17,2 C 21,2 C 6,4 km/h (2 Bft) 95,74 %
09.09.2016 10:38 21,3 C 75 % 1016,1 hPa 0,0 l/m 1,1 km/h (1 Bft) O-NO 59 2 min 0,000 mm 2,7 UV-I 526 W/m 16,7 C 21,3 C 4,8 km/h (1 Bft) 100,00 %
09.09.2016 10:40 21,4 C 76 % 1016,1 hPa 0,0 l/m 0,2 km/h (0 Bft) O-NO 58 2 min 0,000 mm 2,8 UV-I 533 W/m 17,0 C 21,4 C 1,6 km/h (1 Bft) 100,00 %
09.09.2016 10:42 21,5 C 73 % 1016,0 hPa 0,0 l/m 2,7 km/h (1 Bft) O-NO 73 2 min 0,000 mm 2,8 UV-I 539 W/m 16,4 C 21,5 C 4,8 km/h (1 Bft) 100,00 %
09.09.2016 10:44 21,5 C 74 % 1016,0 hPa 0,0 l/m 5,0 km/h (1 Bft) NO 52 2 min 0,000 mm 2,9 UV-I 545 W/m 16,7 C 21,5 C 9,7 km/h (2 Bft) 100,00 %
09.09.2016 10:46 21,6 C 73 % 1015,9 hPa 0,0 l/m 4,2 km/h (1 Bft) O-NO 59 2 min 0,000 mm 2,9 UV-I 548 W/m 16,5 C 21,6 C 8,0 km/h (2 Bft) 97,87 %
09.09.2016 10:48 21,5 C 73 % 1016,0 hPa 0,0 l/m 1,6 km/h (1 Bft) O-NO 59 2 min 0,000 mm 2,9 UV-I 550 W/m 16,4 C 21,5 C 4,8 km/h (1 Bft) 100,00 %
09.09.2016 10:50 21,4 C 73 % 1016,0 hPa 0,0 l/m 0,8 km/h (0 Bft) O-NO 59 2 min 0,000 mm 3,0 UV-I 553 W/m 16,4 C 21,4 C 3,2 km/h (1 Bft) 100,00 %
09.09.2016 10:52 21,6 C 73 % 1016,1 hPa 0,0 l/m 3,0 km/h (1 Bft) O-NO 58 2 min 0,000 mm 3,0 UV-I 555 W/m 16,5 C 21,6 C 4,8 km/h (1 Bft) 97,87 %
09.09.2016 10:54 21,6 C 73 % 1016,0 hPa 0,0 l/m 0,4 km/h (0 Bft) O-NO 58 2 min 0,000 mm 3,0 UV-I 556 W/m 16,5 C 21,6 C 1,6 km/h (1 Bft) 94,74 %
09.09.2016 10:56 21,7 C 75 % 1016,0 hPa 0,0 l/m 2,3 km/h (1 Bft) O-NO 58 2 min 0,000 mm 3,1 UV-I 557 W/m 17,1 C 21,7 C 4,8 km/h (1 Bft) 100,00 %
09.09.2016 10:58 21,8 C 73 % 1016,0 hPa 0,0 l/m 3,4 km/h (1 Bft) NO 55 2 min 0,000 mm 3,1 UV-I 562 W/m 16,7 C 21,8 C 8,0 km/h (2 Bft) 100,00 %
09.09.2016 11:00 21,8 C 73 % 1015,9 hPa 0,0 l/m 2,5 km/h (1 Bft) NO 56 2 min 0,305 mm 3,1 UV-I 567 W/m 16,7 C 21,8 C 6,4 km/h (2 Bft) 100,00 %
09.09.2016 11:02 21,9 C 75 % 1015,9 hPa 0,0 l/m 4,5 km/h (1 Bft) NO 42 2 min 0,000 mm 3,2 UV-I 571 W/m 17,3 C 21,9 C 6,4 km/h (2 Bft) 97,87 %
09.09.2016 11:04 22,1 C 75 % 1015,9 hPa 0,0 l/m 2,3 km/h (1 Bft) N-NO 32 2 min 0,000 mm 3,2 UV-I 577 W/m 17,5 C 22,1 C 4,8 km/h (1 Bft) 100,00 %
09.09.2016 11:06 22,3 C 75 % 1015,9 hPa 0,0 l/m 2,9 km/h (1 Bft) N-NO 28 2 min 0,000 mm 3,3 UV-I 581 W/m 17,6 C 22,3 C 4,8 km/h (1 Bft) 100,00 %
09.09.2016 11:08 22,3 C 71 % 1015,9 hPa 0,0 l/m 2,7 km/h (1 Bft) N-NO 28 2 min 0,000 mm 3,3 UV-I 584 W/m 16,8 C 22,3 C 4,8 km/h (1 Bft) 100,00 %
09.09.2016 11:10 22,2 C 72 % 1015,8 hPa 0,0 l/m 3,5 km/h (1 Bft) NO 55 2 min 0,000 mm 3,3 UV-I 585 W/m 16,9 C 22,2 C 6,4 km/h (2 Bft) 100,00 %
09.09.2016 11:12 22,2 C 72 % 1015,8 hPa 0,0 l/m 1,9 km/h (1 Bft) NO 55 2 min 0,000 mm 3,3 UV-I 587 W/m 16,9 C 22,2 C 4,8 km/h (1 Bft) 95,74 %
09.09.2016 11:14 22,3 C 73 % 1015,8 hPa 0,0 l/m 3,2 km/h (1 Bft) NO 55 2 min 0,000 mm 3,4 UV-I 591 W/m 17,2 C 22,3 C 6,4 km/h (2 Bft) 97,87 %
09.09.2016 11:16 22,4 C 71 % 1015,8 hPa 0,0 l/m 3,4 km/h (1 Bft) O-NO 57 2 min 0,000 mm 3,4 UV-I 591 W/m 16,9 C 22,4 C 6,4 km/h (2 Bft) 100,00 %
09.09.2016 11:18 22,4 C 72 % 1015,8 hPa 0,0 l/m 3,3 km/h (1 Bft) O-NO 57 2 min 0,000 mm 3,4 UV-I 589 W/m 17,1 C 22,4 C 4,8 km/h (1 Bft) 100,00 %
09.09.2016 11:20 22,4 C 72 % 1015,8 hPa 0,0 l/m 1,0 km/h (0 Bft) O-NO 57 2 min 0,000 mm 3,4 UV-I 593 W/m 17,1 C 22,4 C 3,2 km/h (1 Bft) 100,00 %
09.09.2016 11:22 22,4 C 72 % 1015,8 hPa 0,0 l/m 0,3 km/h (0 Bft) O-NO 57 2 min 0,000 mm 3,5 UV-I 601 W/m 17,1 C 22,4 C 1,6 km/h (1 Bft) 97,87 %
09.09.2016 11:24 22,6 C 72 % 1015,9 hPa 0,0 l/m 0,1 km/h (0 Bft) O-NO 57 2 min 0,000 mm 3,5 UV-I 603 W/m 17,3 C 22,6 C 1,6 km/h (1 Bft) 95,83 %
09.09.2016 11:26 22,7 C 70 % 1015,8 hPa 0,0 l/m 0,8 km/h (0 Bft) O-NO 58 2 min 0,000 mm 3,6 UV-I 606 W/m 16,9 C 22,7 C 1,6 km/h (1 Bft) 100,00 %
09.09.2016 11:28 22,8 C 70 % 1015,8 hPa 0,0 l/m 1,2 km/h (1 Bft) O-NO 74 2 min 0,000 mm 3,6 UV-I 610 W/m 17,0 C 22,8 C 3,2 km/h (1 Bft) 100,00 %
09.09.2016 11:30 22,9 C 69 % 1015,8 hPa 0,0 l/m 1,3 km/h (1 Bft) O 82 2 min 0,000 mm 3,6 UV-I 613 W/m 16,9 C 22,9 C 3,2 km/h (1 Bft) 95,74 %
09.09.2016 11:32 23,2 C 68 % 1015,8 hPa 0,0 l/m 1,6 km/h (1 Bft) O-SO 117 2 min 0,000 mm 3,6 UV-I 616 W/m 17,0 C 23,2 C 4,8 km/h (1 Bft) 97,87 %
09.09.2016 11:34 23,3 C 67 % 1015,8 hPa 0,0 l/m 2,9 km/h (1 Bft) S 176 2 min 0,000 mm 3,7 UV-I 618 W/m 16,8 C 23,3 C 6,4 km/h (2 Bft) 95,74 %
09.09.2016 11:36 23,3 C 71 % 1015,8 hPa 0,0 l/m 4,2 km/h (1 Bft) S-SW 207 2 min 0,000 mm 3,7 UV-I 624 W/m 17,7 C 23,3 C 6,4 km/h (2 Bft) 97,87 %
09.09.2016 11:38 23,3 C 67 % 1015,8 hPa 0,0 l/m 2,5 km/h (1 Bft) S 177 2 min 0,000 mm 3,8 UV-I 629 W/m 16,8 C 23,3 C 6,4 km/h (2 Bft) 97,87 %
09.09.2016 11:40 23,3 C 70 % 1015,8 hPa 0,0 l/m 2,2 km/h (1 Bft) S 177 2 min 0,000 mm 3,8 UV-I 631 W/m 17,5 C 23,3 C 4,8 km/h (1 Bft) 96,00 %
09.09.2016 11:42 23,4 C 69 % 1015,7 hPa 0,0 l/m 0,9 km/h (0 Bft) S 177 2 min 0,000 mm 3,8 UV-I 633 W/m 17,4 C 23,4 C 3,2 km/h (1 Bft) 95,74 %
09.09.2016 11:44 23,6 C 69 % 1015,8 hPa 0,0 l/m 3,4 km/h (1 Bft) W-NW 290 2 min 0,000 mm 3,8 UV-I 635 W/m 17,6 C 23,6 C 8,0 km/h (2 Bft) 95,74 %
09.09.2016 11:46 23,5 C 68 % 1015,8 hPa 0,0 l/m 1,6 km/h (1 Bft) NW 324 2 min 0,000 mm 3,9 UV-I 636 W/m 17,2 C 23,5 C 3,2 km/h (1 Bft) 97,87 %
09.09.2016 11:48 23,5 C 68 % 1015,7 hPa 0,0 l/m 3,3 km/h (1 Bft) W 267 2 min 0,000 mm 3,9 UV-I 636 W/m 17,2 C 23,5 C 6,4 km/h (2 Bft) 95,74 %
09.09.2016 11:50 23,6 C 67 % 1015,7 hPa 0,0 l/m 8,3 km/h (2 Bft) W-SW 250 2 min 0,000 mm 3,9 UV-I 640 W/m 17,1 C 23,0 C 12,9 km/h (3 Bft) 97,87 %
09.09.2016 11:52 23,6 C 67 % 1015,7 hPa 0,0 l/m 3,7 km/h (1 Bft) W-SW 237 2 min 0,000 mm 4,0 UV-I 644 W/m 17,1 C 23,6 C 8,0 km/h (2 Bft) 97,87 %
09.09.2016 11:54 23,7 C 68 % 1015,7 hPa 0,0 l/m 3,8 km/h (1 Bft) S 184 2 min 0,000 mm 4,0 UV-I 645 W/m 17,4 C 23,7 C 11,3 km/h (2 Bft) 98,00 %
09.09.2016 11:56 23,7 C 65 % 1015,7 hPa 0,0 l/m 7,1 km/h (2 Bft) W-SW 247 2 min 0,000 mm 4,0 UV-I 649 W/m 16,7 C 23,5 C 11,3 km/h (2 Bft) 95,74 %
09.09.2016 11:58 23,6 C 66 % 1015,7 hPa 0,0 l/m 2,7 km/h (1 Bft) W-SW 257 2 min 0,000 mm 4,0 UV-I 649 W/m 16,9 C 23,6 C 6,4 km/h (2 Bft) 95,74 %
09.09.2016 12:00 23,5 C 66 % 1015,7 hPa 0,0 l/m 4,0 km/h (1 Bft) W-SW 252 2 min 0,381 mm 4,0 UV-I 647 W/m 16,8 C 23,5 C 6,4 km/h (2 Bft) 97,87 %
09.09.2016 12:02 23,5 C 65 % 1015,7 hPa 0,0 l/m 5,1 km/h (1 Bft) S 190 2 min 0,000 mm 4,0 UV-I 649 W/m 16,5 C 23,5 C 6,4 km/h (2 Bft) 100,00 %
09.09.2016 12:04 23,5 C 67 % 1015,7 hPa 0,0 l/m 4,2 km/h (1 Bft) S 188 2 min 0,000 mm 4,1 UV-I 652 W/m 17,0 C 23,5 C 8,0 km/h (2 Bft) 100,00 %
09.09.2016 12:06 23,7 C 67 % 1015,6 hPa 0,0 l/m 4,7 km/h (1 Bft) W-SW 257 2 min 0,000 mm 4,1 UV-I 652 W/m 17,2 C 23,7 C 8,0 km/h (2 Bft) 100,00 %
09.09.2016 12:08 23,8 C 69 % 1015,6 hPa 0,0 l/m 1,7 km/h (1 Bft) W-SW 257 2 min 0,000 mm 4,1 UV-I 656 W/m 17,8 C 23,8 C 4,8 km/h (1 Bft) 100,00 %
09.09.2016 12:10 23,8 C 67 % 1015,6 hPa 0,0 l/m 4,4 km/h (1 Bft) W 260 2 min 0,000 mm 4,1 UV-I 659 W/m 17,3 C 23,8 C 9,7 km/h (2 Bft) 98,00 %
09.09.2016 12:12 23,8 C 66 % 1015,6 hPa 0,0 l/m 0,8 km/h (0 Bft) NW 306 2 min 0,000 mm 4,1 UV-I 657 W/m 17,1 C 23,8 C 3,2 km/h (1 Bft) 100,00 %
09.09.2016 12:16 24,0 C 68 % 1015,6 hPa 0,0 l/m 2,9 km/h (1 Bft) W-NW 295 4 min 0,000 mm 4,2 UV-I 664 W/m 17,7 C 24,0 C 4,8 km/h (1 Bft) 100,00 %
09.09.2016 12:18 24,1 C 67 % 1015,6 hPa 0,0 l/m 3,3 km/h (1 Bft) W 271 2 min 0,000 mm 4,2 UV-I 664 W/m 17,6 C 24,1 C 4,8 km/h (1 Bft) 100,00 %
09.09.2016 12:20 24,2 C 68 % 1015,6 hPa 0,0 l/m 2,9 km/h (1 Bft) NW 312 2 min 0,000 mm 4,2 UV-I 666 W/m 17,9 C 24,2 C 6,4 km/h (2 Bft) 100,00 %
09.09.2016 12:22 24,2 C 65 % 1015,6 hPa 0,0 l/m 2,4 km/h (1 Bft) N 5 2 min 0,000 mm 4,2 UV-I 668 W/m 17,2 C 24,2 C 4,8 km/h (1 Bft) 100,00 %
09.09.2016 12:24 24,1 C 68 % 1015,6 hPa 0,0 l/m 3,2 km/h (1 Bft) NW 316 2 min 0,000 mm 4,2 UV-I 667 W/m 17,8 C 24,1 C 6,4 km/h (2 Bft) 100,00 %
09.09.2016 12:26 24,1 C 66 % 1015,6 hPa 0,0 l/m 3,4 km/h (1 Bft) NW 315 2 min 0,000 mm 4,3 UV-I 670 W/m 17,3 C 24,1 C 6,4 km/h (2 Bft) 97,37 %
09.09.2016 12:28 24,1 C 67 % 1015,5 hPa 0,0 l/m 2,1 km/h (1 Bft) NW 313 2 min 0,000 mm 4,3 UV-I 672 W/m 17,6 C 24,1 C 4,8 km/h (1 Bft) 100,00 %
09.09.2016 12:30 24,0 C 67 % 1015,5 hPa 0,0 l/m 2,5 km/h (1 Bft) S 175 2 min 0,000 mm 4,3 UV-I 673 W/m 17,5 C 24,0 C 4,8 km/h (1 Bft) 98,00 %
09.09.2016 12:32 24,1 C 68 % 1015,5 hPa 0,0 l/m 3,2 km/h (1 Bft) N-NW 331 2 min 0,000 mm 4,3 UV-I 673 W/m 17,8 C 24,1 C 4,8 km/h (1 Bft) 100,00 %
09.09.2016 12:34 24,2 C 68 % 1015,5 hPa 0,0 l/m 3,4 km/h (1 Bft) N-NW 330 2 min 0,000 mm 4,3 UV-I 672 W/m 17,9 C 24,2 C 8,0 km/h (2 Bft) 97,62 %
09.09.2016 12:36 24,3 C 68 % 1015,5 hPa 0,0 l/m 2,9 km/h (1 Bft) W-NW 299 2 min 0,000 mm 4,3 UV-I 670 W/m 18,0 C 24,3 C 6,4 km/h (2 Bft) 100,00 %
09.09.2016 12:38 24,3 C 67 % 1015,5 hPa 0,0 l/m 2,7 km/h (1 Bft) SW 234 2 min 0,000 mm 4,3 UV-I 669 W/m 17,8 C 24,3 C 4,8 km/h (1 Bft) 97,56 %
09.09.2016 12:40 24,3 C 68 % 1015,5 hPa 0,0 l/m 2,5 km/h (1 Bft) SW 236 2 min 0,000 mm 4,3 UV-I 669 W/m 18,0 C 24,3 C 4,8 km/h (1 Bft) 100,00 %
09.09.2016 12:42 24,4 C 70 % 1015,5 hPa 0,0 l/m 3,1 km/h (1 Bft) NW 313 2 min 0,000 mm 4,3 UV-I 674 W/m 18,6 C 24,4 C 8,0 km/h (2 Bft) 98,00 %
09.09.2016 12:44 24,5 C 69 % 1015,5 hPa 0,0 l/m 1,3 km/h (1 Bft) NW 326 2 min 0,000 mm 4,3 UV-I 677 W/m 18,4 C 24,5 C 4,8 km/h (1 Bft) 100,00 %
09.09.2016 12:46 24,7 C 68 % 1015,5 hPa 0,0 l/m 2,4 km/h (1 Bft) NW 319 2 min 0,000 mm 4,4 UV-I 679 W/m 18,4 C 24,7 C 6,4 km/h (2 Bft) 100,00 %
09.09.2016 12:48 24,7 C 68 % 1015,5 hPa 0,0 l/m 1,8 km/h (1 Bft) N-NW 348 2 min 0,000 mm 4,4 UV-I 680 W/m 18,4 C 24,7 C 4,8 km/h (1 Bft) 100,00 %
09.09.2016 12:50 24,7 C 66 % 1015,5 hPa 0,0 l/m 2,7 km/h (1 Bft) N-NW 337 2 min 0,000 mm 4,4 UV-I 680 W/m 17,9 C 24,7 C 8,0 km/h (2 Bft) 98,00 %
09.09.2016 12:52 24,7 C 69 % 1015,5 hPa 0,0 l/m 1,9 km/h (1 Bft) NW 317 2 min 0,000 mm 4,4 UV-I 679 W/m 18,6 C 24,7 C 3,2 km/h (1 Bft) 100,00 %
09.09.2016 12:54 24,8 C 63 % 1015,5 hPa 0,0 l/m 3,4 km/h (1 Bft) W-NW 293 2 min 0,000 mm 4,4 UV-I 680 W/m 17,3 C 24,8 C 6,4 km/h (2 Bft) 100,00 %
09.09.2016 12:56 24,7 C 65 % 1015,4 hPa 0,0 l/m 1,6 km/h (1 Bft) W-NW 294 2 min 0,000 mm 4,4 UV-I 675 W/m 17,7 C 24,7 C 3,2 km/h (1 Bft) 98,00 %
09.09.2016 12:58 24,6 C 64 % 1015,4 hPa 0,0 l/m 3,0 km/h (1 Bft) N 351 2 min 0,000 mm 4,4 UV-I 679 W/m 17,3 C 24,6 C 4,8 km/h (1 Bft) 100,00 %
09.09.2016 13:00 24,7 C 65 % 1015,5 hPa 0,0 l/m 5,3 km/h (1 Bft) NW 304 2 min 0,432 mm 4,3 UV-I 680 W/m 17,7 C 24,7 C 8,0 km/h (2 Bft) 96,00 %
09.09.2016 13:02 24,6 C 65 % 1015,5 hPa 0,0 l/m 3,0 km/h (1 Bft) W-NW 284 2 min 0,000 mm 4,4 UV-I 680 W/m 17,6 C 24,6 C 4,8 km/h (1 Bft) 98,00 %
09.09.2016 13:04 24,6 C 64 % 1015,4 hPa 0,0 l/m 2,3 km/h (1 Bft) SW 215 2 min 0,000 mm 4,3 UV-I 681 W/m 17,3 C 24,6 C 4,8 km/h (1 Bft) 100,00 %
09.09.2016 13:06 24,7 C 66 % 1015,5 hPa 0,0 l/m 1,9 km/h (1 Bft) SW 215 2 min 0,000 mm 4,3 UV-I 677 W/m 17,9 C 24,7 C 4,8 km/h (1 Bft) 100,00 %
09.09.2016 13:08 24,9 C 66 % 1015,4 hPa 0,0 l/m 2,5 km/h (1 Bft) W-NW 298 2 min 0,000 mm 4,3 UV-I 677 W/m 18,1 C 24,9 C 8,0 km/h (2 Bft) 100,00 %
09.09.2016 13:10 25,1 C 64 % 1015,4 hPa 0,0 l/m 1,8 km/h (1 Bft) W 278 2 min 0,000 mm 4,3 UV-I 677 W/m 17,8 C 25,1 C 8,0 km/h (2 Bft) 98,00 %
09.09.2016 13:12 25,2 C 66 % 1015,4 hPa 0,0 l/m 3,4 km/h (1 Bft) N-NO 13 2 min 0,000 mm 4,3 UV-I 677 W/m 18,4 C 25,2 C 8,0 km/h (2 Bft) 100,00 %
09.09.2016 13:14 25,3 C 65 % 1015,4 hPa 0,0 l/m 7,1 km/h (2 Bft) NO 34 2 min 0,000 mm 4,3 UV-I 679 W/m 18,2 C 25,1 C 12,9 km/h (3 Bft) 100,00 %
09.09.2016 13:16 25,3 C 64 % 1015,4 hPa 0,0 l/m 3,0 km/h (1 Bft) N-NO 24 2 min 0,000 mm 4,3 UV-I 678 W/m 18,0 C 25,3 C 8,0 km/h (2 Bft) 100,00 %
09.09.2016 13:18 25,4 C 65 % 1015,4 hPa 0,0 l/m 2,0 km/h (1 Bft) N 5 2 min 0,000 mm 4,3 UV-I 678 W/m 18,3 C 25,4 C 4,8 km/h (1 Bft) 97,62 %
09.09.2016 13:20 25,6 C 63 % 1015,4 hPa 0,0 l/m 3,2 km/h (1 Bft) N-NO 30 2 min 0,000 mm 4,3 UV-I 680 W/m 18,0 C 25,6 C 6,4 km/h (2 Bft) 100,00 %
09.09.2016 13:22 25,5 C 63 % 1015,4 hPa 0,0 l/m 2,4 km/h (1 Bft) NW 315 2 min 0,000 mm 4,3 UV-I 681 W/m 17,9 C 25,5 C 6,4 km/h (2 Bft) 100,00 %
09.09.2016 13:24 25,4 C 64 % 1015,4 hPa 0,0 l/m 2,1 km/h (1 Bft) NW 324 2 min 0,000 mm 4,3 UV-I 680 W/m 18,1 C 25,4 C 3,2 km/h (1 Bft) 100,00 %
09.09.2016 13:26 25,2 C 62 % 1015,4 hPa 0,0 l/m 2,1 km/h (1 Bft) NW 306 2 min 0,000 mm 4,0 UV-I 680 W/m 17,4 C 25,2 C 4,8 km/h (1 Bft) 95,74 %
09.09.2016 13:28 25,3 C 63 % 1015,4 hPa 0,0 l/m 2,3 km/h (1 Bft) N-NW 342 2 min 0,000 mm 4,3 UV-I 678 W/m 17,7 C 25,3 C 4,8 km/h (1 Bft) 97,87 %
09.09.2016 13:30 25,3 C 62 % 1015,4 hPa 0,0 l/m 4,4 km/h (1 Bft) O-NO 65 2 min 0,000 mm 4,2 UV-I 672 W/m 17,5 C 25,3 C 6,4 km/h (2 Bft) 95,74 %
09.09.2016 13:32 25,1 C 61 % 1015,4 hPa 0,0 l/m 4,6 km/h (1 Bft) O-SO 102 2 min 0,000 mm 4,2 UV-I 671 W/m 17,0 C 25,1 C 6,4 km/h (2 Bft) 98,00 %
09.09.2016 13:34 25,2 C 63 % 1015,3 hPa 0,0 l/m 3,3 km/h (1 Bft) N 5 2 min 0,000 mm 4,2 UV-I 670 W/m 17,6 C 25,2 C 6,4 km/h (2 Bft) 97,37 %
09.09.2016 13:36 25,4 C 64 % 1015,3 hPa 0,0 l/m 2,2 km/h (1 Bft) N-NO 29 2 min 0,000 mm 4,2 UV-I 674 W/m 18,1 C 25,4 C 4,8 km/h (1 Bft) 94,34 %
09.09.2016 13:38 25,7 C 67 % 1015,3 hPa 0,0 l/m 2,9 km/h (1 Bft) N-NW 348 2 min 0,000 mm 4,2 UV-I 673 W/m 19,1 C 25,7 C 4,8 km/h (1 Bft) 98,00 %
09.09.2016 13:40 25,6 C 63 % 1015,3 hPa 0,0 l/m 2,3 km/h (1 Bft) N 5 2 min 0,000 mm 4,2 UV-I 676 W/m 18,0 C 25,6 C 4,8 km/h (1 Bft) 97,87 %
09.09.2016 13:42 25,4 C 60 % 1015,3 hPa 0,0 l/m 1,5 km/h (1 Bft) N 5 2 min 0,000 mm 4,2 UV-I 679 W/m 17,1 C 25,4 C 3,2 km/h (1 Bft) 95,45 %
09.09.2016 13:44 25,4 C 64 % 1015,3 hPa 0,0 l/m 0,9 km/h (0 Bft) N 355 2 min 0,000 mm 4,2 UV-I 679 W/m 18,1 C 25,4 C 3,2 km/h (1 Bft) 96,00 %
09.09.2016 13:46 25,4 C 63 % 1015,3 hPa 0,0 l/m 2,4 km/h (1 Bft) N-NO 33 2 min 0,000 mm 4,2 UV-I 675 W/m 17,8 C 25,4 C 6,4 km/h (2 Bft) 96,00 %
09.09.2016 13:48 25,6 C 64 % 1015,3 hPa 0,0 l/m 7,0 km/h (2 Bft) O-NO 64 2 min 0,000 mm 4,1 UV-I 671 W/m 18,3 C 25,5 C 9,7 km/h (2 Bft) 97,56 %
09.09.2016 13:50 25,4 C 61 % 1015,3 hPa 0,0 l/m 2,0 km/h (1 Bft) NW 325 2 min 0,000 mm 4,1 UV-I 670 W/m 17,3 C 25,4 C 4,8 km/h (1 Bft) 98,11 %
09.09.2016 13:52 25,6 C 65 % 1015,3 hPa 0,0 l/m 1,6 km/h (1 Bft) N 9 2 min 0,000 mm 4,1 UV-I 669 W/m 18,5 C 25,6 C 3,2 km/h (1 Bft) 97,87 %
09.09.2016 13:54 25,8 C 62 % 1015,3 hPa 0,0 l/m 3,2 km/h (1 Bft) NW 305 2 min 0,000 mm 4,1 UV-I 667 W/m 18,0 C 25,8 C 6,4 km/h (2 Bft) 97,22 %
09.09.2016 13:56 25,7 C 59 % 1015,3 hPa 0,0 l/m 3,1 km/h (1 Bft) NW 305 2 min 0,000 mm 4,1 UV-I 666 W/m 17,1 C 25,7 C 6,4 km/h (2 Bft) 98,00 %
09.09.2016 13:58 25,7 C 61 % 1015,3 hPa 0,0 l/m 1,1 km/h (1 Bft) NW 324 2 min 0,000 mm 4,0 UV-I 668 W/m 17,6 C 25,7 C 4,8 km/h (1 Bft) 100,00 %
09.09.2016 14:00 25,9 C 65 % 1015,2 hPa 0,0 l/m 4,4 km/h (1 Bft) N-NO 18 2 min 0,431 mm 3,9 UV-I 664 W/m 18,8 C 25,9 C 6,4 km/h (2 Bft) 100,00 %
09.09.2016 14:02 26,1 C 63 % 1015,2 hPa 0,0 l/m 8,4 km/h (2 Bft) N-NO 13 2 min 0,000 mm 4,0 UV-I 663 W/m 18,5 C 25,7 C 14,5 km/h (3 Bft) 100,00 %
09.09.2016 14:04 26,2 C 63 % 1015,3 hPa 0,0 l/m 6,0 km/h (2 Bft) N-NO 32 2 min 0,000 mm 4,0 UV-I 661 W/m 18,6 C 26,2 C 9,7 km/h (2 Bft) 100,00 %
09.09.2016 14:06 25,9 C 60 % 1015,2 hPa 0,0 l/m 2,5 km/h (1 Bft) N-NO 29 2 min 0,000 mm 4,0 UV-I 662 W/m 17,5 C 25,9 C 4,8 km/h (1 Bft) 100,00 %
09.09.2016 14:08 25,9 C 66 % 1015,2 hPa 0,0 l/m 1,6 km/h (1 Bft) NO 51 2 min 0,000 mm 4,0 UV-I 660 W/m 19,0 C 25,9 C 3,2 km/h (1 Bft) 100,00 %
09.09.2016 14:10 25,9 C 60 % 1015,2 hPa 0,0 l/m 0,8 km/h (0 Bft) NO 51 2 min 0,000 mm 3,9 UV-I 658 W/m 17,5 C 25,9 C 1,6 km/h (1 Bft) 100,00 %
09.09.2016 14:12 25,9 C 61 % 1015,2 hPa 0,0 l/m 0,9 km/h (0 Bft) N-NW 348 2 min 0,000 mm 3,9 UV-I 655 W/m 17,8 C 25,9 C 4,8 km/h (1 Bft) 100,00 %
09.09.2016 14:14 26,0 C 61 % 1015,1 hPa 0,0 l/m 2,1 km/h (1 Bft) N-NW 340 2 min 0,000 mm 3,9 UV-I 654 W/m 17,9 C 26,0 C 4,8 km/h (1 Bft) 98,11 %
09.09.2016 14:16 26,0 C 60 % 1015,1 hPa 0,0 l/m 2,7 km/h (1 Bft) W-NW 299 2 min 0,000 mm 3,8 UV-I 650 W/m 17,6 C 26,0 C 4,8 km/h (1 Bft) 100,00 %
09.09.2016 14:18 26,1 C 61 % 1015,1 hPa 0,0 l/m 2,5 km/h (1 Bft) NW 317 2 min 0,000 mm 3,8 UV-I 645 W/m 18,0 C 26,1 C 4,8 km/h (1 Bft) 98,18 %
09.09.2016 14:20 26,0 C 60 % 1015,1 hPa 0,0 l/m 3,1 km/h (1 Bft) W 275 2 min 0,000 mm 3,8 UV-I 642 W/m 17,6 C 26,0 C 4,8 km/h (1 Bft) 100,00 %
09.09.2016 14:22 26,0 C 60 % 1015,1 hPa 0,0 l/m 3,3 km/h (1 Bft) S-SW 207 2 min 0,000 mm 3,7 UV-I 641 W/m 17,6 C 26,0 C 4,8 km/h (1 Bft) 100,00 %
09.09.2016 14:24 25,9 C 59 % 1015,1 hPa 0,0 l/m 3,5 km/h (1 Bft) S 182 2 min 0,000 mm 3,7 UV-I 643 W/m 17,3 C 25,9 C 4,8 km/h (1 Bft) 96,00 %
09.09.2016 14:26 25,8 C 61 % 1015,1 hPa 0,0 l/m 1,1 km/h (1 Bft) S 182 2 min 0,000 mm 3,7 UV-I 641 W/m 17,7 C 25,8 C 3,2 km/h (1 Bft) 100,00 %
09.09.2016 14:28 26,1 C 60 % 1015,1 hPa 0,0 l/m 0,6 km/h (0 Bft) S 182 2 min 0,000 mm 3,6 UV-I 637 W/m 17,7 C 26,1 C 1,6 km/h (1 Bft) 100,00 %
09.09.2016 14:30 26,1 C 59 % 1015,1 hPa 0,0 l/m 3,5 km/h (1 Bft) O-NO 74 2 min 0,000 mm 3,6 UV-I 631 W/m 17,4 C 26,1 C 4,8 km/h (1 Bft) 100,00 %
09.09.2016 14:32 26,1 C 62 % 1015,0 hPa 0,0 l/m 2,6 km/h (1 Bft) NO 38 2 min 0,000 mm 3,6 UV-I 633 W/m 18,2 C 26,1 C 4,8 km/h (1 Bft) 100,00 %
09.09.2016 14:34 26,3 C 60 % 1015,0 hPa 0,0 l/m 5,3 km/h (1 Bft) NO 48 2 min 0,000 mm 3,6 UV-I 628 W/m 17,9 C 26,3 C 8,0 km/h (2 Bft) 100,00 %
09.09.2016 14:36 26,4 C 59 % 1015,0 hPa 0,0 l/m 5,9 km/h (2 Bft) NO 48 2 min 0,000 mm 3,6 UV-I 628 W/m 17,7 C 26,4 C 9,7 km/h (2 Bft) 97,87 %
09.09.2016 14:38 26,4 C 59 % 1015,0 hPa 0,0 l/m 5,0 km/h (1 Bft) O-NO 57 2 min 0,000 mm 3,5 UV-I 623 W/m 17,7 C 26,4 C 8,0 km/h (2 Bft) 97,87 %
09.09.2016 14:40 26,5 C 64 % 1015,0 hPa 0,0 l/m 7,3 km/h (2 Bft) N-NO 13 2 min 0,000 mm 3,5 UV-I 619 W/m 19,1 C 26,3 C 11,3 km/h (2 Bft) 100,00 %
09.09.2016 14:42 26,6 C 62 % 1015,0 hPa 0,0 l/m 2,5 km/h (1 Bft) N 360 2 min 0,000 mm 3,4 UV-I 617 W/m 18,7 C 26,6 C 4,8 km/h (1 Bft) 98,11 %
09.09.2016 14:44 26,5 C 59 % 1015,0 hPa 0,0 l/m 3,1 km/h (1 Bft) N-NO 19 2 min 0,000 mm 3,4 UV-I 614 W/m 17,8 C 26,5 C 6,4 km/h (2 Bft) 100,00 %
09.09.2016 14:46 26,3 C 58 % 1015,0 hPa 0,0 l/m 1,7 km/h (1 Bft) N-NO 19 2 min 0,000 mm 3,4 UV-I 611 W/m 17,4 C 26,3 C 4,8 km/h (1 Bft) 100,00 %
09.09.2016 14:48 26,4 C 61 % 1015,0 hPa 0,0 l/m 0,7 km/h (0 Bft) N-NO 20 2 min 0,000 mm 3,3 UV-I 607 W/m 18,3 C 26,4 C 1,6 km/h (1 Bft) 100,00 %
09.09.2016 14:50 26,6 C 59 % 1015,0 hPa 0,0 l/m 2,7 km/h (1 Bft) NW 304 2 min 0,000 mm 3,3 UV-I 606 W/m 17,9 C 26,6 C 4,8 km/h (1 Bft) 100,00 %
09.09.2016 14:52 26,7 C 59 % 1014,9 hPa 0,0 l/m 2,2 km/h (1 Bft) NW 304 2 min 0,000 mm 3,3 UV-I 603 W/m 18,0 C 26,7 C 3,2 km/h (1 Bft) 100,00 %
09.09.2016 14:54 26,6 C 58 % 1014,9 hPa 0,0 l/m 1,2 km/h (1 Bft) NW 304 2 min 0,000 mm 3,2 UV-I 601 W/m 17,6 C 26,6 C 3,2 km/h (1 Bft) 100,00 %
09.09.2016 14:56 26,6 C 58 % 1014,9 hPa 0,0 l/m 2,2 km/h (1 Bft) W-NW 297 2 min 0,000 mm 3,2 UV-I 601 W/m 17,6 C 26,6 C 4,8 km/h (1 Bft) 100,00 %
09.09.2016 14:58 26,6 C 58 % 1015,0 hPa 0,0 l/m 3,8 km/h (1 Bft) W-SW 256 2 min 0,000 mm 3,2 UV-I 600 W/m 17,6 C 26,6 C 9,7 km/h (2 Bft) 100,00 %
09.09.2016 15:00 26,5 C 57 % 1014,9 hPa 0,0 l/m 3,7 km/h (1 Bft) SW 227 2 min 0,432 mm 3,2 UV-I 598 W/m 17,3 C 26,5 C 6,4 km/h (2 Bft) 100,00 %
09.09.2016 15:02 26,7 C 60 % 1014,9 hPa 0,0 l/m 2,8 km/h (1 Bft) SW 217 2 min 0,000 mm 3,1 UV-I 593 W/m 18,3 C 26,7 C 4,8 km/h (1 Bft) 100,00 %
09.09.2016 15:04 26,8 C 57 % 1014,9 hPa 0,0 l/m 3,4 km/h (1 Bft) S-SO 167 2 min 0,000 mm 3,1 UV-I 589 W/m 17,6 C 26,8 C 6,4 km/h (2 Bft) 100,00 %
09.09.2016 15:06 27,0 C 57 % 1014,9 hPa 0,0 l/m 2,9 km/h (1 Bft) S-SO 166 2 min 0,000 mm 3,1 UV-I 587 W/m 17,7 C 27,0 C 6,4 km/h (2 Bft) 100,00 %
09.09.2016 15:08 26,8 C 57 % 1014,8 hPa 0,0 l/m 2,7 km/h (1 Bft) S-SO 166 2 min 0,000 mm 3,0 UV-I 588 W/m 17,6 C 26,8 C 4,8 km/h (1 Bft) 100,00 %
09.09.2016 15:10 26,8 C 60 % 1014,8 hPa 0,0 l/m 1,5 km/h (1 Bft) S-SO 166 2 min 0,000 mm 3,0 UV-I 585 W/m 18,4 C 26,8 C 4,8 km/h (1 Bft) 100,00 %
09.09.2016 15:12 26,9 C 57 % 1014,8 hPa 0,0 l/m 1,7 km/h (1 Bft) S-SO 166 2 min 0,000 mm 3,0 UV-I 584 W/m 17,6 C 26,9 C 4,8 km/h (1 Bft) 100,00 %
09.09.2016 15:14 26,9 C 56 % 1014,8 hPa 0,0 l/m 1,5 km/h (1 Bft) S-SO 166 2 min 0,000 mm 3,0 UV-I 582 W/m 17,4 C 26,9 C 4,8 km/h (1 Bft) 100,00 %
09.09.2016 15:16 27,1 C 54 % 1014,8 hPa 0,0 l/m 3,0 km/h (1 Bft) W-SW 238 2 min 0,000 mm 2,9 UV-I 577 W/m 17,0 C 27,1 C 6,4 km/h (2 Bft) 100,00 %
09.09.2016 15:18 27,2 C 57 % 1014,8 hPa 0,0 l/m 2,0 km/h (1 Bft) S-SW 203 2 min 0,000 mm 2,9 UV-I 572 W/m 17,9 C 27,2 C 4,8 km/h (1 Bft) 100,00 %
09.09.2016 15:20 27,4 C 54 % 1014,8 hPa 0,0 l/m 1,4 km/h (1 Bft) S 191 2 min 0,000 mm 2,8 UV-I 567 W/m 17,3 C 27,4 C 3,2 km/h (1 Bft) 100,00 %
09.09.2016 15:22 27,5 C 53 % 1014,8 hPa 0,0 l/m 1,4 km/h (1 Bft) S 180 2 min 0,000 mm 2,8 UV-I 564 W/m 17,0 C 27,5 C 3,2 km/h (1 Bft) 98,00 %
09.09.2016 15:24 27,6 C 58 % 1014,7 hPa 0,0 l/m 1,9 km/h (1 Bft) S 187 2 min 0,000 mm 2,7 UV-I 558 W/m 18,6 C 27,6 C 3,2 km/h (1 Bft) 95,74 %
09.09.2016 15:26 27,8 C 53 % 1014,7 hPa 0,0 l/m 2,6 km/h (1 Bft) S 182 2 min 0,000 mm 2,7 UV-I 554 W/m 17,3 C 27,8 C 4,8 km/h (1 Bft) 98,00 %
09.09.2016 15:28 27,9 C 51 % 1014,7 hPa 0,0 l/m 2,8 km/h (1 Bft) S-SO 161 2 min 0,000 mm 2,6 UV-I 550 W/m 16,8 C 27,9 C 8,0 km/h (2 Bft) 96,00 %
09.09.2016 15:30 27,8 C 51 % 1014,7 hPa 0,0 l/m 1,1 km/h (1 Bft) S-SO 161 2 min 0,000 mm 2,6 UV-I 549 W/m 16,7 C 27,8 C 1,6 km/h (1 Bft) 97,56 %
09.09.2016 15:32 27,7 C 54 % 1014,7 hPa 0,0 l/m 1,9 km/h (1 Bft) S-SW 200 2 min 0,000 mm 2,4 UV-I 545 W/m 17,5 C 27,7 C 4,8 km/h (1 Bft) 98,00 %
09.09.2016 15:34 27,7 C 56 % 1014,7 hPa 0,0 l/m 2,1 km/h (1 Bft) S-SW 209 2 min 0,000 mm 2,4 UV-I 540 W/m 18,1 C 27,7 C 4,8 km/h (1 Bft) 97,73 %
09.09.2016 15:36 27,6 C 56 % 1014,7 hPa 0,0 l/m 2,8 km/h (1 Bft) SW 229 2 min 0,000 mm 2,5 UV-I 536 W/m 18,0 C 27,6 C 3,2 km/h (1 Bft) 96,00 %
09.09.2016 15:38 27,4 C 56 % 1014,6 hPa 0,0 l/m 1,6 km/h (1 Bft) SW 227 2 min 0,000 mm 2,4 UV-I 531 W/m 17,8 C 27,4 C 3,2 km/h (1 Bft) 97,87 %
09.09.2016 15:40 27,2 C 54 % 1014,5 hPa 0,0 l/m 3,3 km/h (1 Bft) SO 141 2 min 0,000 mm 2,4 UV-I 526 W/m 17,1 C 27,2 C 6,4 km/h (2 Bft) 98,00 %
09.09.2016 15:42 27,2 C 55 % 1014,6 hPa 0,0 l/m 1,6 km/h (1 Bft) SO 141 2 min 0,000 mm 2,4 UV-I 526 W/m 17,4 C 27,2 C 3,2 km/h (1 Bft) 97,37 %
09.09.2016 15:44 27,2 C 55 % 1014,6 hPa 0,0 l/m 1,8 km/h (1 Bft) SO 141 2 min 0,000 mm 2,4 UV-I 520 W/m 17,4 C 27,2 C 3,2 km/h (1 Bft) 96,49 %
09.09.2016 15:46 27,1 C 54 % 1014,5 hPa 0,0 l/m 2,5 km/h (1 Bft) SO 141 2 min 0,000 mm 2,3 UV-I 510 W/m 17,0 C 27,1 C 4,8 km/h (1 Bft) 100,00 %
09.09.2016 15:48 27,2 C 56 % 1014,6 hPa 0,0 l/m 2,1 km/h (1 Bft) O-SO 123 2 min 0,000 mm 2,3 UV-I 504 W/m 17,6 C 27,2 C 4,8 km/h (1 Bft) 97,56 %
09.09.2016 15:50 27,3 C 54 % 1014,5 hPa 0,0 l/m 1,5 km/h (1 Bft) O-SO 123 2 min 0,000 mm 2,2 UV-I 499 W/m 17,2 C 27,3 C 3,2 km/h (1 Bft) 93,62 %
09.09.2016 15:52 27,2 C 56 % 1014,6 hPa 0,0 l/m 2,6 km/h (1 Bft) O-SO 121 2 min 0,000 mm 2,2 UV-I 501 W/m 17,6 C 27,2 C 4,8 km/h (1 Bft) 100,00 %
09.09.2016 15:54 27,2 C 54 % 1014,5 hPa 0,0 l/m 1,6 km/h (1 Bft) O-SO 113 2 min 0,000 mm 2,2 UV-I 498 W/m 17,1 C 27,2 C 3,2 km/h (1 Bft) 97,01 %
09.09.2016 15:56 27,2 C 54 % 1014,5 hPa 0,0 l/m 1,4 km/h (1 Bft) O-SO 110 2 min 0,000 mm 2,2 UV-I 494 W/m 17,1 C 27,2 C 3,2 km/h (1 Bft) 100,00 %
09.09.2016 15:58 27,1 C 55 % 1014,4 hPa 0,0 l/m 4,7 km/h (1 Bft) N-NO 17 2 min 0,000 mm 2,1 UV-I 490 W/m 17,3 C 27,1 C 6,4 km/h (2 Bft) 98,11 %
09.09.2016 16:00 27,2 C 56 % 1014,4 hPa 0,0 l/m 6,1 km/h (2 Bft) N-NO 15 2 min 0,381 mm 2,1 UV-I 487 W/m 17,6 C 27,2 C 8,0 km/h (2 Bft) 97,56 %
09.09.2016 16:02 27,2 C 56 % 1014,4 hPa 0,0 l/m 3,2 km/h (1 Bft) N-NO 15 2 min 0,000 mm 2,1 UV-I 485 W/m 17,6 C 27,2 C 6,4 km/h (2 Bft) 100,00 %
09.09.2016 16:04 27,1 C 55 % 1014,4 hPa 0,0 l/m 1,1 km/h (1 Bft) N 360 2 min 0,000 mm 2,0 UV-I 483 W/m 17,3 C 27,1 C 3,2 km/h (1 Bft) 100,00 %
09.09.2016 16:06 27,2 C 55 % 1014,4 hPa 0,0 l/m 1,5 km/h (1 Bft) N-NW 348 2 min 0,000 mm 2,0 UV-I 480 W/m 17,4 C 27,2 C 3,2 km/h (1 Bft) 98,00 %
09.09.2016 16:08 27,2 C 55 % 1014,4 hPa 0,0 l/m 1,2 km/h (1 Bft) N-NO 16 2 min 0,000 mm 2,0 UV-I 475 W/m 17,4 C 27,2 C 4,8 km/h (1 Bft) 100,00 %
09.09.2016 16:10 27,3 C 56 % 1014,4 hPa 0,0 l/m 1,8 km/h (1 Bft) N-NO 19 2 min 0,000 mm 1,9 UV-I 467 W/m 17,7 C 27,3 C 6,4 km/h (2 Bft) 98,00 %
09.09.2016 16:12 27,3 C 56 % 1014,4 hPa 0,0 l/m 2,3 km/h (1 Bft) N 5 2 min 0,000 mm 1,9 UV-I 462 W/m 17,7 C 27,3 C 6,4 km/h (2 Bft) 100,00 %
09.09.2016 16:14 27,3 C 54 % 1014,4 hPa 0,0 l/m 0,9 km/h (0 Bft) N 5 2 min 0,000 mm 1,8 UV-I 456 W/m 17,2 C 27,3 C 3,2 km/h (1 Bft) 100,00 %
09.09.2016 16:16 27,3 C 54 % 1014,3 hPa 0,0 l/m 1,8 km/h (1 Bft) N 5 2 min 0,000 mm 1,8 UV-I 453 W/m 17,2 C 27,3 C 3,2 km/h (1 Bft) 97,14 %
09.09.2016 16:18 27,3 C 57 % 1014,4 hPa 0,0 l/m 0,9 km/h (0 Bft) N 5 2 min 0,000 mm 1,8 UV-I 448 W/m 18,0 C 27,3 C 3,2 km/h (1 Bft) 100,00 %
09.09.2016 16:20 27,3 C 55 % 1014,4 hPa 0,0 l/m 0,9 km/h (0 Bft) N 5 2 min 0,000 mm 1,7 UV-I 445 W/m 17,4 C 27,3 C 3,2 km/h (1 Bft) 98,00 %
09.09.2016 16:22 27,3 C 53 % 1014,4 hPa 0,0 l/m 2,2 km/h (1 Bft) N 5 2 min 0,000 mm 1,7 UV-I 441 W/m 16,9 C 27,3 C 3,2 km/h (1 Bft) 100,00 %
09.09.2016 16:24 27,3 C 54 % 1014,4 hPa 0,0 l/m 1,2 km/h (1 Bft) N 5 2 min 0,000 mm 1,7 UV-I 439 W/m 17,2 C 27,3 C 3,2 km/h (1 Bft) 97,37 %
09.09.2016 16:26 27,4 C 53 % 1014,4 hPa 0,0 l/m 1,5 km/h (1 Bft) N-NW 344 2 min 0,000 mm 1,6 UV-I 435 W/m 17,0 C 27,4 C 3,2 km/h (1 Bft) 100,00 %
09.09.2016 16:28 27,3 C 53 % 1014,4 hPa 0,0 l/m 2,0 km/h (1 Bft) O-SO 112 2 min 0,000 mm 1,6 UV-I 427 W/m 16,9 C 27,3 C 3,2 km/h (1 Bft) 100,00 %
09.09.2016 16:30 27,2 C 52 % 1014,3 hPa 0,0 l/m 1,2 km/h (1 Bft) O-SO 112 2 min 0,000 mm 1,5 UV-I 421 W/m 16,5 C 27,2 C 3,2 km/h (1 Bft) 100,00 %
09.09.2016 16:32 27,1 C 52 % 1014,4 hPa 0,0 l/m 1,1 km/h (1 Bft) O-SO 113 2 min 0,000 mm 1,5 UV-I 415 W/m 16,4 C 27,1 C 3,2 km/h (1 Bft) 97,87 %
09.09.2016 16:34 27,1 C 51 % 1014,3 hPa 0,0 l/m 2,3 km/h (1 Bft) O-SO 115 2 min 0,000 mm 1,5 UV-I 406 W/m 16,1 C 27,1 C 3,2 km/h (1 Bft) 97,44 %
09.09.2016 16:36 27,1 C 52 % 1014,3 hPa 0,0 l/m 0,5 km/h (0 Bft) O-SO 115 2 min 0,000 mm 1,4 UV-I 399 W/m 16,4 C 27,1 C 1,6 km/h (1 Bft) 100,00 %
09.09.2016 16:38 27,2 C 52 % 1014,4 hPa 0,0 l/m 0,6 km/h (0 Bft) O-SO 115 2 min 0,000 mm 1,4 UV-I 395 W/m 16,5 C 27,2 C 1,6 km/h (1 Bft) 100,00 %
09.09.2016 16:40 27,3 C 52 % 1014,3 hPa 0,0 l/m 1,7 km/h (1 Bft) O 101 2 min 0,000 mm 1,3 UV-I 392 W/m 16,6 C 27,3 C 3,2 km/h (1 Bft) 100,00 %
09.09.2016 16:42 27,3 C 51 % 1014,3 hPa 0,0 l/m 1,2 km/h (1 Bft) NO 40 2 min 0,000 mm 1,3 UV-I 382 W/m 16,3 C 27,3 C 3,2 km/h (1 Bft) 100,00 %
09.09.2016 16:44 27,2 C 52 % 1014,3 hPa 0,0 l/m 1,2 km/h (1 Bft) NO 36 2 min 0,000 mm 1,3 UV-I 377 W/m 16,5 C 27,2 C 3,2 km/h (1 Bft) 100,00 %
09.09.2016 16:46 27,2 C 50 % 1014,3 hPa 0,0 l/m 0,4 km/h (0 Bft) NO 36 2 min 0,000 mm 1,2 UV-I 369 W/m 15,9 C 27,2 C 1,6 km/h (1 Bft) 100,00 %
09.09.2016 16:48 27,2 C 52 % 1014,2 hPa 0,0 l/m 0,7 km/h (0 Bft) NO 36 2 min 0,000 mm 1,2 UV-I 365 W/m 16,5 C 27,2 C 1,6 km/h (1 Bft) 98,11 %
09.09.2016 16:50 27,3 C 52 % 1014,3 hPa 0,0 l/m 1,0 km/h (0 Bft) NO 36 2 min 0,000 mm 1,2 UV-I 361 W/m 16,6 C 27,3 C 3,2 km/h (1 Bft) 100,00 %
09.09.2016 16:52 27,3 C 54 % 1014,3 hPa 0,0 l/m 1,1 km/h (1 Bft) NO 34 2 min 0,000 mm 1,1 UV-I 357 W/m 17,2 C 27,3 C 3,2 km/h (1 Bft) 100,00 %
09.09.2016 16:54 27,4 C 54 % 1014,3 hPa 0,0 l/m 0,4 km/h (0 Bft) NO 34 2 min 0,000 mm 1,1 UV-I 352 W/m 17,3 C 27,4 C 3,2 km/h (1 Bft) 100,00 %
09.09.2016 16:56 27,4 C 54 % 1014,2 hPa 0,0 l/m 1,2 km/h (1 Bft) NO 34 2 min 0,000 mm 1,1 UV-I 350 W/m 17,3 C 27,4 C 3,2 km/h (1 Bft) 100,00 %
09.09.2016 16:58 27,3 C 53 % 1014,3 hPa 0,0 l/m 0,8 km/h (0 Bft) N-NO 32 2 min 0,000 mm 1,1 UV-I 343 W/m 16,9 C 27,3 C 3,2 km/h (1 Bft) 100,00 %
09.09.2016 17:00 27,3 C 54 % 1014,3 hPa 0,0 l/m 1,1 km/h (1 Bft) N-NO 31 2 min 0,000 mm 1,0 UV-I 338 W/m 17,2 C 27,3 C 1,6 km/h (1 Bft) 100,00 %
09.09.2016 17:02 27,3 C 54 % 1014,2 hPa 0,0 l/m 0,5 km/h (0 Bft) N 5 2 min 0,280 mm 1,0 UV-I 331 W/m 17,2 C 27,3 C 3,2 km/h (1 Bft) 100,00 %
09.09.2016 17:04 27,1 C 53 % 1014,2 hPa 0,0 l/m 1,5 km/h (1 Bft) N 355 2 min 0,000 mm 0,9 UV-I 324 W/m 16,7 C 27,1 C 4,8 km/h (1 Bft) 100,00 %
09.09.2016 17:06 27,1 C 54 % 1014,2 hPa 0,0 l/m 1,4 km/h (1 Bft) N 355 2 min 0,000 mm 0,9 UV-I 320 W/m 17,0 C 27,1 C 3,2 km/h (1 Bft) 100,00 %
09.09.2016 17:08 26,9 C 53 % 1014,2 hPa 0,0 l/m 0,9 km/h (0 Bft) N 355 2 min 0,000 mm 0,9 UV-I 315 W/m 16,5 C 26,9 C 3,2 km/h (1 Bft) 100,00 %
09.09.2016 17:10 26,9 C 53 % 1014,2 hPa 0,0 l/m 0,7 km/h (0 Bft) N 355 2 min 0,000 mm 0,9 UV-I 311 W/m 16,5 C 26,9 C 1,6 km/h (1 Bft) 100,00 %
09.09.2016 17:12 26,8 C 54 % 1014,2 hPa 0,0 l/m 1,5 km/h (1 Bft) N 355 2 min 0,000 mm 0,8 UV-I 306 W/m 16,7 C 26,8 C 3,2 km/h (1 Bft) 95,92 %
09.09.2016 17:14 26,8 C 53 % 1014,1 hPa 0,0 l/m 1,0 km/h (0 Bft) N 355 2 min 0,000 mm 0,8 UV-I 299 W/m 16,4 C 26,8 C 1,6 km/h (1 Bft) 97,44 %
09.09.2016 17:16 26,8 C 53 % 1014,2 hPa 0,0 l/m 0,7 km/h (0 Bft) N 355 2 min 0,000 mm 0,8 UV-I 290 W/m 16,4 C 26,8 C 1,6 km/h (1 Bft) 97,96 %
09.09.2016 17:18 26,9 C 54 % 1014,2 hPa 0,0 l/m 0,3 km/h (0 Bft) N 355 2 min 0,000 mm 0,7 UV-I 279 W/m 16,8 C 26,9 C 1,6 km/h (1 Bft) 97,87 %
09.09.2016 17:20 27,1 C 54 % 1014,2 hPa 0,0 l/m 0,8 km/h (0 Bft) N 355 2 min 0,000 mm 0,7 UV-I 269 W/m 17,0 C 27,1 C 3,2 km/h (1 Bft) 97,87 %
09.09.2016 17:22 27,1 C 55 % 1014,2 hPa 0,0 l/m 2,2 km/h (1 Bft) N 11 2 min 0,000 mm 0,7 UV-I 264 W/m 17,3 C 27,1 C 4,8 km/h (1 Bft) 97,87 %
09.09.2016 17:24 27,1 C 55 % 1014,2 hPa 0,0 l/m 2,9 km/h (1 Bft) N 5 2 min 0,000 mm 0,7 UV-I 256 W/m 17,3 C 27,1 C 4,8 km/h (1 Bft) 96,00 %
09.09.2016 17:26 26,9 C 55 % 1014,2 hPa 0,0 l/m 4,1 km/h (1 Bft) N-NO 22 2 min 0,000 mm 0,6 UV-I 243 W/m 17,1 C 26,9 C 6,4 km/h (2 Bft) 96,00 %
09.09.2016 17:28 26,9 C 56 % 1014,2 hPa 0,0 l/m 2,7 km/h (1 Bft) N-NO 20 2 min 0,000 mm 0,6 UV-I 229 W/m 17,4 C 26,9 C 4,8 km/h (1 Bft) 95,45 %
09.09.2016 17:30 26,9 C 57 % 1014,2 hPa 0,0 l/m 1,2 km/h (1 Bft) N-NO 17 2 min 0,000 mm 0,6 UV-I 225 W/m 17,6 C 26,9 C 3,2 km/h (1 Bft) 97,56 %
09.09.2016 17:32 26,9 C 56 % 1014,3 hPa 0,0 l/m 1,4 km/h (1 Bft) N-NO 17 2 min 0,000 mm 0,6 UV-I 216 W/m 17,4 C 26,9 C 3,2 km/h (1 Bft) 96,00 %
09.09.2016 17:34 26,9 C 58 % 1014,3 hPa 0,0 l/m 1,4 km/h (1 Bft) N 360 2 min 0,000 mm 0,5 UV-I 205 W/m 17,9 C 26,9 C 3,2 km/h (1 Bft) 98,00 %
09.09.2016 17:36 26,8 C 57 % 1014,3 hPa 0,0 l/m 0,8 km/h (0 Bft) N-NW 343 2 min 0,000 mm 0,5 UV-I 200 W/m 17,6 C 26,8 C 3,2 km/h (1 Bft) 97,87 %
09.09.2016 17:38 26,7 C 58 % 1014,3 hPa 0,0 l/m 1,0 km/h (0 Bft) N-NW 342 2 min 0,000 mm 0,5 UV-I 194 W/m 17,7 C 26,7 C 3,2 km/h (1 Bft) 97,37 %
09.09.2016 17:40 26,6 C 58 % 1014,3 hPa 0,0 l/m 0,9 km/h (0 Bft) N-NW 342 2 min 0,000 mm 0,5 UV-I 181 W/m 17,6 C 26,6 C 1,6 km/h (1 Bft) 98,21 %
09.09.2016 17:42 26,5 C 59 % 1014,3 hPa 0,0 l/m 0,1 km/h (0 Bft) N-NW 342 2 min 0,000 mm 0,5 UV-I 176 W/m 17,8 C 26,5 C 1,6 km/h (1 Bft) 100,00 %
09.09.2016 17:44 26,4 C 59 % 1014,3 hPa 0,0 l/m 1,3 km/h (1 Bft) N-NW 342 2 min 0,000 mm 0,1 UV-I 159 W/m 17,7 C 26,4 C 3,2 km/h (1 Bft) 100,00 %
09.09.2016 17:46 26,4 C 59 % 1014,3 hPa 0,0 l/m 0,6 km/h (0 Bft) N-NW 342 0 min 0,000 mm 0,0 UV-I 121 W/m 17,7 C 26,4 C 1,6 km/h (1 Bft) 100,00 %
09.09.2016 17:48 26,3 C 57 % 1014,3 hPa 0,0 l/m 0,5 km/h (0 Bft) N-NW 342 0 min 0,000 mm 0,0 UV-I 105 W/m 17,1 C 26,3 C 1,6 km/h (1 Bft) 100,00 %
09.09.2016 17:50 26,3 C 58 % 1014,3 hPa 0,0 l/m 1,1 km/h (1 Bft) N-NW 342 0 min 0,000 mm 0,0 UV-I 60 W/m 17,4 C 26,3 C 3,2 km/h (1 Bft) 100,00 %
09.09.2016 17:52 26,2 C 59 % 1014,3 hPa 0,0 l/m 0,2 km/h (0 Bft) N-NW 342 0 min 0,000 mm 0,0 UV-I 72 W/m 17,5 C 26,2 C 1,6 km/h (1 Bft) 100,00 %
09.09.2016 17:54 26,0 C 60 % 1014,3 hPa 0,0 l/m 0,1 km/h (0 Bft) N-NW 342 0 min 0,000 mm 0,0 UV-I 71 W/m 17,6 C 26,0 C 1,6 km/h (1 Bft) 100,00 %
09.09.2016 17:56 25,9 C 61 % 1014,4 hPa 0,0 l/m 0,3 km/h (0 Bft) N-NW 342 0 min 0,000 mm 0,0 UV-I 85 W/m 17,8 C 25,9 C 1,6 km/h (1 Bft) 100,00 %
09.09.2016 17:58 25,8 C 61 % 1014,4 hPa 0,0 l/m 0,0 km/h (0 Bft) N-NW 342 0 min 0,000 mm 0,0 UV-I 71 W/m 17,7 C 25,8 C 0,0 km/h (0 Bft) 100,00 %
09.09.2016 18:00 25,7 C 60 % 1014,4 hPa 0,0 l/m 0,1 km/h (0 Bft) N-NW 342 0 min 0,152 mm 0,0 UV-I 75 W/m 17,3 C 25,7 C 1,6 km/h (1 Bft) 100,00 %
09.09.2016 18:02 25,7 C 61 % 1014,4 hPa 0,0 l/m 0,0 km/h (0 Bft) N-NW 342 0 min 0,000 mm 0,0 UV-I 57 W/m 17,6 C 25,7 C 1,6 km/h (1 Bft) 100,00 %
09.09.2016 18:04 25,6 C 61 % 1014,4 hPa 0,0 l/m 0,1 km/h (0 Bft) N-NW 342 0 min 0,000 mm 0,0 UV-I 67 W/m 17,5 C 25,6 C 1,6 km/h (1 Bft) 97,87 %
09.09.2016 18:06 25,7 C 62 % 1014,4 hPa 0,0 l/m 0,2 km/h (0 Bft) N-NW 342 0 min 0,000 mm 0,0 UV-I 91 W/m 17,9 C 25,7 C 1,6 km/h (1 Bft) 97,87 %
09.09.2016 18:08 25,7 C 61 % 1014,4 hPa 0,0 l/m 0,9 km/h (0 Bft) N-NW 342 0 min 0,000 mm 0,0 UV-I 80 W/m 17,6 C 25,7 C 1,6 km/h (1 Bft) 100,00 %
09.09.2016 18:10 25,7 C 63 % 1014,4 hPa 0,0 l/m 1,1 km/h (1 Bft) N-NW 342 0 min 0,000 mm 0,0 UV-I 51 W/m 18,1 C 25,7 C 3,2 km/h (1 Bft) 100,00 %
09.09.2016 18:12 25,4 C 68 % 1014,4 hPa 0,0 l/m 0,4 km/h (0 Bft) N-NW 342 0 min 0,000 mm 0,0 UV-I 49 W/m 19,1 C 25,4 C 1,6 km/h (1 Bft) 100,00 %
09.09.2016 18:14 25,1 C 69 % 1014,4 hPa 0,0 l/m 0,8 km/h (0 Bft) N-NW 342 0 min 0,000 mm 0,0 UV-I 50 W/m 19,0 C 25,1 C 3,2 km/h (1 Bft) 100,00 %
09.09.2016 18:16 24,8 C 71 % 1014,4 hPa 0,0 l/m 0,9 km/h (0 Bft) N-NW 342 0 min 0,000 mm 0,0 UV-I 71 W/m 19,2 C 24,8 C 1,6 km/h (1 Bft) 100,00 %
09.09.2016 18:18 24,5 C 72 % 1014,4 hPa 0,0 l/m 1,5 km/h (1 Bft) N-NW 342 0 min 0,000 mm 0,0 UV-I 94 W/m 19,1 C 24,5 C 3,2 km/h (1 Bft) 97,87 %
09.09.2016 18:20 24,4 C 73 % 1014,4 hPa 0,0 l/m 1,0 km/h (0 Bft) N-NW 342 0 min 0,000 mm 0,0 UV-I 95 W/m 19,2 C 24,4 C 1,6 km/h (1 Bft) 98,00 %
09.09.2016 18:22 24,3 C 73 % 1014,4 hPa 0,0 l/m 0,5 km/h (0 Bft) N-NW 342 0 min 0,000 mm 0,0 UV-I 92 W/m 19,1 C 24,3 C 1,6 km/h (1 Bft) 100,00 %
09.09.2016 18:24 24,3 C 72 % 1014,4 hPa 0,0 l/m 0,2 km/h (0 Bft) N-NW 342 0 min 0,000 mm 0,0 UV-I 88 W/m 18,9 C 24,3 C 1,6 km/h (1 Bft) 97,87 %
09.09.2016 18:26 24,3 C 73 % 1014,4 hPa 0,0 l/m 0,6 km/h (0 Bft) N-NW 342 0 min 0,000 mm 0,0 UV-I 82 W/m 19,1 C 24,3 C 1,6 km/h (1 Bft) 100,00 %
09.09.2016 18:28 24,3 C 72 % 1014,4 hPa 0,0 l/m 0,7 km/h (0 Bft) N-NW 342 0 min 0,000 mm 0,0 UV-I 78 W/m 18,9 C 24,3 C 1,6 km/h (1 Bft) 100,00 %
09.09.2016 18:30 24,3 C 72 % 1014,3 hPa 0,0 l/m 1,0 km/h (0 Bft) N-NW 342 0 min 0,000 mm 0,0 UV-I 76 W/m 18,9 C 24,3 C 1,6 km/h (1 Bft) 97,87 %
09.09.2016 18:32 24,3 C 72 % 1014,3 hPa 0,0 l/m 0,3 km/h (0 Bft) N-NW 342 0 min 0,000 mm 0,0 UV-I 72 W/m 18,9 C 24,3 C 1,6 km/h (1 Bft) 100,00 %
09.09.2016 18:34 24,2 C 73 % 1014,4 hPa 0,0 l/m 0,1 km/h (0 Bft) N-NW 342 0 min 0,000 mm 0,0 UV-I 69 W/m 19,0 C 24,2 C 1,6 km/h (1 Bft) 98,39 %
09.09.2016 18:36 24,2 C 73 % 1014,4 hPa 0,0 l/m 0,0 km/h (0 Bft) N-NW 342 0 min 0,000 mm 0,0 UV-I 64 W/m 19,0 C 24,2 C 0,0 km/h (0 Bft) 100,00 %
09.09.2016 18:38 24,1 C 73 % 1014,4 hPa 0,0 l/m 0,0 km/h (0 Bft) N-NW 342 0 min 0,000 mm 0,0 UV-I 60 W/m 18,9 C 24,1 C 0,0 km/h (0 Bft) 100,00 %
09.09.2016 18:40 24,1 C 73 % 1014,4 hPa 0,0 l/m 0,0 km/h (0 Bft) N-NW 342 0 min 0,000 mm 0,0 UV-I 56 W/m 18,9 C 24,1 C 0,0 km/h (0 Bft) 100,00 %
09.09.2016 18:42 24,1 C 73 % 1014,4 hPa 0,0 l/m 0,0 km/h (0 Bft) N-NW 342 0 min 0,000 mm 0,0 UV-I 53 W/m 18,9 C 24,1 C 1,6 km/h (1 Bft) 100,00 %
09.09.2016 18:44 24,0 C 72 % 1014,4 hPa 0,0 l/m 0,0 km/h (0 Bft) N-NW 342 0 min 0,000 mm 0,0 UV-I 51 W/m 18,6 C 24,0 C 0,0 km/h (0 Bft) 97,87 %
09.09.2016 18:46 23,9 C 74 % 1014,4 hPa 0,0 l/m 0,0 km/h (0 Bft) N-NW 342 0 min 0,000 mm 0,0 UV-I 47 W/m 19,0 C 23,9 C 0,0 km/h (0 Bft) 97,56 %
09.09.2016 18:48 23,8 C 75 % 1014,4 hPa 0,0 l/m 0,0 km/h (0 Bft) N-NW 342 0 min 0,000 mm 0,0 UV-I 39 W/m 19,1 C 23,8 C 0,0 km/h (0 Bft) 100,00 %
09.09.2016 18:50 23,7 C 73 % 1014,4 hPa 0,0 l/m 0,0 km/h (0 Bft) N-NW 342 0 min 0,000 mm 0,0 UV-I 31 W/m 18,6 C 23,7 C 0,0 km/h (0 Bft) 100,00 %
09.09.2016 18:52 23,7 C 73 % 1014,4 hPa 0,0 l/m 0,0 km/h (0 Bft) N-NW 342 0 min 0,000 mm 0,0 UV-I 30 W/m 18,6 C 23,7 C 0,0 km/h (0 Bft) 97,87 %
09.09.2016 18:54 23,6 C 72 % 1014,4 hPa 0,0 l/m 0,0 km/h (0 Bft) N-NW 342 0 min 0,000 mm 0,0 UV-I 28 W/m 18,2 C 23,6 C 0,0 km/h (0 Bft) 98,00 %
09.09.2016 18:56 23,5 C 72 % 1014,4 hPa 0,0 l/m 0,0 km/h (0 Bft) N-NW 342 0 min 0,000 mm 0,0 UV-I 27 W/m 18,2 C 23,5 C 0,0 km/h (0 Bft) 100,00 %
09.09.2016 18:58 23,5 C 73 % 1014,4 hPa 0,0 l/m 0,0 km/h (0 Bft) N-NW 342 0 min 0,000 mm 0,0 UV-I 26 W/m 18,4 C 23,5 C 0,0 km/h (0 Bft) 95,74 %
09.09.2016 19:00 23,4 C 74 % 1014,4 hPa 0,0 l/m 0,0 km/h (0 Bft) N-NW 342 0 min 0,000 mm 0,0 UV-I 25 W/m 18,5 C 23,4 C 0,0 km/h (0 Bft) 97,87 %
09.09.2016 19:02 23,3 C 74 % 1014,4 hPa 0,0 l/m 0,0 km/h (0 Bft) N-NW 342 0 min 0,051 mm 0,0 UV-I 23 W/m 18,4 C 23,3 C 0,0 km/h (0 Bft) 97,56 %
09.09.2016 19:04 23,2 C 74 % 1014,4 hPa 0,0 l/m 0,0 km/h (0 Bft) N-NW 342 0 min 0,000 mm 0,0 UV-I 21 W/m 18,3 C 23,2 C 0,0 km/h (0 Bft) 95,74 %
09.09.2016 19:06 23,1 C 75 % 1014,4 hPa 0,0 l/m 1,0 km/h (0 Bft) N-NW 342 0 min 0,000 mm 0,0 UV-I 20 W/m 18,4 C 23,1 C 3,2 km/h (1 Bft) 98,00 %
09.09.2016 19:08 22,9 C 75 % 1014,4 hPa 0,0 l/m 1,9 km/h (1 Bft) N-NW 342 0 min 0,000 mm 0,0 UV-I 19 W/m 18,2 C 22,9 C 3,2 km/h (1 Bft) 97,62 %
09.09.2016 19:10 22,7 C 77 % 1014,3 hPa 0,0 l/m 2,3 km/h (1 Bft) N-NW 342 0 min 0,000 mm 0,0 UV-I 18 W/m 18,5 C 22,7 C 3,2 km/h (1 Bft) 98,08 %
09.09.2016 19:12 22,5 C 77 % 1014,4 hPa 0,0 l/m 3,2 km/h (1 Bft) N-NW 348 0 min 0,000 mm 0,0 UV-I 16 W/m 18,3 C 22,5 C 3,2 km/h (1 Bft) 94,44 %
09.09.2016 19:14 22,4 C 77 % 1014,4 hPa 0,0 l/m 3,0 km/h (1 Bft) N 355 2 min 0,000 mm 0,0 UV-I 15 W/m 18,2 C 22,4 C 3,2 km/h (1 Bft) 98,00 %
09.09.2016 19:16 22,3 C 77 % 1014,4 hPa 0,0 l/m 2,5 km/h (1 Bft) N 355 2 min 0,000 mm 0,0 UV-I 13 W/m 18,1 C 22,3 C 3,2 km/h (1 Bft) 95,74 %
09.09.2016 19:18 22,2 C 77 % 1014,4 hPa 0,0 l/m 1,7 km/h (1 Bft) N 355 0 min 0,000 mm 0,0 UV-I 11 W/m 18,0 C 22,2 C 3,2 km/h (1 Bft) 98,11 %
09.09.2016 19:20 22,1 C 77 % 1014,4 hPa 0,0 l/m 1,2 km/h (1 Bft) N 355 0 min 0,000 mm 0,0 UV-I 10 W/m 17,9 C 22,1 C 1,6 km/h (1 Bft) 97,37 %
09.09.2016 19:22 22,1 C 77 % 1014,4 hPa 0,0 l/m 0,4 km/h (0 Bft) N 355 0 min 0,000 mm 0,0 UV-I 9 W/m 17,9 C 22,1 C 1,6 km/h (1 Bft) 98,11 %
09.09.2016 19:24 22,1 C 77 % 1014,5 hPa 0,0 l/m 0,0 km/h (0 Bft) N 355 0 min 0,000 mm 0,0 UV-I 7 W/m 17,9 C 22,1 C 0,0 km/h (0 Bft) 96,23 %
09.09.2016 19:26 22,1 C 77 % 1014,5 hPa 0,0 l/m 0,0 km/h (0 Bft) N 355 0 min 0,000 mm 0,0 UV-I 7 W/m 17,9 C 22,1 C 1,6 km/h (1 Bft) 97,37 %
09.09.2016 19:28 22,1 C 77 % 1014,5 hPa 0,0 l/m 0,0 km/h (0 Bft) N 355 0 min 0,000 mm 0,0 UV-I 5 W/m 17,9 C 22,1 C 0,0 km/h (0 Bft) 96,00 %
09.09.2016 19:30 21,9 C 78 % 1014,5 hPa 0,0 l/m 0,1 km/h (0 Bft) N 355 0 min 0,000 mm 0,0 UV-I 5 W/m 17,9 C 21,9 C 1,6 km/h (1 Bft) 97,87 %
09.09.2016 19:32 21,8 C 77 % 1014,5 hPa 0,0 l/m 1,0 km/h (0 Bft) N 355 0 min 0,000 mm 0,0 UV-I 1 W/m 17,6 C 21,8 C 1,6 km/h (1 Bft) 97,87 %
09.09.2016 19:34 21,8 C 77 % 1014,6 hPa 0,0 l/m 1,4 km/h (1 Bft) N 355 0 min 0,000 mm 0,0 UV-I 0 W/m 17,6 C 21,8 C 3,2 km/h (1 Bft) 100,00 %
09.09.2016 19:36 21,9 C 75 % 1014,5 hPa 0,0 l/m 1,7 km/h (1 Bft) N 355 0 min 0,000 mm 0,0 UV-I 0 W/m 17,3 C 21,9 C 3,2 km/h (1 Bft) 97,87 %
09.09.2016 19:38 21,9 C 77 % 1014,6 hPa 0,0 l/m 1,6 km/h (1 Bft) N 355 0 min 0,000 mm 0,0 UV-I 0 W/m 17,7 C 21,9 C 3,2 km/h (1 Bft) 100,00 %
09.09.2016 19:40 21,7 C 78 % 1014,6 hPa 0,0 l/m 1,0 km/h (0 Bft) N 355 0 min 0,000 mm 0,0 UV-I 0 W/m 17,7 C 21,7 C 1,6 km/h (1 Bft) 98,00 %
09.09.2016 19:42 21,6 C 79 % 1014,7 hPa 0,0 l/m 0,0 km/h (0 Bft) N 355 0 min 0,000 mm 0,0 UV-I 0 W/m 17,8 C 21,6 C 0,0 km/h (0 Bft) 100,00 %
09.09.2016 19:44 21,4 C 79 % 1014,7 hPa 0,0 l/m 0,1 km/h (0 Bft) N 355 0 min 0,000 mm 0,0 UV-I 0 W/m 17,6 C 21,4 C 1,6 km/h (1 Bft) 100,00 %
09.09.2016 19:46 21,4 C 79 % 1014,7 hPa 0,0 l/m 0,0 km/h (0 Bft) N 355 0 min 0,000 mm 0,0 UV-I 0 W/m 17,6 C 21,4 C 0,0 km/h (0 Bft) 100,00 %
09.09.2016 19:48 21,4 C 80 % 1014,7 hPa 0,0 l/m 0,0 km/h (0 Bft) N 355 0 min 0,000 mm 0,0 UV-I 0 W/m 17,8 C 21,4 C 1,6 km/h (1 Bft) 100,00 %
09.09.2016 19:50 21,4 C 80 % 1014,7 hPa 0,0 l/m 0,4 km/h (0 Bft) N 355 0 min 0,000 mm 0,0 UV-I 0 W/m 17,8 C 21,4 C 1,6 km/h (1 Bft) 100,00 %
09.09.2016 19:52 21,3 C 81 % 1014,7 hPa 0,0 l/m 1,1 km/h (1 Bft) N 355 0 min 0,000 mm 0,0 UV-I 0 W/m 17,9 C 21,3 C 1,6 km/h (1 Bft) 97,87 %
09.09.2016 19:54 21,2 C 81 % 1014,8 hPa 0,0 l/m 0,8 km/h (0 Bft) N 355 0 min 0,000 mm 0,0 UV-I 0 W/m 17,8 C 21,2 C 1,6 km/h (1 Bft) 100,00 %
09.09.2016 19:56 21,2 C 82 % 1014,8 hPa 0,0 l/m 1,3 km/h (1 Bft) N 355 0 min 0,000 mm 0,0 UV-I 0 W/m 18,0 C 21,2 C 3,2 km/h (1 Bft) 97,37 %
09.09.2016 19:58 21,1 C 82 % 1014,8 hPa 0,0 l/m 2,0 km/h (1 Bft) N 355 0 min 0,000 mm 0,0 UV-I 0 W/m 17,9 C 21,1 C 3,2 km/h (1 Bft) 98,00 %
09.09.2016 20:00 21,1 C 83 % 1014,8 hPa 0,0 l/m 2,3 km/h (1 Bft) N 355 0 min 0,000 mm 0,0 UV-I 0 W/m 18,1 C 21,1 C 3,2 km/h (1 Bft) 100,00 %
09.09.2016 20:02 21,1 C 84 % 1014,8 hPa 0,0 l/m 2,7 km/h (1 Bft) N 355 0 min 0,025 mm 0,0 UV-I 0 W/m 18,3 C 21,1 C 3,2 km/h (1 Bft) 100,00 %
09.09.2016 20:04 21,2 C 84 % 1014,8 hPa 0,0 l/m 2,3 km/h (1 Bft) N 355 0 min 0,000 mm 0,0 UV-I 0 W/m 18,4 C 21,2 C 3,2 km/h (1 Bft) 100,00 %
09.09.2016 20:06 21,1 C 82 % 1014,8 hPa 0,0 l/m 1,6 km/h (1 Bft) N 355 0 min 0,000 mm 0,0 UV-I 0 W/m 17,9 C 21,1 C 3,2 km/h (1 Bft) 100,00 %
09.09.2016 20:08 20,9 C 83 % 1014,9 hPa 0,0 l/m 2,3 km/h (1 Bft) N 355 0 min 0,000 mm 0,0 UV-I 0 W/m 17,9 C 20,9 C 3,2 km/h (1 Bft) 100,00 %
09.09.2016 20:10 20,8 C 83 % 1014,9 hPa 0,0 l/m 1,8 km/h (1 Bft) N 355 0 min 0,000 mm 0,0 UV-I 0 W/m 17,8 C 20,8 C 3,2 km/h (1 Bft) 98,11 %
09.09.2016 20:12 20,7 C 83 % 1014,9 hPa 0,0 l/m 1,7 km/h (1 Bft) N 355 0 min 0,000 mm 0,0 UV-I 0 W/m 17,7 C 20,7 C 3,2 km/h (1 Bft) 100,00 %
09.09.2016 20:14 20,7 C 84 % 1014,9 hPa 0,0 l/m 0,5 km/h (0 Bft) N 355 0 min 0,000 mm 0,0 UV-I 0 W/m 17,9 C 20,7 C 1,6 km/h (1 Bft) 100,00 %
09.09.2016 20:16 20,7 C 83 % 1014,9 hPa 0,0 l/m 0,1 km/h (0 Bft) N 355 0 min 0,000 mm 0,0 UV-I 0 W/m 17,7 C 20,7 C 1,6 km/h (1 Bft) 100,00 %
09.09.2016 20:18 20,7 C 84 % 1014,9 hPa 0,0 l/m 0,3 km/h (0 Bft) N 355 0 min 0,000 mm 0,0 UV-I 0 W/m 17,9 C 20,7 C 1,6 km/h (1 Bft) 100,00 %
09.09.2016 20:20 20,7 C 83 % 1014,9 hPa 0,0 l/m 0,8 km/h (0 Bft) N 355 0 min 0,000 mm 0,0 UV-I 0 W/m 17,7 C 20,7 C 1,6 km/h (1 Bft) 100,00 %
09.09.2016 20:22 20,7 C 83 % 1015,0 hPa 0,0 l/m 1,8 km/h (1 Bft) N 355 0 min 0,000 mm 0,0 UV-I 0 W/m 17,7 C 20,7 C 3,2 km/h (1 Bft) 100,00 %
09.09.2016 20:24 20,6 C 83 % 1014,9 hPa 0,0 l/m 1,8 km/h (1 Bft) N 355 0 min 0,000 mm 0,0 UV-I 0 W/m 17,6 C 20,6 C 3,2 km/h (1 Bft) 98,11 %
09.09.2016 20:26 20,5 C 84 % 1015,0 hPa 0,0 l/m 1,3 km/h (1 Bft) N 355 0 min 0,000 mm 0,0 UV-I 0 W/m 17,7 C 20,5 C 3,2 km/h (1 Bft) 98,00 %
09.09.2016 20:28 20,4 C 84 % 1015,0 hPa 0,0 l/m 1,7 km/h (1 Bft) N 355 0 min 0,000 mm 0,0 UV-I 0 W/m 17,6 C 20,4 C 3,2 km/h (1 Bft) 100,00 %
09.09.2016 20:30 20,4 C 84 % 1015,0 hPa 0,0 l/m 2,1 km/h (1 Bft) N 355 0 min 0,000 mm 0,0 UV-I 0 W/m 17,6 C 20,4 C 3,2 km/h (1 Bft) 100,00 %
09.09.2016 20:32 20,4 C 84 % 1015,0 hPa 0,0 l/m 3,2 km/h (1 Bft) N 355 0 min 0,000 mm 0,0 UV-I 0 W/m 17,6 C 20,4 C 3,2 km/h (1 Bft) 100,00 %
09.09.2016 20:34 20,4 C 84 % 1015,0 hPa 0,0 l/m 2,5 km/h (1 Bft) N 355 0 min 0,000 mm 0,0 UV-I 0 W/m 17,6 C 20,4 C 3,2 km/h (1 Bft) 98,11 %
09.09.2016 20:36 20,3 C 84 % 1015,0 hPa 0,0 l/m 2,5 km/h (1 Bft) N 355 0 min 0,000 mm 0,0 UV-I 0 W/m 17,5 C 20,3 C 3,2 km/h (1 Bft) 100,00 %
09.09.2016 20:38 20,2 C 84 % 1015,0 hPa 0,0 l/m 1,9 km/h (1 Bft) N 355 0 min 0,000 mm 0,0 UV-I 0 W/m 17,4 C 20,2 C 3,2 km/h (1 Bft) 100,00 %
09.09.2016 20:40 20,2 C 84 % 1015,0 hPa 0,0 l/m 1,6 km/h (1 Bft) N 355 0 min 0,000 mm 0,0 UV-I 0 W/m 17,4 C 20,2 C 3,2 km/h (1 Bft) 98,00 %
09.09.2016 20:42 20,1 C 85 % 1015,1 hPa 0,0 l/m 0,7 km/h (0 Bft) N 355 0 min 0,000 mm 0,0 UV-I 0 W/m 17,5 C 20,1 C 1,6 km/h (1 Bft) 100,00 %
09.09.2016 20:44 20,1 C 85 % 1015,1 hPa 0,0 l/m 0,0 km/h (0 Bft) N 355 0 min 0,000 mm 0,0 UV-I 0 W/m 17,5 C 20,1 C 0,0 km/h (0 Bft) 97,87 %
09.09.2016 20:46 20,2 C 85 % 1015,1 hPa 0,0 l/m 0,0 km/h (0 Bft) N 355 0 min 0,000 mm 0,0 UV-I 0 W/m 17,6 C 20,2 C 1,6 km/h (1 Bft) 100,00 %
09.09.2016 20:48 20,2 C 85 % 1015,1 hPa 0,0 l/m 0,0 km/h (0 Bft) N 355 0 min 0,000 mm 0,0 UV-I 0 W/m 17,6 C 20,2 C 0,0 km/h (0 Bft) 100,00 %
09.09.2016 20:50 20,1 C 85 % 1015,2 hPa 0,0 l/m 0,0 km/h (0 Bft) N 355 0 min 0,000 mm 0,0 UV-I 0 W/m 17,5 C 20,1 C 0,0 km/h (0 Bft) 100,00 %
09.09.2016 20:52 20,1 C 85 % 1015,2 hPa 0,0 l/m 0,0 km/h (0 Bft) N 355 0 min 0,000 mm 0,0 UV-I 0 W/m 17,5 C 20,1 C 0,0 km/h (0 Bft) 100,00 %
09.09.2016 20:54 19,9 C 85 % 1015,1 hPa 0,0 l/m 0,0 km/h (0 Bft) N 355 0 min 0,000 mm 0,0 UV-I 0 W/m 17,3 C 19,9 C 0,0 km/h (0 Bft) 100,00 %
09.09.2016 20:56 19,8 C 85 % 1015,2 hPa 0,0 l/m 0,1 km/h (0 Bft) N 355 0 min 0,000 mm 0,0 UV-I 0 W/m 17,2 C 19,8 C 1,6 km/h (1 Bft) 100,00 %
09.09.2016 20:58 19,8 C 85 % 1015,2 hPa 0,0 l/m 0,4 km/h (0 Bft) N 355 0 min 0,000 mm 0,0 UV-I 0 W/m 17,2 C 19,8 C 1,6 km/h (1 Bft) 100,00 %
09.09.2016 21:00 19,7 C 86 % 1015,2 hPa 0,0 l/m 1,0 km/h (0 Bft) N 355 0 min 0,000 mm 0,0 UV-I 0 W/m 17,3 C 19,7 C 1,6 km/h (1 Bft) 98,00 %
09.09.2016 21:02 19,5 C 86 % 1015,1 hPa 0,0 l/m 2,4 km/h (1 Bft) N 355 0 min 0,000 mm 0,0 UV-I 0 W/m 17,1 C 19,5 C 3,2 km/h (1 Bft) 97,50 %
09.09.2016 21:04 19,5 C 85 % 1015,2 hPa 0,0 l/m 2,6 km/h (1 Bft) N 355 0 min 0,000 mm 0,0 UV-I 0 W/m 16,9 C 19,5 C 3,2 km/h (1 Bft) 97,44 %
09.09.2016 21:06 19,6 C 84 % 1015,1 hPa 0,0 l/m 2,6 km/h (1 Bft) N 355 0 min 0,000 mm 0,0 UV-I 0 W/m 16,8 C 19,6 C 3,2 km/h (1 Bft) 98,28 %
09.09.2016 21:08 19,7 C 84 % 1015,1 hPa 0,0 l/m 1,1 km/h (1 Bft) N 355 0 min 0,000 mm 0,0 UV-I 0 W/m 16,9 C 19,7 C 3,2 km/h (1 Bft) 97,44 %
09.09.2016 21:10 19,7 C 84 % 1015,1 hPa 0,0 l/m 0,9 km/h (0 Bft) N 355 0 min 0,000 mm 0,0 UV-I 0 W/m 16,9 C 19,7 C 1,6 km/h (1 Bft) 98,11 %
09.09.2016 21:12 19,7 C 84 % 1015,2 hPa 0,0 l/m 0,0 km/h (0 Bft) N 355 0 min 0,000 mm 0,0 UV-I 0 W/m 16,9 C 19,7 C 0,0 km/h (0 Bft) 98,00 %
09.09.2016 21:14 19,7 C 85 % 1015,1 hPa 0,0 l/m 0,0 km/h (0 Bft) N 355 0 min 0,000 mm 0,0 UV-I 0 W/m 17,1 C 19,7 C 0,0 km/h (0 Bft) 96,00 %
09.09.2016 21:16 19,6 C 85 % 1015,1 hPa 0,0 l/m 0,8 km/h (0 Bft) N 355 0 min 0,000 mm 0,0 UV-I 0 W/m 17,0 C 19,6 C 1,6 km/h (1 Bft) 97,87 %
09.09.2016 21:18 19,6 C 85 % 1015,2 hPa 0,0 l/m 1,5 km/h (1 Bft) N 355 0 min 0,000 mm 0,0 UV-I 0 W/m 17,0 C 19,6 C 3,2 km/h (1 Bft) 94,74 %
09.09.2016 21:20 19,5 C 85 % 1015,2 hPa 0,0 l/m 0,7 km/h (0 Bft) N 355 0 min 0,000 mm 0,0 UV-I 0 W/m 16,9 C 19,5 C 1,6 km/h (1 Bft) 98,00 %
09.09.2016 21:22 19,4 C 85 % 1015,1 hPa 0,0 l/m 0,0 km/h (0 Bft) N 355 0 min 0,000 mm 0,0 UV-I 0 W/m 16,8 C 19,4 C 1,6 km/h (1 Bft) 97,87 %
09.09.2016 21:24 19,3 C 85 % 1015,1 hPa 0,0 l/m 1,1 km/h (1 Bft) N 355 0 min 0,000 mm 0,0 UV-I 0 W/m 16,7 C 19,3 C 1,6 km/h (1 Bft) 96,23 %
09.09.2016 21:26 19,3 C 86 % 1015,2 hPa 0,0 l/m 1,7 km/h (1 Bft) N 355 0 min 0,000 mm 0,0 UV-I 0 W/m 16,9 C 19,3 C 3,2 km/h (1 Bft) 97,37 %
09.09.2016 21:28 19,2 C 86 % 1015,2 hPa 0,0 l/m 1,4 km/h (1 Bft) N 355 0 min 0,000 mm 0,0 UV-I 0 W/m 16,8 C 19,2 C 1,6 km/h (1 Bft) 97,87 %
09.09.2016 21:30 19,2 C 86 % 1015,2 hPa 0,0 l/m 1,8 km/h (1 Bft) N 355 0 min 0,000 mm 0,0 UV-I 0 W/m 16,8 C 19,2 C 3,2 km/h (1 Bft) 98,00 %
09.09.2016 21:32 19,2 C 86 % 1015,2 hPa 0,0 l/m 1,9 km/h (1 Bft) N 355 0 min 0,000 mm 0,0 UV-I 0 W/m 16,8 C 19,2 C 3,2 km/h (1 Bft) 96,00 %
09.09.2016 21:34 19,2 C 86 % 1015,2 hPa 0,0 l/m 1,5 km/h (1 Bft) N 355 0 min 0,000 mm 0,0 UV-I 0 W/m 16,8 C 19,2 C 3,2 km/h (1 Bft) 100,00 %
09.09.2016 21:36 19,1 C 86 % 1015,2 hPa 0,0 l/m 1,5 km/h (1 Bft) N 355 0 min 0,000 mm 0,0 UV-I 0 W/m 16,7 C 19,1 C 3,2 km/h (1 Bft) 98,11 %
09.09.2016 21:38 19,1 C 87 % 1015,3 hPa 0,0 l/m 2,5 km/h (1 Bft) N 355 0 min 0,000 mm 0,0 UV-I 0 W/m 16,9 C 19,1 C 3,2 km/h (1 Bft) 100,00 %
09.09.2016 21:40 19,0 C 87 % 1015,2 hPa 0,0 l/m 2,4 km/h (1 Bft) N 355 0 min 0,000 mm 0,0 UV-I 0 W/m 16,8 C 19,0 C 4,8 km/h (1 Bft) 98,21 %
09.09.2016 21:42 18,9 C 87 % 1015,3 hPa 0,0 l/m 4,0 km/h (1 Bft) N 355 0 min 0,000 mm 0,0 UV-I 0 W/m 16,7 C 18,9 C 4,8 km/h (1 Bft) 100,00 %
09.09.2016 21:44 18,9 C 87 % 1015,3 hPa 0,0 l/m 3,5 km/h (1 Bft) N 355 0 min 0,000 mm 0,0 UV-I 0 W/m 16,7 C 18,9 C 4,8 km/h (1 Bft) 100,00 %
09.09.2016 21:46 18,9 C 86 % 1015,2 hPa 0,0 l/m 3,2 km/h (1 Bft) N 355 0 min 0,000 mm 0,0 UV-I 0 W/m 16,5 C 18,9 C 6,4 km/h (2 Bft) 100,00 %
09.09.2016 21:48 19,1 C 86 % 1015,2 hPa 0,0 l/m 4,3 km/h (1 Bft) N 351 0 min 0,000 mm 0,0 UV-I 0 W/m 16,7 C 19,1 C 4,8 km/h (1 Bft) 100,00 %
09.09.2016 21:50 19,2 C 86 % 1015,3 hPa 0,0 l/m 3,9 km/h (1 Bft) N 351 0 min 0,000 mm 0,0 UV-I 0 W/m 16,8 C 19,2 C 4,8 km/h (1 Bft) 98,00 %
09.09.2016 21:52 19,2 C 85 % 1015,3 hPa 0,0 l/m 3,4 km/h (1 Bft) N 351 0 min 0,000 mm 0,0 UV-I 0 W/m 16,6 C 19,2 C 4,8 km/h (1 Bft) 100,00 %
09.09.2016 21:54 19,3 C 85 % 1015,3 hPa 0,0 l/m 2,0 km/h (1 Bft) N 351 0 min 0,000 mm 0,0 UV-I 0 W/m 16,7 C 19,3 C 3,2 km/h (1 Bft) 100,00 %
09.09.2016 21:56 19,3 C 85 % 1015,3 hPa 0,0 l/m 1,6 km/h (1 Bft) N 351 0 min 0,000 mm 0,0 UV-I 0 W/m 16,7 C 19,3 C 3,2 km/h (1 Bft) 98,08 %
09.09.2016 21:58 19,3 C 85 % 1015,4 hPa 0,0 l/m 2,9 km/h (1 Bft) N-NW 342 0 min 0,000 mm 0,0 UV-I 0 W/m 16,7 C 19,3 C 4,8 km/h (1 Bft) 100,00 %
09.09.2016 22:00 19,3 C 85 % 1015,3 hPa 0,0 l/m 2,3 km/h (1 Bft) N-NW 342 0 min 0,000 mm 0,0 UV-I 0 W/m 16,7 C 19,3 C 3,2 km/h (1 Bft) 100,00 %
09.09.2016 22:02 19,3 C 85 % 1015,3 hPa 0,0 l/m 1,8 km/h (1 Bft) N-NW 342 0 min 0,000 mm 0,0 UV-I 0 W/m 16,7 C 19,3 C 3,2 km/h (1 Bft) 100,00 %
09.09.2016 22:04 19,3 C 86 % 1015,3 hPa 0,0 l/m 2,1 km/h (1 Bft) N-NW 342 0 min 0,000 mm 0,0 UV-I 0 W/m 16,9 C 19,3 C 4,8 km/h (1 Bft) 98,11 %
09.09.2016 22:06 19,4 C 86 % 1015,3 hPa 0,0 l/m 1,3 km/h (1 Bft) N-NW 342 0 min 0,000 mm 0,0 UV-I 0 W/m 17,0 C 19,4 C 3,2 km/h (1 Bft) 100,00 %
09.09.2016 22:08 19,4 C 86 % 1015,3 hPa 0,0 l/m 1,6 km/h (1 Bft) N-NW 342 0 min 0,000 mm 0,0 UV-I 0 W/m 17,0 C 19,4 C 3,2 km/h (1 Bft) 100,00 %
09.09.2016 22:10 19,4 C 86 % 1015,3 hPa 0,0 l/m 1,4 km/h (1 Bft) N-NW 342 0 min 0,000 mm 0,0 UV-I 0 W/m 17,0 C 19,4 C 3,2 km/h (1 Bft) 100,00 %
09.09.2016 22:12 19,3 C 86 % 1015,4 hPa 0,0 l/m 2,1 km/h (1 Bft) N-NW 342 0 min 0,000 mm 0,0 UV-I 0 W/m 16,9 C 19,3 C 3,2 km/h (1 Bft) 97,87 %
09.09.2016 22:14 19,3 C 86 % 1015,4 hPa 0,0 l/m 3,8 km/h (1 Bft) N-NW 333 0 min 0,000 mm 0,0 UV-I 0 W/m 16,9 C 19,3 C 4,8 km/h (1 Bft) 100,00 %
09.09.2016 22:16 19,3 C 86 % 1015,4 hPa 0,0 l/m 4,0 km/h (1 Bft) W-SW 240 0 min 0,000 mm 0,0 UV-I 0 W/m 16,9 C 19,3 C 6,4 km/h (2 Bft) 100,00 %
09.09.2016 22:18 19,3 C 86 % 1015,4 hPa 0,0 l/m 4,2 km/h (1 Bft) SW 229 0 min 0,000 mm 0,0 UV-I 0 W/m 16,9 C 19,3 C 6,4 km/h (2 Bft) 100,00 %
09.09.2016 22:20 19,3 C 86 % 1015,4 hPa 0,0 l/m 3,2 km/h (1 Bft) SW 224 0 min 0,000 mm 0,0 UV-I 0 W/m 16,9 C 19,3 C 4,8 km/h (1 Bft) 100,00 %
09.09.2016 22:22 19,3 C 86 % 1015,4 hPa 0,0 l/m 3,5 km/h (1 Bft) S-SW 211 0 min 0,000 mm 0,0 UV-I 0 W/m 16,9 C 19,3 C 4,8 km/h (1 Bft) 100,00 %
09.09.2016 22:24 19,3 C 86 % 1015,5 hPa 0,0 l/m 3,7 km/h (1 Bft) S-SW 211 0 min 0,000 mm 0,0 UV-I 0 W/m 16,9 C 19,3 C 4,8 km/h (1 Bft) 100,00 %
09.09.2016 22:26 19,2 C 86 % 1015,5 hPa 0,0 l/m 3,5 km/h (1 Bft) S-SW 211 0 min 0,000 mm 0,0 UV-I 0 W/m 16,8 C 19,2 C 4,8 km/h (1 Bft) 97,87 %
09.09.2016 22:28 19,1 C 87 % 1015,5 hPa 0,0 l/m 3,1 km/h (1 Bft) S-SW 207 0 min 0,000 mm 0,0 UV-I 0 W/m 16,9 C 19,1 C 4,8 km/h (1 Bft) 100,00 %
09.09.2016 22:30 19,1 C 87 % 1015,5 hPa 0,0 l/m 3,5 km/h (1 Bft) S-SW 194 0 min 0,000 mm 0,0 UV-I 0 W/m 16,9 C 19,1 C 6,4 km/h (2 Bft) 100,00 %
09.09.2016 22:32 19,2 C 87 % 1015,5 hPa 0,0 l/m 4,3 km/h (1 Bft) S-SW 193 0 min 0,000 mm 0,0 UV-I 0 W/m 17,0 C 19,2 C 6,4 km/h (2 Bft) 100,00 %
09.09.2016 22:34 19,2 C 87 % 1015,5 hPa 0,0 l/m 4,1 km/h (1 Bft) S-SW 192 0 min 0,000 mm 0,0 UV-I 0 W/m 17,0 C 19,2 C 4,8 km/h (1 Bft) 98,11 %
09.09.2016 22:36 19,1 C 87 % 1015,6 hPa 0,0 l/m 2,8 km/h (1 Bft) S-SW 192 0 min 0,000 mm 0,0 UV-I 0 W/m 16,9 C 19,1 C 4,8 km/h (1 Bft) 98,00 %
09.09.2016 22:38 18,9 C 87 % 1015,6 hPa 0,0 l/m 1,7 km/h (1 Bft) S-SW 192 0 min 0,000 mm 0,0 UV-I 0 W/m 16,7 C 18,9 C 3,2 km/h (1 Bft) 100,00 %
09.09.2016 22:40 18,8 C 88 % 1015,6 hPa 0,0 l/m 1,4 km/h (1 Bft) S-SW 192 0 min 0,000 mm 0,0 UV-I 0 W/m 16,8 C 18,8 C 3,2 km/h (1 Bft) 100,00 %
09.09.2016 22:42 18,8 C 88 % 1015,6 hPa 0,0 l/m 1,3 km/h (1 Bft) S-SW 192 0 min 0,000 mm 0,0 UV-I 0 W/m 16,8 C 18,8 C 1,6 km/h (1 Bft) 100,00 %
09.09.2016 22:44 18,8 C 89 % 1015,6 hPa 0,0 l/m 1,6 km/h (1 Bft) S-SW 192 0 min 0,000 mm 0,0 UV-I 0 W/m 16,9 C 18,8 C 3,2 km/h (1 Bft) 100,00 %
09.09.2016 22:46 18,6 C 88 % 1015,6 hPa 0,0 l/m 1,5 km/h (1 Bft) S-SW 192 0 min 0,000 mm 0,0 UV-I 0 W/m 16,6 C 18,6 C 3,2 km/h (1 Bft) 100,00 %
09.09.2016 22:48 18,3 C 89 % 1015,6 hPa 0,0 l/m 1,3 km/h (1 Bft) S-SW 192 0 min 0,000 mm 0,0 UV-I 0 W/m 16,5 C 18,3 C 1,6 km/h (1 Bft) 98,00 %
09.09.2016 22:50 18,2 C 90 % 1015,6 hPa 0,0 l/m 1,5 km/h (1 Bft) S-SW 192 0 min 0,000 mm 0,0 UV-I 0 W/m 16,5 C 18,2 C 3,2 km/h (1 Bft) 100,00 %
09.09.2016 22:52 18,2 C 91 % 1015,6 hPa 0,0 l/m 1,2 km/h (1 Bft) S-SW 192 0 min 0,000 mm 0,0 UV-I 0 W/m 16,7 C 18,2 C 1,6 km/h (1 Bft) 98,00 %
09.09.2016 22:54 18,2 C 91 % 1015,6 hPa 0,0 l/m 1,7 km/h (1 Bft) S-SW 192 0 min 0,000 mm 0,0 UV-I 0 W/m 16,7 C 18,2 C 3,2 km/h (1 Bft) 100,00 %
09.09.2016 22:56 18,2 C 91 % 1015,6 hPa 0,0 l/m 1,4 km/h (1 Bft) S-SW 192 0 min 0,000 mm 0,0 UV-I 0 W/m 16,7 C 18,2 C 1,6 km/h (1 Bft) 100,00 %
09.09.2016 22:58 18,2 C 91 % 1015,7 hPa 0,0 l/m 1,0 km/h (0 Bft) S-SW 192 0 min 0,000 mm 0,0 UV-I 0 W/m 16,7 C 18,2 C 1,6 km/h (1 Bft) 100,00 %
09.09.2016 23:00 18,2 C 91 % 1015,6 hPa 0,0 l/m 1,9 km/h (1 Bft) S-SW 192 0 min 0,000 mm 0,0 UV-I 0 W/m 16,7 C 18,2 C 3,2 km/h (1 Bft) 100,00 %
09.09.2016 23:02 18,2 C 91 % 1015,6 hPa 0,0 l/m 2,0 km/h (1 Bft) S-SW 192 0 min 0,000 mm 0,0 UV-I 0 W/m 16,7 C 18,2 C 3,2 km/h (1 Bft) 96,15 %
09.09.2016 23:04 18,2 C 90 % 1015,6 hPa 0,0 l/m 1,5 km/h (1 Bft) S-SW 192 0 min 0,000 mm 0,0 UV-I 0 W/m 16,5 C 18,2 C 1,6 km/h (1 Bft) 96,00 %
09.09.2016 23:06 18,0 C 90 % 1015,7 hPa 0,0 l/m 0,3 km/h (0 Bft) S-SW 192 0 min 0,000 mm 0,0 UV-I 0 W/m 16,3 C 18,0 C 1,6 km/h (1 Bft) 97,78 %
09.09.2016 23:08 17,8 C 90 % 1015,6 hPa 0,0 l/m 0,5 km/h (0 Bft) S-SW 192 0 min 0,000 mm 0,0 UV-I 0 W/m 16,1 C 17,8 C 1,6 km/h (1 Bft) 95,12 %
09.09.2016 23:10 17,8 C 91 % 1015,6 hPa 0,0 l/m 0,7 km/h (0 Bft) S-SW 192 0 min 0,000 mm 0,0 UV-I 0 W/m 16,3 C 17,8 C 1,6 km/h (1 Bft) 97,87 %
09.09.2016 23:12 17,8 C 91 % 1015,6 hPa 0,0 l/m 0,7 km/h (0 Bft) S-SW 192 0 min 0,000 mm 0,0 UV-I 0 W/m 16,3 C 17,8 C 1,6 km/h (1 Bft) 97,87 %
09.09.2016 23:14 17,8 C 91 % 1015,6 hPa 0,0 l/m 0,0 km/h (0 Bft) S-SW 192 0 min 0,000 mm 0,0 UV-I 0 W/m 16,3 C 17,8 C 1,6 km/h (1 Bft) 97,87 %
09.09.2016 23:16 17,8 C 91 % 1015,6 hPa 0,0 l/m 0,0 km/h (0 Bft) S-SW 192 0 min 0,000 mm 0,0 UV-I 0 W/m 16,3 C 17,8 C 0,0 km/h (0 Bft) 97,87 %
09.09.2016 23:18 17,8 C 92 % 1015,5 hPa 0,0 l/m 0,0 km/h (0 Bft) S-SW 192 0 min 0,000 mm 0,0 UV-I 0 W/m 16,5 C 17,8 C 0,0 km/h (0 Bft) 96,00 %
09.09.2016 23:20 17,9 C 92 % 1015,5 hPa 0,0 l/m 0,0 km/h (0 Bft) S-SW 192 0 min 0,000 mm 0,0 UV-I 0 W/m 16,6 C 17,9 C 0,0 km/h (0 Bft) 98,00 %
09.09.2016 23:22 18,0 C 92 % 1015,5 hPa 0,0 l/m 0,0 km/h (0 Bft) S-SW 192 0 min 0,000 mm 0,0 UV-I 0 W/m 16,7 C 18,0 C 0,0 km/h (0 Bft) 97,87 %
09.09.2016 23:24 18,0 C 91 % 1015,5 hPa 0,0 l/m 0,0 km/h (0 Bft) S-SW 192 0 min 0,000 mm 0,0 UV-I 0 W/m 16,5 C 18,0 C 0,0 km/h (0 Bft) 97,87 %
09.09.2016 23:26 17,9 C 91 % 1015,5 hPa 0,0 l/m 0,0 km/h (0 Bft) S-SW 192 0 min 0,000 mm 0,0 UV-I 0 W/m 16,4 C 17,9 C 1,6 km/h (1 Bft) 97,87 %
09.09.2016 23:28 17,9 C 91 % 1015,5 hPa 0,0 l/m 0,0 km/h (0 Bft) S-SW 192 0 min 0,000 mm 0,0 UV-I 0 W/m 16,4 C 17,9 C 0,0 km/h (0 Bft) 98,00 %
09.09.2016 23:30 17,8 C 91 % 1015,5 hPa 0,0 l/m 0,0 km/h (0 Bft) S-SW 192 0 min 0,000 mm 0,0 UV-I 0 W/m 16,3 C 17,8 C 0,0 km/h (0 Bft) 95,74 %
09.09.2016 23:32 17,8 C 92 % 1015,5 hPa 0,0 l/m 0,0 km/h (0 Bft) S-SW 192 0 min 0,000 mm 0,0 UV-I 0 W/m 16,5 C 17,8 C 0,0 km/h (0 Bft) 95,12 %
09.09.2016 23:34 17,7 C 91 % 1015,5 hPa 0,0 l/m 0,0 km/h (0 Bft) S-SW 192 0 min 0,000 mm 0,0 UV-I 0 W/m 16,2 C 17,7 C 0,0 km/h (0 Bft) 97,87 %
09.09.2016 23:36 17,6 C 91 % 1015,5 hPa 0,0 l/m 0,0 km/h (0 Bft) S-SW 192 0 min 0,000 mm 0,0 UV-I 0 W/m 16,1 C 17,6 C 0,0 km/h (0 Bft) 98,00 %
09.09.2016 23:38 17,3 C 91 % 1015,5 hPa 0,0 l/m 0,0 km/h (0 Bft) S-SW 192 0 min 0,000 mm 0,0 UV-I 0 W/m 15,8 C 17,3 C 1,6 km/h (1 Bft) 100,00 %
09.09.2016 23:40 17,3 C 92 % 1015,5 hPa 0,0 l/m 0,0 km/h (0 Bft) S-SW 192 0 min 0,000 mm 0,0 UV-I 0 W/m 16,0 C 17,3 C 0,0 km/h (0 Bft) 100,00 %
09.09.2016 23:42 17,4 C 93 % 1015,5 hPa 0,0 l/m 0,0 km/h (0 Bft) S-SW 192 0 min 0,000 mm 0,0 UV-I 0 W/m 16,3 C 17,4 C 0,0 km/h (0 Bft) 97,14 %
09.09.2016 23:44 17,4 C 92 % 1015,5 hPa 0,0 l/m 0,0 km/h (0 Bft) S-SW 192 0 min 0,000 mm 0,0 UV-I 0 W/m 16,1 C 17,4 C 0,0 km/h (0 Bft) 100,00 %
09.09.2016 23:46 17,4 C 92 % 1015,5 hPa 0,0 l/m 0,0 km/h (0 Bft) S-SW 192 0 min 0,000 mm 0,0 UV-I 0 W/m 16,1 C 17,4 C 0,0 km/h (0 Bft) 100,00 %
09.09.2016 23:48 17,4 C 92 % 1015,5 hPa 0,0 l/m 0,0 km/h (0 Bft) S-SW 192 0 min 0,000 mm 0,0 UV-I 0 W/m 16,1 C 17,4 C 0,0 km/h (0 Bft) 100,00 %
09.09.2016 23:50 17,4 C 93 % 1015,5 hPa 0,0 l/m 0,0 km/h (0 Bft) S-SW 192 0 min 0,000 mm 0,0 UV-I 0 W/m 16,3 C 17,4 C 0,0 km/h (0 Bft) 100,00 %
09.09.2016 23:52 17,3 C 93 % 1015,5 hPa 0,0 l/m 0,0 km/h (0 Bft) S-SW 192 0 min 0,000 mm 0,0 UV-I 0 W/m 16,2 C 17,3 C 0,0 km/h (0 Bft) 100,00 %
09.09.2016 23:54 17,3 C 92 % 1015,4 hPa 0,0 l/m 0,0 km/h (0 Bft) S-SW 192 0 min 0,000 mm 0,0 UV-I 0 W/m 16,0 C 17,3 C 0,0 km/h (0 Bft) 100,00 %
09.09.2016 23:56 17,3 C 92 % 1015,4 hPa 0,0 l/m 0,0 km/h (0 Bft) S-SW 192 0 min 0,000 mm 0,0 UV-I 0 W/m 16,0 C 17,3 C 0,0 km/h (0 Bft) 100,00 %
09.09.2016 23:58 17,3 C 92 % 1015,4 hPa 0,0 l/m 0,5 km/h (0 Bft) S-SW 192 0 min 0,000 mm 0,0 UV-I 0 W/m 16,0 C 17,3 C 1,6 km/h (1 Bft) 100,00 %
_ Min-Zeit 07:08 16:46 00:00 - 01:04 - - - - - - 07:08 07:08 01:04 01:22
Minimum _ 13,6 C 50 % 1013,4 hPa - 0,0 km/h (0 Bft) - - - - - - 12,7 C 13,6 C 0,0 km/h (0 Bft) 93,62 %
_ Max-Zeit 15:28 03:28 10:38 00:00 14:02 - - 12:16 13:00 12:46 13:04 18:20 15:28 14:02 00:00
Maximum _ 27,9 C 95 % 1016,1 hPa 0,0 l/m 8,4 km/h
N-NO (2 Bft)
- - 4 min 0,432 mm 4,4 UV-I 681 W/m 19,2 C 27,9 C 14,5 km/h
N-NO (3 Bft)
100,00 %
Durchschnitt _ 20,0 C 80 % 1014,8 hPa #0,0 l/m 1,7 km/h (1 Bft) S-SW - #9:38 h #3,251 mm 2,6 UV-I 384 W/m 16,0 C 20,0 C 3,3 km/h (1 Bft) 98,61 %